     2              OBSERVATION DATA    GPS                 RINEX VERSION / TYPE
ASRINEXO V2.2.0 UX USGS 28-MAR-94 14:36                     PGM / RUN BY / DATE
                                                            COMMENT
Original Marker Name: tuna Tuna_1933_City_of_LA             COMMENT
Campaign Name: northridge eq profile                        COMMENT
4-Character Station Name: TUNA                              COMMENT
6-Character Antenna Code: ASHL12                            COMMENT
Vertical Measurement Point: BBE                             COMMENT
Vertical Offset to Rinex Ref. Point: 0.0595                 COMMENT
Radial Measurement Point: EGP                               COMMENT
Radial Offset to Rinex Ref. Point: 0.1424                   COMMENT
Antenna Height from Field Measurement: 1.3080 m             COMMENT
Additional Antenna Identification Info.:                    COMMENT
Original Ashtech L1/L2                                      COMMENT
Original XYZ: -2715228.3200 -4268970.0900 3871444.1300      COMMENT
New XYZ position is based on association with SCEC monument COMMENT
E1C7Y3O5+0011. Position of that monument is believed to be  COMMENT
valid to within 1 m horizontally; vertical accuracy         COMMENT
should be no worse than 3-times this value.                 COMMENT
                                                            COMMENT
Revised Rinex header created by UCSD GPS archive for        COMMENT
GSAC on 31-Aug-1999 (1999:243) 20:07:30 GMT                 COMMENT
For assistance contact dagnew@ucsd.edu or hjohnson@ucsd.edu COMMENT
                                                            COMMENT
TUNA TUNA_1933_CITY_OF_LA                                   MARKER NAME
                                                            MARKER NUMBER
KWC US GEOLOGICAL SURVEY                                    OBSERVER / AGENCY
764 ASHTECH L-XII 7A                                        REC # / TYPE / VERS
598 ASHTECH GEODETIC L                                      ANT # / TYPE
 -2531812.0000 -4644540.0000  3552538.0000                  APPROX POSITION XYZ
        1.2407        0.0000        0.0000                  ANTENNA: DELTA H/E/N
     1     2     0                                          WAVELENGTH FACT L1/2
     3    C1    L1    L2                                    # / TYPES OF OBSERV
    30                                                      INTERVAL
  1994     3    14    23    53    0.000000                  TIME OF FIRST OBS
  1994     3    15     8     1   30.000000                  TIME OF LAST OBS
                                                            END OF HEADER
 94  3 14 23 53  0.0000000  0  2  2 13
  21380129.974   -13738902.34919     39534.749
  22172296.079     5915715.28317   -159850.284 1
 94  3 14 23 53 30.0000000  0  5  2  7  9 13 15
  20784489.427   -13718171.970 9     55685.989 1
  19976121.489     7185103.86118     32034.158
  23650663.496    -1435540.98415   -237333.516 1
  21555502.956     5825291.344 7   -230310.425 1
  23723910.828    10940907.42415    121168.356
 94  3 14 23 54  0.0000000  0  6  2 26  7  9 13 15
  21388090.093   -13697065.609 8     72132.572 4
  22703888.845     7907760.74116     44989.442 1
  20578193.633     7198159.743 8     42207.599 5
  24231469.533    -1534225.385 5   -314230.351 1
  22138002.130     5735513.435 7   -300267.123 2
  24332278.944    10987028.572 5    157107.723 1
 94  3 14 23 54 30.0000000  0  7  2 26  7  9 27 13 15
  21392276.245   -13675058.900 8     89280.621 5
  22708640.975     7932776.377 6     64482.127 2
  20580902.228     7212399.098 8     53303.198 7
  24212831.196    -1632139.742 5   -390527.204 2
  22732012.825     9724112.18816    247609.057 1
  22121138.145     5646875.089 7   -369335.940 2
  24341279.583    11034392.669 5    194014.869 1
 94  3 14 23 55  0.0000000  0  8  2  4 26  7  9 27 13 15
  21396686.552   -13651892.939 8    107332.007 6
  24063157.383      149266.35215    -36417.049
  22713685.223     7959239.650 6     85102.817 2
  20583878.897     7228047.996 8     65497.141 8
  24194397.617    -1729014.507 5   -466013.981 2
  22750390.313     9820687.130 6    322862.221 2
  22104535.189     5559633.816 7   -437316.043 2
  24350580.344    11083244.263 5    232081.025 1
 94  3 14 23 55 30.0000000  0  8  2  4 26  7  9 27 13 15
  21401338.492   -13627458.769 8    126371.642 6
  24044260.025       49944.499 5   -113811.115 1
  22719011.036     7987255.459 6    106933.320 3
  20587142.438     7245207.206 7     78867.973 9
  24176188.193    -1824720.566 6   -540590.051 2
  22769031.168     9918639.841 6    399188.965 2
  22088218.325     5473898.167 7   -504122.970 2
  24360183.596    11133688.465 5    271388.203 1
 94  3 14 23 56  0.0000000  0  8  2  4 26  7  9 27 13 15
  21406243.906   -13601669.981 8    146466.804 7
  24025593.208      -48188.813 5   -190278.435 1
  22724656.638     8016915.848 6    130045.310 3
  20590714.135     7263960.468 8     93480.922 9
  24158226.158    -1919147.165 5   -614169.177 2
  22787952.059    10018073.019 6    476669.331 2
  22072209.048     5389763.587 7   -569682.311 3
  24370106.936    11185817.087 5    312007.887 2
 94  3 14 23 56 30.0000000  0  8  2  4 26  7  9 27 13 15
  21411417.904   -13574485.255 9    167649.693 7
  24007150.096     -145074.986 5   -265773.997 2
  22730618.760     8048266.174 6    154474.109 3
  20594592.580     7284357.466 8    109374.687 9
  24140503.567    -2012240.972 5   -686709.729 2
  22807165.428    10119032.937 6    555339.343 3
  22056512.484     5307285.036 7   -633951.279 3
  24380351.624    11239681.253 5    353979.930 2
 94  3 14 23 57  0.0000000  0  8  2  4 26  7  9 27 13 15
  21416840.490   -13545974.960 8    189865.505 8
  23988944.809     -240765.494 6   -340337.867 2
  22736898.333     8081244.263 6    180171.302 4
  20598778.492     7306350.712 8    126512.269 9
  24123029.414    -2104059.410 6   -758256.492 2
  22826650.379    10221451.324 6    635145.832 3
  22041121.769     5226407.958 7   -696972.303 3
  24390917.779    11295223.090 5    397259.262 2
 94  3 14 23 57 30.0000000  0  8  2  4 26  7  9 27 13 15
  21422504.409   -13516217.543 8    213053.112 8
  23970947.698     -335323.439 5   -414019.154 2
  22743472.811     8115781.075 6    207083.098 4
  20603254.454     7329867.258 8    144836.876 9
  24105784.633    -2194681.808 5   -828871.243 2
  22846409.520    10325256.147 6    716032.651 3
  22026025.960     5147063.131 7   -758799.376 3
  24401796.888    11352369.610 5    441789.021 2
 94  3 14 23 58  0.0000000  0  8  2  4 26  7  9 27 13 15
  21428395.361   -13485261.812 8    237174.457 8
  23953157.594     -428802.508 5   -486859.803 2
  22750328.795     8151822.959 6    235167.690 4
  20608008.203     7354845.452 8    164300.403 9
  24088760.468    -2284179.536 6   -898609.669 2
  22866417.129    10430389.746 6    797954.904 3
  22011207.428     5069194.086 7   -819476.490 4
  24412968.624    11411060.234 5    487521.944 2
 94  3 14 23 58 30.0000000  0  8  2  4 26  7  9 27 13 15
  21434503.602   -13453163.394 8    262186.217 8
  23935557.618     -521271.647 5   -558913.480 2
  22757466.224     8189308.036 6    264376.824 4
  20613027.508     7381233.426 8    184862.473 9
  24071924.304    -2372622.636 6   -967526.309 2
  22886655.248    10536768.354 6    880847.295 4
  21996658.260     4992733.298 7   -879056.270 4
  24424406.036    11471223.811 5    534402.663 2
 94  3 14 23 59  0.0000000  0  8  2  4 26  7  9 27 13 15
  21440810.965   -13420002.284 8    288026.057 8
  23918142.225     -612813.801 6   -630244.837 3
  22764853.230     8228161.043 6    294651.896 4
  20618302.326     7408937.256 8    206449.883 9
  24055276.499    -2460095.130 5  -1035686.577 2
  22907119.831    10644296.555 6    964635.448 4
  21982359.149     4917592.115 7   -937607.762 4
  24436125.882    11532768.309 5    582359.428 2
 94  3 14 23 59 30.0000000  0  8  2  4 26  7  9 27 13 15
  21447321.588   -13385792.582 8    314682.972 9
  23900890.278     -703463.627 6   -700880.864 3
  22772500.336     8268357.532 6    325973.829 4
  20623815.959     7437923.307 8    229036.427 9
  24038816.364    -2546618.985 6  -1103107.665 2
  22927792.110    10752936.170 6   1049289.660 4
  21968304.159     4843743.016 7   -995152.443 4
  24448085.832    11595662.026 5    631367.447 2
 94  3 15  0  0  0.0000000  0  8  2  4 26  7  9 27 13 15
  21454026.956   -13350570.431 8    342128.817 9
  23883805.585     -793253.213 6   -770846.575 3
  22780404.904     8309854.481 6    358309.110 4
  20629572.214     7468169.995 8    252605.281 9
  24022517.877    -2632230.945 6  -1169818.210 2
  22948670.106    10862646.205 6   1134777.958 4
  21954490.143     4771145.194 7  -1051722.117 4
  24460315.176    11659860.725 5    681392.439 2
 94  3 15  0  0 30.0000000  0  8  2  4 26  7  9 27 13 15
  21460906.444   -13314412.942 8    370303.479 9
  23866875.016     -882232.343 6   -840180.772 3
  22788532.367     8352583.385 6    391604.346 4
  20635559.909     7499631.290 8    277120.585 9
  24006392.430    -2716978.311 5  -1235855.064 2
  22969741.409    10973375.079 6   1221060.174 4
  21940901.480     4699742.650 7  -1107360.400 4
  24472759.831    11725304.675 5    732387.692 2
 94  3 15  0  1  0.0000000  0  8  2  4 26  7  9 27 13 15
  21467955.074   -13277380.343 8    399160.054 9
  23850084.480     -970454.492 6   -908925.140 3
  22796886.864     8396478.963 6    425808.682 4
  20641757.189     7532220.926 8    302515.120 9
  23990424.765    -2800918.417 6  -1301262.844 2
  22990995.465    11085082.227 6   1308104.636 4
  21927531.276     4629483.794 7  -1162107.502 4
  24485436.795    11791938.670 5    784310.282 2
 94  3 15  0  1 30.0000000  0  8  2  4 26  7  9 27 13 15
  21475152.012   -13239556.442 8    428633.230 9
  23833428.671    -1057988.279 6   -977133.080 3
  22805442.131     8441453.533 6    460853.789 4
  20648161.925     7565856.856 8    328724.936 9
  23974586.759    -2884131.701 6  -1366104.292 2
  23012430.926    11197708.330 6   1395865.189 4
  21914367.779     4560300.872 7  -1216016.214 4
  24498333.986    11859691.088 5    837104.389 2
 94  3 15  0  2  0.0000000  0  8  2  4 26  7  9 27 13 15
  21482481.787   -13201030.836 8    458653.188 9
  23816892.418    -1144890.880 6  -1044849.203 3
  22814189.445     8487427.898 6    496677.952 4
  20654747.916     7600461.522 8    355689.623 9
  23958870.889    -2966693.768 6  -1430438.260 2
  23034020.629    11311181.896 6   1484286.120 4
  21901394.410     4492124.985 7  -1269140.225 4
  24511424.874    11928489.398 5    890713.471 2
 94  3 15  0  2 30.0000000  0  8  2  4 26  7  9 27 13 15
  21489938.045   -13161850.888 8    489183.017 9
  23800463.222    -1231209.631 6  -1112110.391 3
  22823126.199     8534360.955 6    533249.158 4
  20661504.548     7635968.249 8    383357.208 9
  23943278.863    -3048636.425 6  -1494289.638 2
  23055767.035    11425457.804 6   1573332.232 4
  21888606.253     4424919.228 7  -1321508.282 4
  24524709.157    11998292.955 5    945105.793 2
 94  3 15  0  3  0.0000000  0  8  2  4 26  7  9 27 13 15
  21497516.019   -13122031.619 8    520211.019 9
  23784141.262    -1316982.911 5  -1178946.563 3
  22832233.773     8582233.672 6    570552.584 4
  20668423.758     7672340.720 8    411699.401 9
  23927800.398    -3129988.760 6  -1557680.981 2
  23077657.700    11540486.312 6   1662964.791 4
  21875993.925     4358654.297 7  -1373143.232 4
  24538184.768    12069068.584 4   1000255.663 2
 94  3 15  0  3 30.0000000  0  8  2  4 26  7  9 27 13 15
  21505209.353   -13081599.990 8    551716.175 9
  23767919.132    -1402231.684 6  -1245373.978 3
  22841512.230     8631027.861 6    608573.995 4
  20675512.441     7709585.224 8    440721.101 9
  23912430.759    -3210771.042 6  -1620628.170 2
  23099680.844    11656216.132 6   1753143.827 3
  21863560.902     4293304.457 7  -1424065.146 4
  24551818.310    12140786.786 5   1056139.950 2
 94  3 15  0  4  0.0000000  0  9  2  4 26  7  9 27 13 12 15
  21513012.861   -13040599.400 8    583664.656 9
  23751782.803    -1487015.638 5  -1311439.249 3
  22850970.442     8680691.541 6    647272.938 4
  20682757.345     7747661.948 8    470391.264 9
  23897153.605    -3291027.639 6  -1683165.708 2
  23121830.410    11772586.378 6   1843821.867 3
  21851288.808     4228817.718 7  -1474314.513 4
  24807643.566     -798742.44115   -946419.113 2
  24565647.856    12213392.195 5   1112715.583 2
 94  3 15  0  4 30.0000000  0  9  2  4 26  7  9 27 13 12 15
  21520914.911   -12999064.736 8    616029.353 9
  23735727.987    -1571390.595 5  -1377185.770 3
  22860573.095     8731174.139 6    686610.035 5
  20690154.154     7786519.137 8    500669.617 9
  23881977.301    -3370807.595 6  -1745331.848 2
  23144085.143    11889551.261 6   1934963.317 3
  21839174.464     4165148.148 7  -1523927.098 4
  24793618.795     -872455.945 5  -1003858.177 2
  24579610.390    12286835.093 5   1169943.779 2
 94  3 15  0  5  0.0000000  0  9  2  4 26  7  9 27 13 12 15
  21528917.031   -12957022.888 8    648789.225 9
  23719743.054    -1655372.763 5  -1442626.251 3
  22870325.973     8782435.309 6    726553.774 4
  20697690.637     7826136.638 8    531540.397 9
  23866872.768    -3450155.104 6  -1807161.016 2
  23166445.883    12007074.508 6   2026539.822 3
  21827204.171     4102263.654 7  -1572927.936 4
  24779642.081     -945895.900 5  -1061083.975 2
  24593740.568    12361079.592 5   1227796.648 2
 94  3 15  0  5 30.0000000  0  9  2  4 26  7  9 27 13 12 15
  21537009.958   -12914494.863 8    681927.941 9
  23703838.554    -1738969.035 5  -1507766.037 3
  22880221.792     8834433.769 6    767072.041 4
  20705370.210     7866492.673 8    562986.666 9
  23851851.127    -3529092.671 6  -1868670.762 2
  23188917.067    12125161.017 6   2118555.233 3
  21815387.641     4040153.581 7  -1621325.345 4
  24765719.629    -1019073.904 5  -1118105.775 2
  24608023.910    12436111.077 5   1286262.744 2
 94  3 15  0  6  0.0000000  0  9  2  4 26  7  9 27 13 12 15
  21545196.541   -12871472.604 8    715451.775 9
  23688006.304    -1822166.357 6  -1572594.956 4
  22890262.531     8887162.234 6    808159.128 4
  20713190.866     7907575.451 8    594999.220 9
  23836906.983    -3607615.638 6  -1929857.442 2
  23211505.619    12243838.163 6   2211030.848 3
  21803719.269     3978828.194 7  -1669111.326 5
  24751846.403    -1091979.906 5  -1174915.558 2
  24622453.760    12511936.343 5   1345347.339 2
 94  3 15  0  6 30.0000000  0  9  2  4 26  7  9 27 13 12 15
  21553480.526   -12827938.063 8    749374.795 9
  23672252.810    -1904941.488 6  -1637094.887 3
  22900428.673     8940642.603 6    849832.136 4
  20721145.739     7949387.106 8    627579.735 9
  23822046.720    -3685706.722 6  -1990707.578 3
  23234200.358    12363111.774 6   2303971.314 3
  21792200.763     3918307.643 7  -1716270.150 5
  24738027.830    -1164594.840 5  -1231498.591 2
  24637036.265    12588571.634 5   1405063.109 2
 94  3 15  0  7  0.0000000  0  9  2  4 26  7  9 27 13 12 15
  21561858.226   -12783917.431 8    783676.569 8
  23656578.911    -1987307.102 6  -1701275.718 3
  22910756.433     8994860.849 6    892080.079 4
  20729235.249     7991910.213 8    660714.607 9
  23807267.162    -3763372.566 6  -2051226.398 2
  23257005.030    12482953.355 6   2397354.279 3
  21780833.353     3858576.357 7  -1762813.968 4
  24724268.105    -1236934.696 5  -1287867.183 2
  24651764.259    12665997.833 5   1465395.201 2
 94  3 15  0  7 30.0000000  0  9  2  4 26  7  9 27 13 12 15
  21570326.284   -12739410.552 8    818357.283 8
  23640982.418    -2069265.550 6  -1765139.264 3
  22921216.762     9049820.431 6    934905.716 4
  20737463.173     8035135.887 8    694396.986 9
  23792567.888    -3840601.948 6  -2111405.065 3
  23279914.361    12603362.232 6   2491179.326 3
  21769617.877     3799637.561 7  -1808740.242 5
  24710548.793    -1308996.884 5  -1344019.509 2
  24666650.573    12744214.150 5   1526342.979 2
 94  3 15  0  8  0.0000000  0  9  2  4 26  7  9 27 13 12 15
  21578885.688   -12694424.746 8    853411.142 8
  23625466.390    -2150829.983 6  -1828695.817 3
  22931805.941     9105524.433 6    978311.419 4
  20745824.025     8079053.897 8    728618.797 9
  23777964.758    -3917390.778 6  -2171240.431 3
  23302936.143    12724313.667 6   2585427.143 3
  21758553.767     3741479.950 7  -1854057.800 5
  24696890.878    -1380793.253 5  -1399964.611 2
  24681684.355    12823205.729 5   1587894.828 2
 94  3 15  0  8 30.0000000  0  9  2  4 26  7  9 27 13 12 15
  21587537.399   -12648966.597 8    888833.086 8
  23610015.866    -2232009.979 6  -1891952.760 3
  22942541.899     9161974.238 6   1022298.262 4
  20754305.483     8123660.646 8    763377.320 9
  23763435.226    -3993737.427 6  -2230731.282 3
  23326046.424    12845786.560 6   2680081.257 3
  21747629.899     3684095.376 7  -1898773.007 5
  24683263.752    -1452332.720 5  -1455709.540 2
  24696864.916    12902960.746 5   1650041.606 2
 94  3 15  0  9  0.0000000  0  9  2  4 26  7  9 27 13 12 15
  21596274.131   -12603045.990 8    924615.365 8
  23594642.179    -2312800.225 6  -1954906.077 3
  22953434.528     9219154.084 6   1066853.958 4
  20762929.343     8168955.827 8    798672.268 9
  23748989.936    -4069651.140 6  -2289884.762 3
  23349267.568    12967796.378 5   2775153.802 3
  21736857.517     3627475.437 7  -1942892.390 5
  24669706.598    -1523623.834 5  -1511260.966 2
  24712174.837    12983467.273 5   1712773.944 2
 94  3 15  0  9 30.0000000  0  9  2  4 26  7  9 27 13 12 15
  21605102.539   -12556651.778 8    960766.699 8
  23579343.470    -2393199.112 6  -2017554.404 3
  22964452.890     9277049.296 6   1111967.083 4
  20771680.735     8214948.132 8    834510.429 9
  23734622.083    -4145134.652 6  -2348703.027 3
  23372589.983    13090360.341 5   2870658.129 3
  21726227.356     3571620.553 7  -1986415.636 5
  24656186.078    -1594667.031 5  -1566619.130 1
  24727645.897    13064721.661 5   1776089.065 2
 94  3 15  0 10  0.0000000  0  9  2  4 26  7  9 27 13 12 15
  21614024.692   -12509773.057 8    997295.577 8
  23564119.200    -2473201.652 6  -2079893.913 3
  22975602.681     9335665.127 6   1157641.736 4
  20780565.414     8261648.111 8    870900.020 9
  23720340.870    -4220184.626 6  -2407183.437 3
  23396016.455    13213490.493 5   2966603.621 3
  21715746.971     3516537.927 7  -2029337.113 5
  24642716.372    -1665455.287 5  -1621778.802 1
  24743254.232    13146727.634 5   1839989.742 2
 94  3 15  0 10 30.0000000  0  9  2  4 26  7  9 27 13 12 15
  21623011.121   -12462546.872 8   1034095.196 8
  23548947.723    -2552928.382 6  -2142018.481 3
  22986878.835     9394867.953 6   1203773.802 4
  20789561.496     8308921.617 8    907736.532 9
  23706115.058    -4294946.630 6  -2465439.483 3
  23419532.115    13337046.618 6   3062881.092 3
  21705384.855     3462096.745 8  -2071758.769 5
  24629269.452    -1736120.056 5  -1676842.151 1
  24758974.599    13229350.460 5   1904371.193 2
 94  3 15  0 11  0.0000000  0  9  2  4 26  7  9 27 13 12 15
  21632082.391   -12414873.986 8   1071242.897 8
  23533849.875    -2632277.749 6  -2203849.030 3
  22998269.329     9454743.728 6   1250430.208 4
  20798688.228     8356868.726 8    945097.910 9
  23691961.406    -4369325.202 6  -2523396.758 3
  23443142.780    13461111.819 6   3159555.180 3
  21695167.718     3408399.362 8  -2113600.834 5
  24615863.242    -1806559.140 5  -1731729.630 1
  24774832.360    13312688.918 5   1969310.252 2
 94  3 15  0 11 30.0000000  0  9  2  4 26  7  9 27 13 12 15
  21641245.517   -12366719.446 8   1108765.929 8
  23518824.906    -2711221.669 6  -2265363.630 3
  23009787.296     9515328.798 6   1297639.325 4
  20807944.560     8405517.648 8    983006.173 9
  23677889.478    -4443272.151 6  -2581017.692 3
  23466843.712    13585691.304 5   3256630.055 3
  21685098.559     3355484.487 8  -2154833.161 5
  24602509.527    -1876734.396 5  -1786411.574 1
  24790831.295    13396778.066 5   2034834.230 2
 94  3 15  0 12  0.0010000  0  9  2  4 26  7  9 27 13 12 15
  21650504.608   -12318064.781 8   1146678.652 8
  23503889.366    -2789723.617 6  -2326533.862 3
  23021471.167     9576670.356 6   1345437.917 4
  20817339.786     8454887.345 8   1021476.074 9
  23663905.419    -4516750.532 6  -2638273.524 3
  23490654.878    13710785.476 5   3354105.962 3
  21675180.675     3303385.328 8  -2195429.866 5
  24589211.393    -1946613.403 5  -1840862.685 1
  24806977.967    13481652.101 4   2100969.870 2
 94  3 15  0 12 30.0010000  0  8  2  4 26  7  9 27 13 12
  21659837.117   -12269025.108 8   1184891.396 8
  23489016.632    -2867861.763 6  -2387420.564 4
  23033264.643     9638670.525 6   1393749.715 4
  20826848.483     8504870.245 8   1060423.789 9
  23650010.728    -4589831.510 6  -2695219.662 3
  23514526.692    13836265.338 5   3451882.383 3
  21665409.569     3252014.597 8  -2235458.959 5
  24575958.138    -2016282.828 5  -1895150.376 1
 94  3 15  0 13  0.0010000  0  8  2  4 26  7  9 27 13 12
  21669243.525   -12219591.447 8   1223411.113 8
  23474217.947    -2945640.618 6  -2448027.381 4
  23045192.275     9701324.718 6   1442571.141 4
  20836479.765     8555463.005 8   1099846.721 9
  23636167.392    -4662497.846 6  -2751842.723 3
  23538479.030    13962151.616 5   3549975.539 3
  21655772.411     3201374.138 8  -2274919.024 5
  24562737.890    -2085741.298 5  -1949273.828 1
 94  3 15  0 13 30.0010000  0  8  2  4 26  7  9 27 13 12
  21678719.934   -12169777.051 8   1262227.513 8
  23459484.257    -3023055.230 6  -2508350.331 3
  23057235.508     9764621.287 6   1491893.077 4
  20846216.994     8606637.286 8   1139722.768 9
  23622421.458    -4734752.338 6  -2808144.907 3
  23562521.935    14088459.283 5   3648397.010 3
  21646271.988     3151453.823 8  -2313817.942 5
  24549557.635    -2154999.299 5  -2003241.068 1
 94  3 15  0 14  0.0010000  0  8  2  4 26  7  9 27 13 12
  21688273.331   -12119600.297 8   1301326.303 8
  23444824.286    -3100115.320 6  -2568397.031 3
  23069394.131     9828536.941 6   1541697.493 4
  20856062.388     8658378.319 8   1180040.497 9
  23608747.144    -4806626.594 6  -2864150.749 3
  23586633.074    14215177.985 5   3747138.851 3
  21636907.611     3102234.796 8  -2352170.367 5
  24536410.267    -2224075.994 5  -2057066.906 1
 94  3 15  0 14 30.0010000  0  8  2  4 26  7  9 27 13 12
  21697891.153   -12069049.763 8   1340716.315 8
  23430218.997    -3176833.540 6  -2628177.343 3
  23081676.358     9893055.165 6   1591971.391 4
  20866014.449     8710677.042 8   1220792.747 9
  23595140.764    -4878130.821 6  -2919868.280 3
  23610834.000    14342328.271 5   3846216.880 3
  21627671.545     3053708.817 8  -2389982.791 5
  24523297.524    -2292979.928 5  -2110758.204 1
 94  3 15  0 15  0.0010000  0  8  2  4 26  7  9 27 13 12
  21707585.092   -12018116.445 8   1380404.615 8
  23415687.187    -3253212.663 6  -2687693.440 3
  23094062.223     9958150.371 6   1642694.918 4
  20876070.177     8763535.636 8   1261981.261 9
  23581605.194    -4949293.130 6  -2975319.392 3
  23635115.750    14469934.475 5   3945650.223 3
  21618569.096     3005868.810 8  -2427260.680 5
  24510217.220    -2361718.136 5  -2164320.348 1
 94  3 15  0 15 30.0010000  0  8  2  4 26  7  9 27 13 12
  21717344.745   -11966819.364 8   1420376.377 8
  23401216.715    -3329264.609 6  -2746954.572 3
  23106558.592    10023817.840 6   1693864.339 4
  20886235.900     8816955.936 8   1303607.484 9
  23568117.592    -5020131.639 6  -3030518.169 3
  23659484.020    14597966.295 5   4045415.202 3
  21609594.089     2958704.496 8  -2464012.040 5
  24497178.346    -2430300.882 5  -2217761.404 1
 94  3 15  0 16  0.0010000  0  8  2  4 26  7  9 27 13 12
  21727174.760   -11915164.984 8   1460626.543 8
  23386799.546    -3405016.129 6  -2805981.623 3
  23119163.486    10090055.919 6   1745478.388 4
  20896511.436     8870938.592 8   1345671.903 9
  23554698.162    -5090652.317 6  -3085469.273 4
  23683915.786    14726398.015 5   4145491.798 3
  21600747.574     2912212.067 8  -2500239.868 5
  24484147.657    -2498732.209 5  -2271084.430 1
 94  3 15  0 16 30.0010000  0  8  2  4 26  7  9 27 13 12
  21737072.288   -11863146.000 8   1501160.819 8
  23372442.425    -3480460.011 6  -2864768.928 4
  23131880.203    10156862.740 6   1797535.643 4
  20906891.150     8925484.036 8   1388174.854 9
  23541344.296    -5160834.752 6  -3140156.844 4
  23708431.075    14855247.669 5   4245894.089 3
  21592030.089     2866398.973 8  -2535938.350 5
  24471154.922    -2567004.763 5  -2324283.714 1
 94  3 15  0 17  0.0010000  0  8  2  4 26  7  9 27 13 12
  21747038.558   -11810780.099 8   1541965.402 8
  23358143.524    -3555598.374 6  -2923318.191 4
  23144692.853    10224227.088 6   1850027.299 4
  20917374.293     8980583.766 8   1431109.706 9
  23528047.182    -5230685.722 6  -3194586.124 4
  23733036.211    14984494.349 5   4346605.673 3
  21583439.446     2821262.476 8  -2571109.607 5
  24458195.134    -2635121.117 5  -2377361.404 1
 94  3 15  0 17 30.0010000  0  8  2  4 26  7  9 27 13 12
  21757068.475   -11758065.705 8   1583041.518 7
  23343902.842    -3630443.862 6  -2981639.283 3
  23157626.709    10292163.552 6   1902964.761 4
  20927961.644     9036211.223 8   1474455.756 9
  23514825.135    -5300187.260 6  -3248743.131 4
  23757697.768    15114107.398 5   4447602.773 3
  21574977.024     2776800.132 8  -2605755.580 5
  24445259.509    -2703083.766 5  -2430319.220 1
 94  3 15  0 18  0.0010000  0  8  2  4 26  7  9 27 13 12
  21767168.303   -11704990.942 8   1624398.361 7
  23329716.333    -3704981.925 6  -3039720.916 3
  23170648.314    10360662.716 6   1956340.634 4
  20938642.859     9092346.166 8   1518197.154 9
  23501668.623    -5369334.759 6  -3302624.351 3
  23782427.348    15244092.053 5   4548889.306 2
  21566643.274     2733010.147 7  -2639877.717 5
  24432355.542    -2770894.480 5  -2483158.882 1
 94  3 15  0 18 30.0010000  0  8  2  4 26  7  9 27 13 12
  21777342.090   -11651536.207 8   1666051.541 7
  23315598.807    -3779183.165 6  -3097539.811 3
  23183808.603    10429740.261 6   2010167.376 4
  20949423.276     9149005.561 8   1562347.482 9
  23488586.400    -5438112.480 6  -3356217.195 3
  23807243.718    15374456.332 5   4650471.957 2
  21558442.001     2689906.587 7  -2673464.717 5
  24419480.805    -2838539.229 5  -2535868.815 1
 94  3 15  0 19  0.0010000  0  8  2  4 26  7  9 27 13 12
  21787586.837   -11597699.093 8   1708002.512 7
  23301540.819    -3853050.872 6  -3155098.953 3
  23197064.317    10499401.783 6   2064449.030 4
  20960306.552     9206186.705 8   1606904.203 9
  23475562.546    -5506516.667 6  -3409519.097 3
  23832112.252    15505174.103 5   4752329.885 2
  21550371.378     2647490.606 7  -2706516.101 5
  24406640.215    -2906016.495 5  -2588448.437 2
 94  3 15  0 19 30.0010000  0  8  2  4 26  7  9 27 13 12
  21797902.786   -11543481.659 8   1750249.859 7
  23287545.398    -3926585.850 6  -3212398.835 3
  23210426.996    10569637.220 6   2119177.910 4
  20971290.378     9263897.636 8   1651873.761 9
  23462619.007    -5574535.961 6  -3462521.101 3
  23857056.184    15636247.096 5   4854464.582 2
  21542427.748     2605756.631 8  -2739036.053 5
  24393833.500    -2973331.860 5  -2640901.925 2
 94  3 15  0 20  0.0010000  0  8  2  4 26  7  9 27 13 12
  21808292.094   -11488907.402 8   1792775.265 7
  23273615.271    -3999793.899 6  -3269443.972 4
  23223885.489    10640414.816 6   2174329.275 4
  20982376.043     9322156.017 8   1697269.910 9
  23449743.221    -5642195.054 6  -3515242.403 4
  23882064.421    15767674.932 5   4956875.831 2
  21534617.465     2564697.564 7  -2771030.084 5
  24381051.309    -3040492.214 5  -2693234.591 2
 94  3 15  0 20 30.0010000  0  8  2  4 26  7  9 27 13 12
  21818738.422   -11433974.011 8   1835580.501 7
  23259747.772    -4072677.988 6  -3326236.673 4
  23237465.188    10711733.651 6   2229902.361 4
  20993567.146     9380974.684 8   1743102.625 9
  23436936.447    -5709485.101 6  -3567676.149 4
  23907149.135    15899471.625 5   5059574.456 2
  21526934.353     2524328.859 7  -2802486.186 5
  24368308.781    -3107481.786 5  -2745434.209 2
 94  3 15  0 21  0.0010000  0  8  2  4 26  7  9 27 13 12
  21829260.747   -11378703.268 8   1878648.609 7
  23245935.674    -4145244.225 6  -3382781.694 4
  23251139.111    10783562.739 6   2285873.076 4
  21004861.767     9440331.325 8   1789354.551 9
  23424200.933    -5776432.385 6  -3619842.806 4
  23932305.380    16031640.092 5   5162562.780 2
  21519382.491     2484638.411 7  -2833413.757 6
  24355593.833    -3174312.555 6  -2797510.044 2
 94  3 15  0 21 30.0010000  0  8  2  4 26  7  9 27 13 12
  21839843.871   -11323093.319 8   1921981.009 7
  23232194.626    -4217477.364 6  -3439067.189 4
  23264889.692    10855898.591 6   2342238.649 4
  21016259.936     9500227.953 8   1836027.243 9
  23411524.239    -5843056.782 6  -3671757.893 4
  23957527.669    16164181.667 5   5265841.856 2
  21511956.962     2445627.549 7  -2863811.812 6
  24342909.195    -3240983.024 6  -2849461.029 2
 94  3 15  0 22  0.0010000  0  8  2  4 26  7  9 27 13 12
  21850489.981   -11267146.295 8   1965576.113 7
  23218513.957    -4289365.356 6  -3495083.707 4
  23278765.166    10928759.712 6   2399013.514 4
  21027759.465     9560658.607 8   1883116.063 9
  23398902.167    -5909366.821 6  -3723427.982 4
  23982816.991    16297091.084 5   5369407.566 2
  21504665.560     2407304.958 7  -2893673.526 6
  24330244.013    -3307483.998 6  -2901279.878 2
 94  3 15  0 22 30.0010000  0  8  2  4 26  7  9 27 13 12
  21861201.265   -11210854.389 8   2009439.923 7
  23204902.570    -4360887.912 6  -3550815.480 4
  23292734.955    11002163.754 6   2456211.452 4
  21039358.585     9621610.078 8   1930610.716 9
  23386350.067    -5975334.366 6  -3774831.225 4
  24008172.118    16430370.241 5   5473261.364 2
  21497502.529     2369676.090 8  -2922994.695 6
  24317628.686    -3373809.695 6  -2952962.131 2
 94  3 15  0 23  0.0010000  0  8  2  4 26  7  9 27 13 12
  21871977.515   -11154221.062 8   2053569.786 7
  23191363.223    -4432039.487 6  -3606258.189 4
  23306809.851    11076120.321 6   2513839.931 4
  21051054.718     9683080.507 8   1978509.753 9
  23373857.415    -6040956.483 6  -3825965.289 4
  24033602.103    16563994.907 5   5577384.389 2
  21490473.325     2332732.629 7  -2951781.755 6
  24305034.825    -3439967.979 6  -3004513.976 2
 94  3 15  0 23 30.0010000  0  8  2  4 26  7  9 27 13 12
  21882815.042   -11097265.678 8   2097950.611 7
  23177885.844    -4502843.758 6  -3661430.255 4
  23320981.011    11150616.455 6   2571888.808 4
  21062847.354     9745044.169 8   2026793.129 9
  23361439.382    -6106237.480 6  -3876833.555 4
  24059089.259    16697925.989 5   5681746.185 2
  21483571.293     2296455.120 7  -2980049.917 6
  24292476.339    -3505978.253 5  -3055950.476 2
 94  3 15  0 24  0.0010000  0  8  2  4 26  7  9 27 13 12
  21893711.839   -11040002.237 8   2142571.454 7
  23164484.731    -4573305.755 6  -3716335.637 4
  23335255.419    11225636.911 6   2630346.280 4
  21074731.517     9807489.474 8   2075451.804 9
  23349084.485    -6171159.287 6  -3927421.944 4
  24084636.763    16832160.892 5   5786344.755 2
  21476792.806     2260838.526 8  -3007803.073 6
  24279941.027    -3571844.678 6  -3107274.896 2
 94  3 15  0 24 30.0010000  0  8  2  4 26  7  9 27 13 12
  21904673.000   -10982406.955 8   2187450.905 7
  23151139.590    -4643414.196 6  -3770965.488 4
  23349626.810    11301169.843 6   2689203.085 4
  21086702.680     9870409.674 8   2124480.553 9
  23336801.748    -6235716.681 6  -3977726.348 4
  24110236.311    16966696.137 5   5891177.297 2
  21470143.979     2225883.961 8  -3035040.351 6
  24267433.775    -3637566.007 6  -3158486.272 2
 94  3 15  0 25  0.0010000  0  8  2  4 26  7  9 27 13 12
  21915693.131   -10924484.154 8   2232585.550 7
  23137865.499    -4713177.793 6  -3825326.650 4
  23364100.040    11377195.007 6   2748443.433 4
  21098766.988     9933799.241 8   2173875.015 9
  23324582.567    -6299933.848 6  -4027765.682 4
  24135889.731    17101504.657 5   5996222.805 2
  21463612.011     2191582.072 8  -3061769.062 6
  24254958.062    -3703151.001 6  -3209591.342 2
 94  3 15  0 25 30.0010000  0  8  2  4 26  7  9 27 13 12
  21926777.118   -10866251.887 8   2277961.341 7
  23124652.176    -4782618.798 6  -3879436.435 4
  23378651.396    11453677.551 6   2808040.226 4
  21110916.257     9997637.145 8   2223618.853 9
  23312417.649    -6363832.425 6  -4077556.699 4
  24161585.752    17236574.150 5   6101471.696 2
  21457209.223     2157919.370 8  -3087999.703 6
  24242495.240    -3768612.432 5  -3260600.160 2
 94  3 15  0 26  0.0010000  0  8  2  4 26  7  9 27 13 12
  21937918.665   -10807704.727 8   2323582.478 7
  23111496.804    -4851739.423 6  -3933296.576 4
  23393294.969    11530612.585 6   2867989.530 4
  21123145.061    10061918.376 8   2273708.104 9
  23300319.794    -6427403.550 6  -4127092.629 4
  24187347.698    17371916.873 5   6206933.463 2
  21450924.764     2124900.816 8  -3113728.427 6
  24230065.395    -3833944.829 5  -3311508.494 2
 94  3 15  0 26 30.0010000  0  8  2  4 26  7  9 27 13 12
  21949120.020   -10748839.430 8   2369451.542 7
  23098398.302    -4920553.318 6  -3986917.692 4
  23408017.357    11607997.576 6   2928289.500 4
  21135465.272    10126645.814 8   2324145.079 9
  23288285.735    -6490658.696 6  -4176382.291 4
  24213151.134    17507532.723 5   6312608.065 2
  21444764.299     2092528.046 8  -3138953.929 6
  24217658.064    -3899145.994 5  -3362314.513 2
 94  3 15  0 27  0.0010000  0  8  2  4 26  7  9 27 13 12
  21960380.555   -10689661.886 8   2415563.928 7
  23085363.505    -4989063.776 6  -4040302.410 5
  23422838.766    11685833.945 6   2988941.197 4
  21147870.384    10191840.398 8   2374946.075 9
  23276309.806    -6553585.859 6  -4225416.402 4
  24239010.212    17643439.869 5   6418509.653 2
  21438731.485     2060816.163 8  -3163664.448 6
  24205280.593    -3964200.293 5  -3413006.123 2
 94  3 15  0 27 30.0010000  0  8  2  4 26  7  9 27 13 12
  21971701.737   -10630172.406 8   2461919.340 7
  23072383.421    -5057275.009 6  -4093453.942 5
  23437729.997    11764117.602 6   3049941.408 4
  21160361.327    10257489.416 8   2426101.142 9
  23264398.332    -6616173.481 6  -4274185.922 5
  24264932.427    17779661.995 5   6524656.651 2
  21432818.828     2029765.938 8  -3187859.399 6
  24192922.578    -4029105.987 5  -3463581.927 2
 94  3 15  0 28  0.0010000  0  8  2  4 26  7  9 27 13 12
  21983081.020   -10570371.133 8   2508517.739 7
  23059465.604    -5125166.309 6  -4146356.194 5
  23452710.446    11842856.228 6   3111296.160 4
  21172941.997    10323592.705 8   2477610.200 9
  23252557.190    -6678409.495 6  -4322681.479 5
  24290920.626    17916200.438 5   6631050.149 2
  21427035.472     1999375.862 8  -3211539.940 6
  24180603.716    -4093864.024 5  -3514042.682 2
 94  3 15  0 28 30.0010000  0  8  2  4 26  7  9 27 13 12
  21994521.220   -10510257.772 8   2555359.330 7
  23046609.125    -5192715.310 6  -4198991.701 5
  23467785.930    11922059.596 6   3173013.043 4
  21185610.387    10390165.710 8   2529485.284 9
  23240778.314    -6740293.322 6  -4370902.576 5
  24316958.440    18053043.909 5   6737681.342 2
  21421381.176     1969648.597 8  -3234703.999 6
  24168305.900    -4158471.037 5  -3564385.724 2
 94  3 15  0 29  0.0010000  0  8  2  4 26  7  9 27 13 12
  22006015.622   -10449846.237 8   2602433.246 7
  23033820.008    -5259912.799 6  -4251353.309 5
  23482935.942    12001723.852 6   3235089.053 4
  21198362.929    10457181.070 8   2581705.055 9
  23229073.577    -6801812.361 6  -4418839.425 5
  24343054.474    18190181.181 5   6844541.470 2
  21415847.607     1940572.083 8  -3257360.981 6
  24156042.620    -4222938.207 6  -3614619.821 2
 94  3 15  0 29 30.0010000  0  8  2  4 26  7  9 27 13 12
  22017565.846   -10389153.125 8   2649726.573 7
  23021102.662    -5326756.492 6  -4303439.246 5
  23498191.061    12081851.735 6   3297526.325 4
  21211194.406    10524609.136 8   2634246.395 9
  23217434.584    -6862965.520 6  -4466491.200 5
  24369203.212    18327591.064 5   6951613.993 2
  21410435.184     1912131.579 8  -3279522.382 6
  24143799.785    -4287279.408 6  -3664755.791 2
 94  3 15  0 30  0.0010000  0  8  2  4 26  7  9 27 13 12
  22029163.048   -10328205.535 8   2697218.216 7
  23008448.243    -5393251.819 6  -4355253.699 5
  23513517.800    12162427.077 6   3360312.274 4
  21224103.649    10592443.569 8   2687104.409 9
  23205862.416    -6923767.005 6  -4513868.900 5
  24395402.105    18465246.593 5   7058877.957 2
  21405144.387     1884317.022 8  -3301196.044 6
  24131579.945    -4351504.238 6  -3714801.039 2
 94  3 15  0 30 30.0010000  0  8  2  4 26  7  9 27 13 12
  22040808.935   -10267006.752 8   2744905.578 7
  22995855.880    -5459420.332 6  -4406813.516 5
  23528937.835    12243437.974 6   3423437.600 4
  21237089.129    10660681.989 8   2740277.214 9
  23194362.437    -6984222.844 7  -4560977.301 5
  24421644.407    18603139.933 5   7166327.258 2
  21399968.770     1857127.718 8  -3322382.470 6
  24119381.180    -4415612.016 6  -3764755.079 2
 94  3 15  0 31  0.0010000  0  8  2  4 26  7  9 27 13 12
  22052510.435   -10205525.349 8   2792813.164 7
  22983332.680    -5525253.372 6  -4458111.903 5
  23544433.568    12324883.164 6   3486901.377 4
  21250152.016    10729332.612 8   2793771.194 9
  23182927.094    -7044316.257 6  -4607803.273 5
  24447928.861    18741288.745 5   7273975.545 2
  21394917.747     1830579.840 8  -3343069.092 6
  24107202.471    -4479585.919 6  -3814604.796 2
 94  3 15  0 31 30.0010000  0  8  2  4 26  7  9 27 13 12
  22064263.918   -10143743.866 8   2840954.584 6
  22970867.100    -5590760.631 6  -4509156.452 5
  23560012.133    12406745.023 6   3550689.780 4
  21263295.547    10798408.818 8   2847596.811 9
  23171557.794    -7104069.247 7  -4654364.014 5
  24474260.832    18879686.474 5   7381817.844 2
  21389990.508     1804672.972 8  -3363256.238 6
  24095057.639    -4543425.345 6  -3864349.709 2
 94  3 15  0 32  0.0010000  0  8  2  4 26  7  9 27 13 12
  22076082.756   -10081648.936 7   2889340.240 6
  22958457.700    -5655958.696 6  -4559960.069 5
  23575669.424    12489003.458 6   3614787.251 4
  21276523.259    10867919.806 8   2901761.212 9
  23160249.203    -7163488.983 7  -4700665.058 5
  24500650.722    19018336.022 5   7489856.318 2
  21385180.578     1779404.958 8  -3382945.567 6
  24082932.922    -4607131.488 6  -3913990.799 2
 94  3 15  0 32 30.0010000  0  8  2  4 26  7  9 27 13 12
  22087965.240   -10019189.863 7   2938009.627 6
  22946110.508    -5720830.555 6  -4610509.527 5
  23591396.296    12571676.834 6   3679208.035 4
  21289835.993    10937877.920 8   2956274.036 9
  23149008.305    -7222554.725 7  -4746690.274 5
  24527083.903    19157244.618 5   7598096.665 2
  21380497.040     1754791.900 8  -3402124.538 6
  24070835.757    -4670687.277 6  -3963514.698 2
 94  3 15  0 33  0.0010000  0  8  2  4 26  7  9 27 13 12
  22099919.284    -9956368.310 7   2986961.497 6
  22933832.838    -5785368.444 6  -4660798.717 5
  23607204.412    12654750.937 6   3743941.067 3
  21303230.930    11008261.900 8   3011118.709 9
  23137834.980    -7281281.374 7  -4792451.250 5
  24553558.035    19296401.593 5   7706530.595 2
  21375934.049     1730822.523 8  -3420801.939 6
  24058766.592    -4734102.946 6  -4012929.454 2
 94  3 15  0 33 30.0010000  0  8  2  4 26  7  9 27 13 12
  22111940.092    -9893213.495 7   3036173.027 6
  22921609.970    -5849572.806 6  -4710828.036 5
  23623097.340    12738236.739 6   3808994.887 3
  21316705.102    11079067.995 8   3066292.290 9
  23126721.824    -7339665.091 7  -4837945.036 5
  24580084.631    19435815.317 5   7815164.546 2
  21371493.643     1707498.085 8  -3438976.799 6
  24046727.587    -4797375.956 6  -4062233.004 2
 94  3 15  0 34  0.0010000  0  8  2  4 26  7  9 27 13 12
  22124018.281    -9829746.182 7   3085628.079 6
  22909458.752    -5913419.774 6  -4760578.847 5
  23639057.151    12822144.179 6   3874377.285 3
  21330257.310    11150289.067 8   3121789.223 9
  23115678.579    -7397686.776 6  -4883156.677 5
  24606668.668    19575474.738 5   7923989.955 2
  21367179.959     1684823.309 8  -3456645.434 6
  24034716.312    -4860500.495 6  -4111420.924 2
 94  3 15  0 34 30.0010000  0  8  2  4 26  7  9 27 13 12
  22136152.171    -9765975.890 7   3135319.226 6
  22897382.422    -5976895.531 6  -4810040.401 5
  23655112.327    12906482.807 6   3940095.675 3
  21343887.614    11221924.945 8   3177609.404 9
  23104711.781    -7455352.650 7  -4928091.092 5
  24633286.581    19715360.148 5   8032991.473 2
  21362989.550     1662800.611 8  -3473805.926 6
  24022735.406    -4923473.160 6  -4160490.454 2
 94  3 15  0 35  0.0010000  0  8  2  4 26  7  9 27 13 12
  22148339.664    -9701937.555 7   3185219.226 6
  22885370.308    -6040005.774 6  -4859217.149 5
  23671241.191    12991240.394 6   4006140.530 3
  21357595.804    11293965.397 8   3233744.805 9
  23093803.323    -7512668.695 7  -4972752.913 5
  24659950.332    19855465.892 5   8142164.678 2
  21358920.977     1641422.833 8  -3490463.917 6
  24010778.634    -4986299.689 6  -4209446.140 2
 94  3 15  0 35 30.0010000  0  8  2  4 26  7  9 27 13 12
  22160573.384    -9637643.302 7   3235318.613 6
  22873433.681    -6102751.398 6  -4908109.768 5
  23687447.311    13076409.416 6   4072505.970 3
  21371380.771    11366404.193 8   3290190.620 9
  23082964.566    -7569623.770 7  -5017133.442 5
  24686656.623    19995783.092 5   8251502.638 2
  21354978.346     1620685.941 8  -3506622.510 6
  23998854.269    -5048983.132 6  -4258290.323 2
 94  3 15  0 36  0.0010000  0  8  2  4 26  7  9 27 13 12
  22172860.348    -9573069.504 7   3285635.868 6
  22861569.515    -6165118.710 6  -4956707.614 5
  23703733.687    13161971.659 6   4139177.827 3
  21385245.543    11439249.194 8   3346952.960 9
  23072196.021    -7626221.173 7  -5061235.264 5
  24713391.935    20136295.128 5   8360992.466 2
  21351148.438     1600589.236 8  -3522282.240 6
  23986951.669    -5111522.685 6  -4307022.397 2
 94  3 15  0 36 30.0010000  0  8  2  4 26  7  9 27 13 12
  22185207.151    -9508199.929 7   3336183.567 6
  22849770.613    -6227104.859 6  -5005008.430 5
  23720087.575    13247928.032 6   4206156.775 3
  21399182.114    11512503.706 8   3404034.388 9
  23061493.101    -7682457.016 7  -5105055.384 5
  24740177.312    20277026.661 5   8470653.265 2
  21347450.827     1581140.973 8  -3537436.695 6
  23975080.127    -5173909.049 6  -4355635.065 2
 94  3 15  0 37  0.0010000  0  8  2  4 26  7  9 27 13 12
  22197603.359    -9443030.101 7   3386965.265 6
  22838048.218    -6288689.051 6  -5052996.046 5
  23736511.765    13334266.477 6   4273433.444 3
  21413198.731    11586149.668 8   3461420.861 9
  23050862.160    -7738318.137 7  -5148583.489 5
  24766999.053    20417994.085 5   8580497.898 2
  21343873.914     1562345.891 8  -3552082.184 6
  23963240.124    -5236136.054 6  -4404123.603 2
 94  3 15  0 37 30.0010000  0  8  2  4 26  7  9 27 13 12
  22210068.939    -9377546.457 7   3437991.477 6
  22826408.896    -6349863.304 6  -5100664.233 5
  23753015.879    13420990.952 5   4341010.947 3
  21427287.627    11660195.636 8   3519119.012 9
  23040301.731    -7793799.401 7  -5191815.606 5
  24793858.959    20559199.323 4   8690527.852 2
  21340421.713     1544210.110 8  -3566213.933 6
  23951420.477    -5298196.082 6  -4452481.986 2
 94  3 15  0 38  0.0010000  0  8  2  4 26  7  9 27 13 12
  22222586.024    -9311758.959 7   3489254.478 6
  22814846.830    -6410644.209 6  -5148025.890 5
  23769598.779    13508105.643 5   4408892.517 3
  21441452.761    11734634.548 8   3577123.380 9
  23029814.511    -7848918.348 7  -5234765.404 6
  24820785.897    20700632.339 5   8800735.286 2
  21337094.617     1526731.609 8  -3579833.498 6
  23939646.098    -5360089.862 6  -4500710.820 2
 94  3 15  0 38 30.0010000  0  8  2  4 26  7  9 27 13 12
  22235164.356    -9245661.003 7   3540759.362 6
  22803352.518    -6471038.487 6  -5195086.303 5
  23786259.595    13595624.039 6   4477088.630 3
  21455691.764    11809453.869 8   3635424.132 9
  23019397.952    -7903666.302 7  -5277426.095 6
  24847740.028    20842302.151 5   8911127.229 2
  21333896.401     1509919.149 8  -3592934.098 6
  23927901.638    -5421807.351 6  -4548802.339 2
 94  3 15  0 39  0.0010000  0  8  2  4 26  7  9 27 13 12
  22247800.908    -9179252.531 7   3592506.206 6
  22791932.493    -6531059.736 7  -5241856.043 5
  23802983.577    13683536.224 6   4545591.588 3
  21469998.669    11884651.543 8   3694019.724 9
  23009048.097    -7958052.610 7  -5319805.015 5
  24874735.109    20984187.862 4   9021687.420 2
  21330821.370     1493759.907 8  -3605525.709 6
  23916189.976    -5483359.686 6  -4596765.177 2
 94  3 15  0 39 30.0010000  0  8  2  4 26  7  9 27 13 12
  22260496.039    -9112545.614 7   3644485.644 6
  22780577.824    -6590729.247 7  -5288351.669 5
  23819788.953    13771842.253 6   4614401.444 3
  21484384.900    11960237.872 8   3752918.174 9
  22998766.265    -8012085.979 7  -5361908.880 6
  24901783.794    21126280.589 4   9132408.895 2
  21327870.333     1478241.076 8  -3617618.240 6
  23904505.145    -5544758.412 6  -4644608.223 2
 94  3 15  0 40  0.0010000  0  8  2  4 26  7  9 27 13 12
  22273247.322    -9045531.731 7   3696704.249 6
  22769289.439    -6650034.999 6  -5334563.894 5
  23836660.523    13860541.001 5   4683517.327 3
  21498843.111    12036207.660 8   3812115.429 9
  22988551.167    -8065760.528 7  -5403733.179 6
  24928858.081    21268584.148 5   9243294.705 2
  21325038.553     1463367.131 8  -3629208.312 6
  23892853.292    -5605997.309 6  -4692326.768 2
 94  3 15  0 40 30.0010000  0  8  2  4 26  7  9 27 13 12
  22286060.451    -8978196.538 7   3749173.225 6
  22758082.267    -6708953.316 6  -5380474.208 5
  23853609.020    13949616.205 5   4752926.534 3
  21513372.252    12112568.464 8   3871617.346 9
  22978410.897    -8119058.946 7  -5445264.352 6
  24955975.448    21411097.181 4   9354343.682 2
  21322332.716     1449136.150 8  -3640297.334 7
  23881225.092    -5667076.685 6  -4739921.070 2
 94  3 15  0 41  0.0010000  0  8  2  4 26  7  9 27 13 12
  22298936.747    -8910544.951 7   3801888.739 6
  22746939.821    -6767470.106 6  -5426071.644 5
  23870639.030    14039073.520 5   4822633.520 3
  21527981.469    12189338.542 8   3931438.198 9
  22968342.487    -8171958.984 7  -5486485.124 6
  24983129.060    21553824.933 4   9465559.991 2
  21319743.199     1435552.835 8  -3650881.720 7
  23869642.460    -5727990.336 6  -4787386.185 3
 94  3 15  0 41 30.0010000  0  8  2  4 26  7  9 27 13 12
  22311865.777    -8842595.904 7   3854836.035 6
  22735880.957    -6825585.424 7  -5471356.254 5
  23887739.072    14128896.212 6   4892625.171 3
  21542664.614    12266504.182 8   3991567.260 9
  22958356.041    -8224451.881 7  -5527388.640 6
  25010336.065    21696762.950 5   9576940.110 2
  21317289.697     1422620.930 8  -3660958.494 7
  23858081.654    -5788732.921 6  -4834718.011 3
 94  3 15  0 42  0.0010000  0  8  2  4 26  7  9 27 13 12
  22324851.857    -8774351.066 7   3908013.824 6
  22724902.917    -6883298.868 7  -5516327.702 6
  23904883.034    14219073.599 5   4962893.217 3
  21557423.366    12344048.617 8   4051991.494 9
  22948449.099    -8276524.346 7  -5567964.520 6
  25037579.075    21839902.098 4   9688477.034 2
  21314947.929     1410341.906 8  -3670526.564 7
  23846552.235    -5849301.369 6  -4881914.128 3
 94  3 15  0 42 30.0010000  0  8  2  4 26  7  9 27 13 12
  22337890.520    -8705820.118 7   3961414.561 6
  22713993.529    -6940610.560 7  -5560986.105 6
  23922120.021    14309601.975 6   5033434.818 3
  21572250.712    12421978.245 8   4112715.897 9
  22938612.789    -8328165.642 7  -5608204.454 6
  25064857.250    21983247.931 5   9800174.999 2
  21312734.591     1398716.363 8  -3679585.374 7
  23835061.280    -5909693.035 6  -4928972.531 3
 94  3 15  0 43  0.0010000  0  8  2  4 26  7  9 27 13 12
  22350985.725    -8637021.873 7   4015023.574 6
  22703162.358    -6997536.401 7  -5605343.834 6
  23939414.328    14400479.011 6   5104248.055 3
  21587150.637    12500273.196 8   4173724.947 9
  22928871.183    -8379386.020 7  -5648116.377 6
  25092164.326    22126799.911 4   9912033.579 2
  21310648.845     1387745.112 8  -3688134.376 7
  23823605.371    -5969905.695 6  -4975891.442 3
 94  3 15  0 43 30.0020000  0  8  2  4 26  7  9 27 13 12
  22364131.894    -8567954.372 7   4068842.410 6
  22692402.657    -7054074.624 6  -5649399.513 6
  23956771.023    14491683.765 6   5175316.660 3
  21602113.878    12578904.595 8   4234996.185 9
  22919193.942    -8430218.626 7  -5687726.135 6
  25119518.139    22270537.295 4  10024036.643 2
  21308682.986     1377414.117 8  -3696184.461 7
  23812173.745    -6029953.092 6  -5022681.556 3
 94  3 15  0 44  0.0020000  0  8  2  4 26  7  9 27 13 12
  22377322.462    -8498615.658 7   4122872.556 6
  22681717.304    -7110220.145 6  -5693149.226 6
  23974179.071    14583212.861 5   5246637.991 3
  21617135.189    12657859.291 8   4296519.319 9
  22909597.016    -8480674.241 7  -5727042.158 6
  25146910.986    22414436.337 5  10136165.636 2
  21306833.716     1367712.603 8  -3703744.060 7
  23800781.002    -6089840.956 6  -5069347.366 3
 94  3 15  0 44 30.0020000  0  8  2  4 26  7  9 27 13 12
  22390569.481    -8428995.109 7   4177122.342 6
  22671104.441    -7165977.173 7  -5736596.207 6
  23991657.931    14675065.964 5   5318211.811 3
  21632225.362    12737138.494 8   4358295.319 9
  22900065.145    -8530769.474 7  -5766077.386 6
  25174318.822    22558494.413 5  10248418.597 2
  21305109.010     1358637.461 8  -3710815.577 7
  23789413.772    -6149572.288 6  -5115891.231 3
 94  3 15  0 45  0.0020000  0  8  2  4 26  7  9 27 13 12
  22403877.388    -8359074.876 7   4231605.638 6
  22660569.254    -7221346.271 7  -5779740.896 6
  24009207.302    14767250.821 5   5390044.130 3
  21647375.854    12816752.324 8   4420332.069 9
  22890597.759    -8580503.673 7  -5804831.271 6
  25201759.365    22702706.665 4  10360791.652 2
  21303501.733     1350192.219 8  -3717396.257 7
  23778079.038    -6209141.494 6  -5162308.738 3
 94  3 15  0 45 30.0020000  0  8  2  4 26  7  9 27 13 12
  22417239.768    -8288844.514 7   4286330.587 6
  22650109.376    -7276329.179 7  -5822584.667 6
  24026805.778    14859760.268 5   5462129.383 3
  21662591.820    12896710.095 8   4482636.826 9
  22881202.923    -8629873.270 7  -5843301.069 6
  25229236.153    22847066.795 4  10473279.996 2
  21302012.244     1342368.371 8  -3723492.743 7
  23766774.225    -6268555.413 6  -5208605.255 3
 94  3 15  0 46  0.0020000  0  7  2  4 26  7  9 13 12
  22430659.677    -8218327.027 7   4341279.256 6
  22639715.151    -7330960.907 7  -5865154.771 6
  24044470.569    14952587.356 5   5534462.145 3
  21677873.321    12977010.836 8   4545208.822 9
  22871883.784    -8678869.784 7  -5881480.129 6
  21300638.775     1335152.962 8  -3729115.104 7
  23755493.544    -6327824.891 6  -5254789.206 3
 94  3 15  0 46 30.0020000  0  7  2  4 26  7  9 13 12
  22444130.552    -8147524.725 7   4396449.837 6
  22629384.753    -7385247.079 7  -5907455.688 6
  24062201.105    15045725.735 5   5607037.461 3
  21693215.200    13057652.135 8   4608046.162 9
  22862632.039    -8727480.024 7  -5919358.253 6
  21299382.554     1328543.302 8  -3734265.489 7
  23744242.723    -6386950.509 6  -5300861.118 3
 94  3 15  0 47  0.0020000  0  7  2  4 26  7  9 13 12
  22457657.787    -8076450.980 7   4451832.014 6
  22619119.889    -7439177.619 7  -5949479.372 6
  24079972.292    15139157.423 5   5679841.346 3
  21708623.483    13138621.102 8   4671138.894 9
  22853448.797    -8775706.109 7  -5956936.959 6
  21298236.897     1322531.014 8  -3738950.346 7
  23733019.363    -6445938.819 6  -5346825.952 3
 94  3 15  0 47 30.0020000  0  7  2  4 26  7  9 13 12
  22471236.017    -8005107.638 7   4507424.211 6
  22608927.815    -7492730.507 7  -5991208.830 6
  24097808.025    15232882.901 5   5752874.183 3
  21724092.444    13219905.659 8   4734477.506 9
  22844356.091    -8823534.236 7  -5994205.607 6
  21297205.611     1317121.174 8  -3743165.777 7
  23721816.958    -6504782.541 6  -5392678.151 3
 94  3 15  0 48  0.0020000  0  7  2  4 26  7  9 13 12
  22484858.496    -7933507.110 7   4563216.783 6
  22598812.308    -7545883.338 7  -6032626.626 6
  24115707.853    15326901.664 5   5826135.509 3
  21739617.406    13301493.975 8   4798052.763 9
  22835328.951    -8870958.773 7  -6031159.810 6
  21296295.471     1312318.028 8  -3746908.504 7
  23710652.867    -6563475.744 6  -5438413.105 3
 94  3 15  0 48 30.0020000  0  7  2  4 26  7  9 13 12
  22498536.917    -7861647.620 7   4619211.144 5
  22588779.633    -7598618.014 7  -6073718.566 5
  24133649.022    15421192.714 5   5899608.973 2
  21755198.669    13383377.853 8   4861858.344 9
  22826373.670    -8918008.601 7  -6067822.030 5
  21295494.666     1308117.387 8  -3750181.748 6
  23699512.069    -6622019.997 6  -5484032.003 2
 94  3 15  0 49  0.0020000  0  7  2  4 26  7  9 13 12
  22512250.054    -7789554.786 7   4675387.363 5
  22578822.836    -7650937.836 7  -6114487.213 5
  24151632.043    15515730.850 5   5973274.975 2
  21770834.915    13465539.605 8   4925880.484 8
  22817485.034    -8964719.239 7  -6104219.904 5
  21294809.820     1304509.873 8  -3752992.793 6
  23688399.272    -6680422.819 6  -5529540.642 2
 94  3 15  0 49 30.0020000  0  7  2  4 26  7  9 13 12
  22526015.834    -7717232.366 7   4731742.489 4
  22568943.536    -7702857.568 7  -6154944.072 5
  24169673.193    15610533.005 5   6047146.779 2
  21786521.495    13547975.213 8   4990116.026 7
  22808658.514    -9011095.185 7  -6140356.980 5
  21294235.717     1301497.124 8  -3755340.354 6
  23677313.307    -6738680.355 6  -5574936.062 2
 94  3 15  0 50  0.0020000  0  7  2  4 26  7  9 13 12
  22539819.418    -7644677.780 7   4788278.579 4
  22559137.174    -7754390.935 7  -6195099.851 4
  24187768.996    15705601.000 5   6121225.785 2
  21802261.768    13630689.766 8   5054568.957 7
  22799895.461    -9057150.122 7  -6176243.856 4
  21293774.307     1299081.900 8  -3757222.252 6
  23666251.115    -6796787.629 6  -5620214.354 2
 94  3 15  0 50 30.0020000  0  7  2  4 26  7  9 13 12
  22553673.097    -7571892.573 7   4844994.174 4
  22549398.236    -7805559.980 7  -6234971.943 4
  24205911.896    15800926.669 5   6195505.320 2
  21818053.666    13713683.756 8   5119239.472 7
  22791192.126    -9102888.345 7  -6211884.158 4
  21293428.586     1297255.373 8  -3758645.675 5
  23655226.278    -6854751.321 6  -5665380.973 2
 94  3 15  0 51  0.0020000  0  7  2  4 26  7  9 13 12
  22567566.709    -7498873.652 7   4901892.021 4
  22539734.097    -7856358.171 7  -6274554.884 4
  24224107.230    15896527.964 5   6269999.852 2
  21833902.794    13796962.391 8   5184131.894 7
  22782557.534    -9148274.416 7  -6247249.875 4
  21293192.649     1296022.744 8  -3759606.141 5
  23644219.757    -6912563.780 6  -5710429.553 2
 94  3 15  0 51 30.0020000  0  7  2  4 26  7  9 13 12
  22581509.336    -7425602.954 7   4958986.139 4
  22530138.370    -7906777.193 7  -6313842.306 5
  24242343.695    15992406.121 5   6344710.132 2
  21849809.302    13880549.383 8   5249264.686 7
  22773993.093    -9193276.104 7  -6282316.012 4
  21293071.383     1295387.142 8  -3760101.311 5
  23633251.520    -6970219.685 6  -5755356.131 2
 94  3 15  0 52  0.0020000  0  7  2  4 26  7  9 13 12
  22595502.359    -7352068.091 7   5016286.062 4
  22520617.561    -7956801.571 7  -6352822.280 4
  24260641.887    16088522.831 5   6419606.206 2
  21865773.070    13964448.651 8   5314640.753 6
  22765504.499    -9237879.872 7  -6317072.134 4
  21293064.728     1295343.233 8  -3760135.473 5
  23622311.104    -7027721.769 6  -5800162.853 2
 94  3 15  0 52 30.0020000  0  7  2  4 26  7  9 13 12
  22609543.739    -7278266.540 7   5073793.759 3
  22511175.328    -8006425.226 7  -6391490.010 4
  24278956.808    16184851.866 5   6494667.778 2
  21881794.639    14048643.932 8   5380247.488 6
  22757092.113    -9282081.908 7  -6351515.248 4
  21293167.017     1295881.032 8  -3759716.368 5
  23611392.963    -7085077.798 6  -5844855.781 2
 94  3 15  0 53  0.0020000  0  8  2  4 24 26  7  9 13 12
  22623641.749    -7204199.200 7   5131508.599 3
  22501808.132    -8055658.934 7  -6429853.839 4
  24394333.584     -248061.53715   -179516.130
  24297332.677    16281371.368 5   6569877.831 2
  21897871.669    14133118.645 8   5446071.970 6
  22748752.606    -9325897.822 7  -6385657.433 4
  21293379.240     1296992.806 8  -3758850.016 5
  23600504.741    -7142293.243 6  -5889439.168 2
 94  3 15  0 53 30.0020000  0  8  2  4 24 26  7  9 13 12
  22637785.567    -7129868.214 7   5189428.792 3
  22492508.630    -8104516.167 7  -6467924.410 4
  24379708.149     -324905.934 5   -239394.791 1
  24315727.222    16378067.629 5   6645225.544 2
  21913994.897    14217853.340 8   5512098.963 6
  22740490.446    -9369334.146 7  -6419503.904 4
  21293699.958     1298676.867 8  -3757537.777 5
  23589646.438    -7199367.280 6  -5933912.448 2
 94  3 15  0 54  0.0020000  0  8  2  4 24 26  7  9 13 12
  22651980.860    -7055282.136 7   5247547.789 3
  22483284.016    -8152997.791 7  -6505702.274 4
  24365095.875     -401676.948 5   -299216.343 1
  24334169.885    16474954.909 5   6720721.997 2
  21930162.524    14302816.489 8   5578303.964 6
  22732294.600    -9412392.636 7  -6453055.950 4
  21294127.342     1300936.340 8  -3755777.149 5
  23578815.446    -7256294.303 6  -5978271.114 2
 94  3 15  0 54 30.0020000  0  9  5  2  4 24 26  7  9 13 12
  25447888.254     -178416.69115   -126722.214
  22666216.655    -6980471.724 7   5305841.614 3
  22474128.505    -8201110.169 7  -6543192.395 4
  24350511.182     -478352.888 5   -358963.622 1
  24352646.843    16572056.972 5   6796385.942 2
  21946374.431    14388001.120 8   5644681.622 6
  22724172.563    -9455071.584 7  -6486312.231 4
  21294667.059     1303768.908 8  -3753569.934 5
  23568002.981    -7313074.001 6  -6022515.016 2
 94  3 15  0 55  0.0020000  0  9  5  2  4 24 26  7  9 13 12
  25438474.980     -227884.165 5   -165269.590
  22680489.294    -6905459.263 7   5364292.874 3
  22465045.363    -8248850.502 7  -6580392.582 4
  24335940.189     -554903.745 5   -418613.521 2
  24371163.285    16669384.057 5   6872225.217 2
  21962626.420    14473402.698 8   5711228.321 6
  22716127.842    -9497359.339 7  -6519263.679 4
  21295316.079     1307175.933 8  -3750915.070 5
  23557232.547    -7369702.599 6  -6066641.134 2
 94  3 15  0 55 30.0020000  0  9  5  2  4 24 26  7  9 13 12
  25429057.240     -277362.935 5   -203825.134
  22694799.617    -6830259.295 7   5422890.299 3
  22456032.372    -8296195.891 7  -6617284.999 4
  24321397.287     -631323.272 5   -478161.027 2
  24389739.715    16766940.973 5   6948243.644 2
  21978915.913    14559005.727 8   5777932.015 6
  22708159.238    -9539254.098 7  -6551908.861 4
  21296072.306     1311150.867 8  -3747817.677 5
  23546483.549    -7426184.048 6  -6110652.581 2
 94  3 15  0 56  0.0020000  0  9  5  2  4 24 26  7  9 13 12
  25419632.664     -326854.688 5   -242390.150
  22709139.800    -6754884.200 7   5481624.041 3
  22447101.225    -8343149.679 7  -6653872.412 5
  24306871.083     -707638.321 5   -537627.275 2
  24408346.333    16864714.742 5   7024430.832 2
  21995241.231    14644810.106 8   5844792.482 6
  22700254.851    -9580778.827 7  -6584265.842 4
  21296934.569     1315677.181 8  -3744290.746 5
  23535753.857    -7482532.376 6  -6154560.427 2
 94  3 15  0 56 30.0020000  0  9  5  2  4 24 26  7  9 13 12
  25410221.310     -376350.181 5   -280957.870
  22723523.662    -6679317.918 7   5540506.873 3
  22438241.099    -8389712.931 7  -6690155.373 4
  24292375.578     -783849.684 5   -597012.586 2
  24426983.171    16962691.802 5   7100776.639 2
  22011611.578    14730829.263 8   5911820.422 6
  22692419.625    -9621938.547 7  -6616338.291 4
  21297899.961     1320751.170 8  -3740336.924 5
  23525056.902    -7538748.340 6  -6198365.002 2
 94  3 15  0 57  0.0020000  0  9  5  2  4 24 26  7  9 13 12
  25400805.428     -425834.183 5   -319516.597 1
  22737948.266    -6603521.501 7   5599569.008 3
  22429451.604    -8435870.757 7  -6726122.466 4
  24277887.059     -859961.289 5   -656320.240 2
  24445664.678    17060863.801 5   7177274.284 2
  22028023.297    14817076.350 8   5979025.945 6
  22684658.927    -9662736.398 7  -6648128.782 4
  21298971.389     1326381.703 8  -3735949.469 5
  23514391.096    -7594820.605 7  -6242057.643 2
 94  3 15  0 57 30.0020000  0  9  5  2  4 24 26  7  9 13 12
  25391390.476     -475311.685 5   -358070.534 1
  22752421.676    -6527455.916 7   5658840.867 3
  22420752.616    -8481605.106 7  -6761759.610 5
  24263419.464     -935966.438 5   -715544.919 2
  24464386.658    17159243.751 5   7253933.945 2
  22044484.541    14903583.316 8   6046433.932 6
  22676963.735    -9703165.826 7  -6679632.231 4
  21300148.524     1332581.495 8  -3731118.487 5
  23503749.753    -7650733.938 6  -6285626.464 2
 94  3 15  0 58  0.0020000  0  9  5  2  4 24 26  7  9 13 12
  25381972.736     -524796.245 5   -396629.727 1
  22766948.929    -6451105.109 7   5718334.989 3
  22412131.484    -8526922.632 7  -6797071.879 5
  24248985.177    -1011852.503 5   -774676.760 2
  24483146.920    17257824.592 5   7330750.145 2
  22060999.148    14990362.175 8   6114053.830 6
  22669340.042    -9743214.988 7  -6710839.342 4
  21301440.570     1339357.253 8  -3725838.638 5
  23493142.586    -7706478.538 6  -6329063.743 2
 94  3 15  0 58 30.0020000  0  9  5  2  4 24 26  7  9 13 12
  25372541.385     -574300.319 5   -435204.237 1
  22781535.781    -6374474.527 7   5778047.099 3
  22403586.680    -8571817.879 7  -6832055.181 5
  24234570.136    -1087592.924 5   -833695.195 2
  24501929.937    17356587.394 5   7407708.130 2
  22077559.803    15077401.821 8   6181876.921 6
  22661797.294    -9782877.379 7  -6741745.101 4
  21302838.622     1346705.555 8  -3720112.684 5
  23482565.728    -7762055.363 6  -6372370.367 2
 94  3 15  0 59  0.0020000  0  9  5  2  4 24 26  7  9 13 12
  25363128.022     -623838.882 5   -473805.628 1
  22796167.302    -6297577.304 7   5837967.065 3
  22395125.937    -8616278.504 7  -6866699.742 5
  24220183.906    -1163177.734 5   -892592.302 2
  24520769.734    17455527.394 5   7484804.253 2
  22094174.211    15164705.001 8   6249905.397 6
  22654319.871    -9822154.204 7  -6772350.378 5
  21304343.400     1354629.758 8  -3713937.942 6
  23472025.715    -7817457.925 6  -6415541.123 2
 94  3 15  0 59 30.0020000  0  9  5  2  4 24 26  7  9 13 12
  25353696.251     -673411.718 5   -512433.647 1
  22810847.719    -6220429.327 7   5898082.293 3
  22386748.297    -8660307.639 7  -6901008.170 5
  24205838.717    -1238586.020 5   -951351.932 2
  24539639.751    17554655.276 5   7562046.675 2
  22110836.376    15252260.352 8   6318130.284 6
  22646923.091    -9861030.246 7  -6802643.434 5
  21305962.549     1363135.296 8  -3707310.259 6
  23461516.430    -7872678.363 6  -6458570.040 2
 94  3 15  1  0  0.0020000  0  9  5  2  4 24 26  7  9 13 12
  25344255.967     -723005.645 4   -551078.116 1
  22825573.614    -6143054.133 7   5958374.655 3
  22378444.855    -8703923.557 7  -6934994.548 5
  24191516.701    -1313833.284 5  -1009986.043 2
  24558524.068    17653952.196 5   7639420.867 2
  22127541.862    15340044.269 8   6386533.334 6
  22639599.461    -9899512.593 7  -6832629.661 5
  21307693.551     1372213.184 8  -3700236.572 6
  23451042.491    -7927722.708 6  -6501461.675 2
 94  3 15  1  0 30.0020000  0  9  5  2  4 24 26  7  9 13 12
  25334819.699     -772617.349 5   -589736.524 1
  22840337.643    -6065463.275 7   6018835.069 3
  22370222.867    -8747125.056 7  -6968658.004 5
  24177229.402    -1388931.880 6  -1068504.357 2
  24577456.081    17753424.525 5   7716931.751 2
  22144289.947    15428061.887 8   6455118.495 6
  22632349.131    -9937611.785 7  -6862317.328 5
  21309529.120     1381860.600 8  -3692719.087 5
  23440597.632    -7982590.700 7  -6544215.900 2
 94  3 15  1  1  0.0020000  0  9  5  2  4 24 26  7  9 13 12
  25325359.269     -822237.150 5   -628401.211 1
  22855144.872    -5987639.748 7   6079476.696 3
  22362085.630    -8789909.275 7  -7001996.299 4
  24162963.299    -1463893.980 6  -1126916.278 2
  24596428.567    17853102.131 5   7794602.659 2
  22161085.820    15516328.004 8   6523897.291 6
  22625175.247    -9975301.457 7  -6891685.882 5
  21311473.034     1392089.571 8  -3684748.413 6
  23430192.345    -8037267.414 7  -6586821.032 2
 94  3 15  1  1 30.0020000  0  9  5  2  4 24 26  7  9 13 12
  25315935.533     -871857.455 5   -667066.252 1
  22870000.878    -5909573.192 6   6140307.913 3
  22354020.284    -8832283.833 7  -7035015.308 5
  24148717.191    -1538736.834 6  -1185235.123 2
  24615423.807    17952979.986 5   7872429.577 2
  22177929.299    15604835.530 8   6592864.290 6
  22618089.592   -10012558.670 7  -6920717.384 5
  21313529.970     1402895.836 8  -3676327.842 6
  23419823.963    -8091754.333 7  -6629278.259 3
 94  3 15  1  2  0.0020000  0  9  5  2  4 24 26  7  9 13 12
  25306486.884     -921505.525 4   -705752.958 1
  22884902.272    -5831272.913 6   6201321.104 3
  22346033.723    -8874251.800 7  -7067717.585 6
  24134492.159    -1613482.262 6  -1243478.245 2
  24634472.949    18053028.766 5   7950389.604 2
  22194815.589    15693583.594 8   6662018.612 7
  22611077.327   -10049402.609 7  -6949426.934 6
  21315695.731     1414260.453 8  -3667472.297 6
  23409491.706    -8146067.258 7  -6671600.013 3
 94  3 15  1  2 30.0020000  0  9  5  2  4 24 26  7  9 13 12
  25297013.022     -971208.066 4   -744482.078 1
  22899849.414    -5752745.409 7   6262511.361 4
  22338125.797    -8915810.712 7  -7100101.115 6
  24120290.420    -1688135.560 6  -1301649.537 2
  24653539.840    18153235.755 5   8028472.958 2
  22211751.165    15782567.806 8   6731356.946 7
  22604145.586   -10085821.498 7  -6977805.277 6
  21317957.935     1426172.289 8  -3658190.335 7
  23399184.152    -8200214.533 7  -6713792.640 4
 94  3 15  1  3  0.0020000  0  9  5  2  4 24 26  7  9 13 12
  25287551.722    -1020976.176 4   -783262.342 2
  22914835.290    -5673993.399 7   6323876.553 4
  22330290.272    -8956965.539 7  -7132169.758 6
  24106102.353    -1762698.771 6  -1359750.627 2
  24672634.910    18253578.968 5   8106662.456 2
  22228723.825    15871763.649 8   6800860.189 7
  22597297.427   -10121811.821 7  -7005849.673 6
  21320327.884     1438621.596 8  -3648489.572 7
  23388913.142    -8254202.674 7  -6755861.289 4
 94  3 15  1  3 30.0020000  0  9  5  2  4 24 26  7  9 13 12
  25278070.156    -1070790.816 4   -822078.867 2
  22929860.708    -5595010.229 6   6385421.862 4
  22322541.926    -8997694.088 7  -7163906.283 6
  24091936.589    -1837140.917 6  -1417757.419 2
  24691752.855    18354056.576 5   8184956.654 2
  22245737.406    15961166.843 8   6870524.995 8
  22590529.342   -10157377.286 7  -7033563.020 6
  21322802.611     1451617.592 8  -3638362.828 7
  23378675.859    -8308019.464 7  -6797796.419 4
 94  3 15  1  4  0.0020000  0  9  5  2  4 24 26  7  9 13 12
  25268584.963    -1120644.896 5   -860926.100 2
  22944930.165    -5515806.082 6   6447139.391 4
  22314875.363    -9037987.616 7  -7195303.771 7
  24077801.285    -1911438.774 6  -1475651.742 3
  24710892.205    18454679.760 5   8263364.319 2
  22262787.803    16050766.350 8   6940342.804 8
  22583838.784   -10192532.033 7  -7060956.297 7
  21325380.766     1465160.924 8  -3627809.555 8
  23368467.147    -8361661.228 7  -6839595.150 4
 94  3 15  1  4 30.0020000  0  9  5  2  4 24 26  7  9 13 12
  25259092.874    -1170530.810 5   -899798.198 2
  22960045.881    -5436376.007 6   6509032.938 4
  22307290.614    -9077852.822 7  -7226367.537 7
  24063687.326    -1985596.789 6  -1533437.137 3
  24730083.300    18555450.500 5   8341886.908 2
  22279868.598    16140530.541 8   7010288.899 8
  22577226.561   -10227276.163 7  -7088029.635 7
  21328059.262     1479247.979 8  -3616832.631 8
  23358292.491    -8415128.468 7  -6881257.907 4
 94  3 15  1  5  0.0020000  0  9  5  2  4 24 26  7  9 13 12
  25249592.151    -1220447.836 5   -938694.465 2
  22975203.478    -5356732.583 6   6571092.712 4
  22299781.712    -9117301.465 7  -7257106.718 7
  24049597.530    -2059610.996 6  -1591110.464 3
  24749280.450    18656358.021 5   8420516.114 2
  22296975.805    16230437.000 8   7080345.853 8
  22570687.908   -10261644.886 7  -7114810.458 7
  21330842.655     1493865.491 8  -3605442.337 8
  23348148.623    -8468431.067 7  -6922792.367 4
 94  3 15  1  5 30.0020000  0  9  5  2  4 24 26  7  9 13 12
  25240083.664    -1270393.840 5   -977613.388 2
  22990397.739    -5276872.416 6   6633321.368 4
  22292356.603    -9156329.330 7  -7287518.026 7
  24035544.159    -2133472.629 6  -1648664.902 3
  24768512.586    18757412.115 5   8499259.470 2
  22314113.591    16320489.042 8   7150516.254 7
  22564221.145   -10295641.170 7  -7141301.064 6
  21333723.121     1509016.725 8  -3593636.175 7
  23338038.242    -8521562.798 7  -6964193.700 4
 94  3 15  1  6  0.0020000  0  9  5  2  4 24 26  7  9 13 12
  25230585.129    -1320355.802 5  -1016544.722 2
  23005641.975    -5196775.670 6   6695734.368 3
  22285013.366    -9194912.703 7  -7317583.012 6
  24021521.397    -2207169.518 6  -1706091.041 2
  24787768.555    18858623.492 5   8578125.401 2
  22331283.904    16410721.785 8   7220827.429 7
  22557823.214   -10329248.570 7  -7167488.675 6
  21336711.782     1524720.616 8  -3581399.421 7
  23327959.340    -8574501.595 7  -7005444.723 4
 94  3 15  1  6 30.0020000  0  9  5  2  4 24 26  7  9 13 12
  25221069.177    -1370343.701 5  -1055496.208 1
  23020931.331    -5116438.668 6   6758334.643 3
  22277755.241    -9233058.208 7  -7347306.696 6
  24007531.432    -2280695.627 6  -1763383.969 2
  24807043.801    18959971.367 4   8657097.762 2
  22348491.241    16501142.260 7   7291284.958 6
  22551502.420   -10362472.941 7  -7193377.735 6
  21339804.141     1540972.915 8  -3568735.250 6
  23317927.295    -8627248.319 7  -7046546.004 4
 94  3 15  1  7  0.0020000  0  9  5  2  4 24 26  7  9 13 12
  25211536.886    -1420373.123 5  -1094480.174 1
  23036258.130    -5035887.342 6   6821101.852 3
  22270575.212    -9270789.144 7  -7376707.438 6
  23993569.108    -2354054.055 6  -1820546.369 2
  24826368.813    19061425.931 5   8736153.156 2
  22365731.256    16591743.951 7   7361883.656 6
  22545248.989   -10395324.194 7  -7218976.133 6
  21342999.269     1557752.560 8  -3555660.225 6
  23307921.662    -8679820.635 7  -7087511.464 4
 94  3 15  1  7 30.0020000  0  9  5  2  4 24 26  7  9 13 12
  25202026.120    -1470426.785 5  -1133482.864 1
  23051634.066    -4955092.434 6   6884058.984 3
  22263478.495    -9308087.824 7  -7405771.242 6
  23979643.178    -2427240.770 6  -1877574.815 2
  24845696.162    19163003.859 5   8815304.812 2
  22383012.253    16682542.531 7   7432635.849 6
  22539079.860   -10427759.902 7  -7244250.618 6
  21346297.286     1575080.904 8  -3542157.535 6
  23297955.241    -8732194.019 7  -7128321.796 4
 94  3 15  1  8  0.0020000  0  9  5  2  4 24 26  7  9 13 12
  25192495.418    -1520482.911 5  -1172487.471 1
  23067060.366    -4874032.166 6   6947222.828 3
  22256462.991    -9344940.903 7  -7434487.871 6
  23965747.168    -2500242.379 6  -1934459.071 2
  24865052.023    19264704.451 5   8894552.022 2
  22400330.544    16773559.998 7   7503558.558 6
  22532986.728   -10459753.414 7  -7269180.580 6
  21349700.290     1592971.174 8  -3528217.047 6
  23288031.811    -8784351.969 7  -7168964.303 3
 94  3 15  1  8 30.0020000  0  9  5  2  4 24 26  7  9 13 12
  25182966.065    -1570523.445 5  -1211480.093 1
  23082537.692    -4792687.827 6   7010607.942 3
  22249537.396    -9381341.372 7  -7462851.905 6
  23951901.913    -2573046.751 6  -1991189.742 2
  24884428.629    19366538.802 5   8973903.334 2
  22417694.493    16864799.047 7   7574653.854 6
  22526994.506   -10491264.309 7  -7293734.572 5
  21353213.918     1611436.512 8  -3513828.522 6
  23278150.981    -8836278.107 7  -7209426.260 3
 94  3 15  1  9  0.0020000  0  9  5  2  4 24 26  7  9 13 12
  25173453.021    -1620537.765 5  -1250452.185 1
  23098071.288    -4711063.589 6   7074211.215 2
  22242701.708    -9417257.637 7  -7490838.608 5
  23938074.436    -2645666.593 6  -2047776.585 2
  24903833.895    19468521.858 5   9053370.528 2
  22435098.195    16956268.397 7   7645928.631 5
  22521094.771   -10522265.120 7  -7317891.048 5
  21356842.336     1630487.125 8  -3498983.907 6
  23268313.382    -8887958.570 7  -7249696.780 3
 94  3 15  1  9 30.0020000  0  9  5  2  4 24 26  7  9 13 12
  25163932.242    -1670560.536 5  -1289430.935 1
  23113650.363    -4629186.761 6   7138011.365 2
  22235962.883    -9452677.861 7  -7518438.686 5
  23924284.582    -2718118.757 6  -2104232.695 2
  24923260.266    19570631.670 4   9132936.651 2
  22452547.435    17047956.970 7   7717374.311 5
  22515285.512   -10552783.815 7  -7341671.785 5
  21360571.034     1650106.159 8  -3483696.268 6
  23258523.869    -8939406.866 7  -7289786.266 3
 94  3 15  1 10  0.0020000  0  9  5  2  4 24 26  7  9 13 12
  25154411.253    -1720626.079 5  -1328443.022 1
  23129273.597    -4547101.720 6   7201973.659 2
  22229315.555    -9487615.352 7  -7545662.734 5
  23910532.083    -2790397.382 6  -2160553.660 2
  24942699.109    19672836.731 4   9212576.891 1
  22470031.511    17139841.089 7   7788972.283 5
  22509562.864   -10582861.093 7  -7365108.682 5
  21364410.267     1670265.056 8  -3467988.100 5
  23248771.261    -8990648.195 7  -7329714.611 3
 94  3 15  1 10 30.0030000  0  9  5  2  4 24 26  7  9 13 12
  25144876.474    -1770731.218 5  -1367485.939 1
  23144934.305    -4464807.848 6   7266098.746 2
  22222764.670    -9522046.690 7  -7572492.305 5
  23896822.454    -2862483.530 6  -2216724.612 2
  24962173.177    19775161.948 4   9292310.660 1
  22487554.980    17231919.033 7   7860721.323 4
  22503924.008   -10612498.098 7  -7388202.393 4
  21368348.400     1690971.795 8  -3451852.964 5
  23239064.610    -9041673.621 7  -7369474.672 2
 94  3 15  1 11  0.0030000  0  9  5  2  4 24 26  7  9 13 12
  25135341.215    -1820854.473 5  -1406542.842 1
  23160633.387    -4382299.052 6   7330391.354 2
  22216308.490    -9555944.284 7  -7598905.936 5
  23883146.642    -2934340.553 6  -2272716.969 2
  24981683.251    19877628.315 4   9372154.620 1
  22505114.813    17324195.972 7   7932625.470 4
  22498363.067   -10641707.006 7  -7410962.515 4
  21372395.688     1712239.458 8  -3435280.695 5
  23229399.092    -9092461.504 7  -7409049.571 2
 94  3 15  1 11 30.0030000  0  9  5  2  4 24 26  7  9 13 12
  25125792.945    -1870992.761 5  -1445611.672 1
  23176379.896    -4299546.630 6   7394873.717 2
  22209957.446    -9589332.841 7  -7624922.997 4
  23869513.310    -3005954.562 6  -2328520.056 2
  25001210.472    19980235.427 4   9452108.158 1
  22522708.973    17416669.023 7   8004682.333 4
  22492888.347   -10670499.259 7  -7433398.076 4
  21376547.994     1734063.688 8  -3418274.839 5
  23219779.831    -9143015.368 7  -7448442.205 2
 94  3 15  1 12  0.0030000  0  9  5  2  4 24 26  7  9 13 12
  25116251.211    -1921130.596 5  -1484680.033 1
  23192176.920    -4216536.492 6   7459556.922 2
  22203692.234    -9622248.979 7  -7650571.908 4
  23855930.973    -3077350.140 6  -2384152.924 2
  25020752.294    20082977.867 4   9532167.072 1
  22540341.236    17509331.225 7   8076886.658 4
  22487488.306   -10698868.841 7  -7455504.225 4
  21380806.156     1756431.921 8  -3400845.050 5
  23210205.389    -9193344.088 7  -7487659.368 2
 94  3 15  1 12 30.0030000  0  9  5  2  4 24 26  7  9 13 12
  25106716.072    -1971254.777 5  -1523737.698 1
  23208026.917    -4133247.973 6   7524457.157 2
  22197518.817    -9654696.124 7  -7675855.263 6
  23842380.563    -3148556.640 6  -2439638.325 2
  25040341.512    20185853.277 4   9612329.812 1
  22558015.771    17602186.799 7   8149241.738 5
  22482176.043   -10726790.803 7  -7477261.473 5
  21385167.117     1779348.336 8  -3382987.975 6
  23200671.060    -9243440.015 7  -7526695.022 3
 94  3 15  1 13  0.0030000  0  9  5  2  4 24 26  7  9 13 12
  25097183.661    -2021344.475 5  -1562768.545 2
  23223927.520    -4049668.860 6   7589583.720 3
  22191435.309    -9686665.144 7  -7700766.161 6
  23828868.618    -3219562.635 6  -2494967.609 3
  25059930.641    20288855.576 4   9692591.316 2
  22575724.061    17695266.766 7   8221771.573 6
  22476953.029   -10754229.240 7  -7498642.060 6
  21389635.943     1802828.222 8  -3364691.972 7
  23191182.269    -9293284.015 7  -7565534.480 4
 94  3 15  1 13 30.0030000  0  9  5  2  4 24 26  7  9 13 12
  25087663.632    -2071386.012 5  -1601761.930 2
  23239892.937    -3965786.450 6   7654946.617 3
  22185445.995    -9718145.023 7  -7725295.891 7
  23815391.897    -3290362.570 6  -2550136.303 3
  25079562.310    20391978.780 4   9772946.989 2
  22593484.786    17788592.556 7   8294492.961 6
  22471831.795   -10781139.425 7  -7519611.009 7
  21394213.654     1826883.831 8  -3345947.324 7
  23181749.149    -9342860.513 7  -7604165.474 5
 94  3 15  1 14  0.0030000  0  9  5  2  4 24 26  7  9 13 12
  25078151.097    -2121381.541 5  -1640719.380 2
  23255911.208    -3881612.329 6   7720536.822 4
  22179552.585    -9749120.413 7  -7749432.547 7
  23801964.343    -3360952.992 6  -2605141.760 3
  25099201.774    20495218.462 4   9853393.431 2
  22611289.460    17882166.650 7   8367407.834 6
  22466817.526   -10807507.686 7  -7540157.712 7
  21398900.310     1851525.880 8  -3326745.729 7
  23172368.283    -9392155.094 7  -7642576.810 5
 94  3 15  1 14 30.0030000  0  9  5  2  4 24 26  7  9 13 12
  25068638.982    -2171341.042 5  -1679648.812 2
  23271977.115    -3797168.713 6   7786337.038 4
  22173752.890    -9779580.862 7  -7773167.912 7
  23788575.192    -3431314.458 6  -2659968.811 4
  25118860.395    20598562.201 4   9933920.971 2
  22629142.401    17975965.421 7   8440497.782 7
  22461894.904   -10833358.587 7  -7560301.240 7
  21403702.415     1876750.013 8  -3307090.531 8
  23163042.819    -9441168.372 7  -7680768.918 5
 94  3 15  1 15  0.0030000  0  9  5  2  4 24 26  7  9 13 12
  25059141.797    -2221275.933 5  -1718559.068 2
  23288100.464    -3712466.249 6   7852338.951 4
  22168055.275    -9809537.030 7  -7796510.361 7
  23775233.288    -3501432.688 6  -2714606.308 4
  25138547.016    20701999.156 4  10014521.144 2
  22647032.606    18069979.056 7   8513755.142 7
  22457066.476   -10858726.045 7  -7580068.086 7
  21408609.628     1902540.989 8  -3286993.667 8
  23153764.183    -9489911.949 7  -7718750.911 5
 94  3 15  1 15 30.0030000  0  9  5  2  4 24 26  7  9 13 12
  25049639.875    -2271203.357 5  -1757463.497 2
  23304267.671    -3627490.112 6   7918554.087 4
  22162446.607    -9839008.014 7  -7819474.728 8
  23761928.199    -3571314.371 6  -2769059.510 4
  25158251.685    20805528.453 4  10095193.256 2
  22664955.938    18164179.135 7   8587157.792 7
  22452327.297   -10883632.914 7  -7599476.012 8
  21413622.668     1928887.587 8  -3266463.843 8
  23144545.654    -9538393.297 7  -7756528.537 5
 94  3 15  1 16  0.0030000  0  9  5  2  4 24 26  7  9 13 12
  25040142.390    -2321135.346 5  -1796371.461 2
  23320490.940    -3542237.566 6   7984984.655 4
  22156932.974    -9867986.206 7  -7842055.109 8
  23748686.426    -3640948.526 6  -2823319.834 4
  25177976.260    20909150.189 4  10175937.443 2
  22682913.146    18258548.418 7   8660692.295 7
  22447675.777   -10908091.441 7  -7618534.594 8
  21418742.883     1955786.987 8  -3245503.271 8
  23135365.080    -9586611.469 7  -7794101.114 6
 94  3 15  1 16 30.0030000  0  9  5  2  4 24 26  7  9 13 12
  25030635.881    -2371076.128 5  -1835286.289 2
  23336768.651    -3456706.587 6   8051632.143 4
  22151510.988    -9896460.293 7  -7864242.679 8
  23735478.170    -3710324.937 6  -2877379.274 4
  25197699.006    21012868.389 4  10256756.754 2
  22700902.372    18353072.924 7   8734347.750 7
  22443103.912   -10932095.694 7  -7637239.202 8
  21423965.237     1983227.043 8  -3224121.399 8
  23126239.188    -9634574.921 7  -7831475.178 6
 94  3 15  1 17  0.0030000  0  9  5  2  4 24 26  7  9 13 12
  25021124.096    -2421038.433 5  -1874217.897 2
  23353097.357    -3370893.609 6   8118499.405 4
  22146193.329    -9924420.600 7  -7886029.897 8
  23722325.676    -3779445.413 6  -2931239.353 4
  25217467.950    21116696.756 4  10337661.911 2
  22718920.888    18447765.869 7   8808134.450 7
  22438628.521   -10955610.644 7  -7655562.531 8
  21429289.761     2011211.812 8  -3202315.079 8
  23117159.643    -9682275.786 7  -7868644.663 6
 94  3 15  1 17 30.0030000  0  9  5  2  4 24 26  7  9 13 12
  25011614.470    -2471033.342 5  -1913174.914 2
  23369476.968    -3284819.718 6   8185569.918 4
  22140969.806    -9951866.312 7  -7907416.150 8
  23709215.692    -3848324.294 6  -2984911.176 4
  25237247.087    21220629.804 4  10418648.652 2
  22736969.204    18542611.949 7   8882040.458 7
  22434252.540   -10978612.497 7  -7673486.047 8
  21434719.003     2039734.876 8  -3180089.310 8
  23108133.702    -9729716.788 7  -7905611.630 6
 94  3 15  1 18  0.0030000  0  9  5  2  4 24 26  7  9 13 12
  25002083.138    -2521050.173 5  -1952149.023 2
  23385902.776    -3198509.253 6   8252824.819 4
  22135846.652    -9978774.511 7  -7928383.550 8
  23696161.978    -3916957.880 6  -3038391.782 4
  25257034.709    21324673.898 4  10499721.927 2
  22755049.177    18637618.554 7   8956071.586 7
  22429973.992   -11001094.488 7  -7691004.466 8
  21440244.687     2068797.285 8  -3157443.268 8
  23099153.899    -9776892.802 7  -7942372.140 6
 94  3 15  1 18 30.0030000  0  9  5  2  4 24 26  7  9 13 12
  24992576.210    -2571056.463 5  -1991114.856 2
  23402371.935    -3111951.553 6   8320272.363 4
  22130833.313   -10005137.276 7  -7948925.929 8
  23683143.311    -3985340.575 6  -3091676.951 4
  25276864.511    21428838.796 4  10580889.294 2
  22773163.297    18732808.240 7   9030245.339 7
  22425795.875   -11023049.935 7  -7708112.600 8
  21445882.195     2098409.850 8  -3134368.532 8
  23090229.976    -9823789.335 7  -7978914.881 6
 94  3 15  1 19  0.0030000  0  9  5  2  4 24 26  7  9 13 12
  24983076.116    -2621025.666 5  -2030051.829 2
  23418892.028    -3025140.723 6   8387917.145 4
  22125919.475   -10030957.365 7  -7969045.443 8
  23670177.107    -4053481.280 6  -3144773.546 4
  25296702.947    21533103.527 4  10662134.509 2
  22791315.581    18828205.026 7   9104580.502 7
  22421719.477   -11044480.741 7  -7724811.906 8
  21451624.210     2128585.928 8  -3110854.698 8
  23081362.625    -9870389.253 7  -8015226.459 6
 94  3 15  1 19 30.0030000  0  9  5  2  4 24 26  7  9 13 12
  24973576.233    -2670933.404 5  -2068940.942 2
  23435461.108    -2938054.027 6   8455776.870 4
  22121112.632   -10056220.983 7  -7988731.372 8
  23657256.472    -4121367.650 6  -3197671.955 4
  25316569.893    21637453.992 4  10743446.480 2
  22809509.625    18923810.310 7   9179078.114 7
  22417739.882   -11065395.105 8  -7741108.808 8
  21457474.839     2159331.291 8  -3086897.275 8
  23072552.744    -9916682.657 7  -8051299.235 6
 94  3 15  1 20  0.0030000  0  9  5  2  4 24 26  7  9 13 12
  24964080.637    -2720783.621 5  -2107785.241 2
  23452091.015    -2850674.688 6   8523864.647 4
  22116413.386   -10080919.365 7  -8007976.827 8
  23644391.059    -4188987.748 6  -3250362.878 4
  25336440.887    21741879.973 5  10824817.322 2
  22827738.326    19019624.212 7   9253738.278 7
  22413853.882   -11085811.912 8  -7757018.005 8
  21463432.585     2190644.476 8  -3062497.383 8
  23063804.950    -9962667.349 7  -8087131.427 6
 94  3 15  1 20 30.0030000  0  9  5  2  4 24 26  7  9 13 12
  24954610.972    -2770590.146 5  -2146595.413 2
  23468773.266    -2762999.163 6   8592183.211 4
  22111819.456   -10105057.233 7  -8026785.537 8
  23631577.060    -4256342.596 6  -3302847.138 5
  25356324.712    21846362.121 4  10906231.918 2
  22846018.051    19115658.335 7   9328570.033 7
  22410062.077   -11105729.300 7  -7772538.049 8
  21469500.624     2222523.400 8  -3037656.657 8
  23055115.166   -10008341.295 7  -8122721.502 6
 94  3 15  1 21  0.0030000  0  9  5  2  4 24 26  7  9 13 12
  24945132.194    -2820383.143 5  -2185395.112 2
  23485512.088    -2675033.260 6   8660728.058 4
  22107334.621   -10128636.558 7  -8045159.007 8
  23618808.449    -4323420.361 6  -3355115.478 5
  25376217.320    21950909.920 4  10987697.694 2
  22864329.764    19211902.008 7   9403565.105 7
  22406371.542   -11125130.205 8  -7787655.620 8
  21475675.569     2254966.643 8  -3012376.202 9
  23046482.072   -10053701.761 7  -8158067.285 6
 94  3 15  1 21 30.0030000  0  9  5  2  4 24 26  7  9 13 12
  24935661.391    -2870177.720 5  -2224195.964 2
  23502308.231    -2586782.408 6   8729494.942 4
  22102950.366   -10151658.351 7  -8063098.033 8
  23606102.645    -4390209.846 6  -3407159.160 5
  25396129.985    22055561.920 4  11069244.626 2
  22882682.758    19308337.488 7   9478709.628 7
  22402778.949   -11144012.068 8  -7802368.750 8
  21481954.183     2287964.661 8  -2986663.459 9
  23037908.428   -10098754.545 7  -8193173.328 6
 94  3 15  1 22  0.0030000  0  9  5  2  4 24 26  7  9 13 12
  24926177.516    -2919975.090 5  -2262999.144 2
  23519157.106    -2498253.353 6   8798478.589 4
  22098673.826   -10174138.526 7  -8080615.026 9
  23593442.769    -4456701.613 6  -3458970.897 5
  25416064.385    22160334.550 4  11150885.577 2
  22901069.719    19404969.812 7   9554007.511 7
  22399283.938   -11162367.674 8  -7816671.826 8
  21488338.533     2321520.768 8  -2960515.840 9
  23029395.851   -10143492.468 7  -8228034.035 6
 94  3 15  1 22 30.0030000  0  9  5  2  4 24 26  7  9 13 12
  24916705.694    -2969764.276 5  -2301795.822 2
  23536050.112    -2409443.380 6   8867681.147 4
  22094496.039   -10196093.623 7  -8097722.882 9
  23580847.229    -4522902.045 6  -3510555.595 5
  25436024.597    22265226.130 4  11232619.230 2
  22919496.163    19501793.863 7   9629454.830 7
  22395895.774   -11180185.108 8  -7830555.514 8
  21494830.299     2355633.669 8  -2933934.357 9
  23020940.145   -10187912.489 7  -8262647.013 6
 94  3 15  1 23  0.0030000  0  9  5  2  4 24 26  7  9 13 12
  24907232.732    -3019530.755 5  -2340574.852 2
  23553010.270    -2320340.394 6   8937112.031 4
  22090414.125   -10217534.323 7  -8114429.884 9
  23568308.440    -4588818.857 6  -3561919.308 5
  25456004.805    22370232.139 4  11314442.014 2
  22937952.496    19598779.768 7   9705028.235 7
  22392603.004   -11197474.716 8  -7844027.930 8
  21501427.531     2390294.465 8  -2906925.938 9
  23012550.783   -10232019.630 7  -8297016.207 6
 94  3 15  1 23 30.0030000  0  9  5  2  4 24 26  7  9 13 12
  24897782.134    -3069251.320 6  -2379318.085 2
  23570021.484    -2230930.888 6   9006781.746 4
  22086432.731   -10238453.813 7  -8130730.758 9
  23555812.041    -4654456.638 6  -3613065.567 5
  25476000.512    22475328.336 4  11396335.107 2
  22956442.556    19695937.270 7   9780735.373 7
  22389410.933   -11214245.345 8  -7857095.942 8
  21508124.805     2425502.147 8  -2879491.370 8
  23004210.976   -10275810.850 7  -8331139.202 6
 94  3 15  1 24  0.0030000  0  9  5  2  4 24 26  7  9 13 12
  24888314.149    -3118930.377 5  -2418029.022 2
  23587094.454    -2141225.188 6   9076682.262 4
  22082549.909   -10258859.188 7  -8146631.022 9
  23543376.799    -4719815.948 6  -3663994.856 5
  25496007.611    22580462.272 4  11478257.615 2
  22974961.335    19793266.398 7   9856576.242 7
  22386318.094   -11230506.218 8  -7869766.737 8
  21514928.625     2461250.715 8  -2851635.336 8
  22995939.492   -10319288.016 7  -8365017.488 6
 94  3 15  1 24 30.0030000  0  9  5  2  4 24 26  7  9 13 12
  24878882.528    -3168546.469 5  -2456690.842 2
  23604220.218    -2051225.361 6   9146811.996 4
  22078768.567   -10278717.860 7  -8162105.294 9
  23530993.512    -4784891.787 6  -3714703.255 5
  25516026.402    22685634.599 4  11560209.999 2
  22993513.542    19890761.402 7   9932546.361 7
  22383324.307   -11246247.320 8  -7882032.547 8
  21521835.813     2497543.705 8  -2823355.090 8
  22987728.687   -10362443.563 7  -8398645.181 6
 94  3 15  1 25  0.0030000  0  9  5  2  4 24 26  7  9 13 12
  24869446.171    -3218099.941 5  -2495303.891 2
  23621400.695    -1960949.697 6   9217156.631 4
  22075099.976   -10298014.258 7  -8177141.428 9
  23518671.143    -4849668.598 6  -3765178.643 5
  25536059.734    22790852.946 4  11642198.265 2
  23012100.674    19988422.946 7  10008646.251 7
  22380424.624   -11261473.443 8  -7893897.055 8
  21528846.849     2534379.263 8  -2794652.053 9
  22979579.728   -10405274.977 7  -8432020.295 6
 94  3 15  1 25 30.0030000  0  9  5  2  4 24 26  7  9 13 12
  24860028.730    -3267595.177 5  -2533871.561 2
  23638628.658    -1870404.387 6   9287711.397 4
  22071539.911   -10316733.169 7  -8191727.550 9
  23506403.605    -4914116.021 6  -3815397.348 5
  25556074.538    22896123.106 4  11724226.960 2
  23030715.088    20086256.086 7  10084879.875 7
  22377633.227   -11276159.656 8  -7905340.839 8
  21535959.036     2571761.309 8  -2765523.172 9
  22971490.638   -10447774.299 7  -8465136.618 6
 94  3 15  1 26  0.0030000  0  9  5  2  4 24 26  7  9 13 12
  24850625.860    -3317014.288 5  -2572379.914 2
  23655914.601    -1779570.275 6   9358491.204 4
  22068087.651   -10334856.785 7  -8205849.841 9
  23494203.761    -4978219.958 6  -3865348.442 5
  25576127.955    23001481.718 4  11806324.465 2
  23049369.164    20184266.518 7  10161251.614 6
  22374947.026   -11290277.569 8  -7916341.811 8
  21543178.248     2609704.166 8  -2735957.307 8
  22963471.370   -10489923.417 7  -8497980.072 6
 94  3 15  1 26 30.0030000  0  9  5  2  4 24 26  7  9 13 12
  24841229.764    -3366382.605 5  -2610848.703 2
  23673253.488    -1688447.073 6   9429496.279 4
  22064750.001   -10352393.449 7  -8219514.729 9
  23482066.963    -5042001.475 6  -3915048.238 5
  25596195.942    23106932.313 4  11888493.735 2
  23068048.572    20282439.308 7  10237749.904 6
  22372365.514   -11303838.010 7  -7926908.369 8
  21550502.448     2648187.130 8  -2705970.590 8
  22955514.098   -10531738.420 7  -8530563.163 6
 94  3 15  1 27  0.0030000  0  9  5  2  4 24 26  7  9 13 12
  24831850.997    -3415711.084 5  -2649286.402 2
  23690653.652    -1597003.393 6   9500751.055 3
  22061524.774   -10369346.894 7  -8232725.173 9
  23469996.420    -5105448.052 6  -3964487.114 5
  25616276.431    23212468.036 4  11970729.272 2
  23086766.204    20380800.671 7  10314395.087 6
  22369892.706   -11316829.852 7  -7937031.894 8
  21557929.686     2687218.816 8  -2675556.259 8
  22947620.383   -10573206.625 7  -8562876.017 6
 94  3 15  1 27 30.0030000  0  9  5  2  4 24 26  7  9 13 12
  24822463.266    -3464997.745 5  -2687691.557 2
  23708120.130    -1505219.168 6   9572271.256 3
  22058410.800   -10385715.723 7  -8245480.079 9
  23457982.986    -5168552.753 6  -4013659.524 5
  25636369.781    23318079.675 4  12053023.976 2
  23105520.021    20479365.728 7  10391199.047 6
  22367531.060   -11329232.410 7  -7946696.209 8
  21565463.260     2726806.194 8  -2644708.968 8
  22939799.187   -10614316.932 7  -8594910.000 6
 94  3 15  1 28  0.0030000  0  9  5  2  4 24 26  7  9 13 12
  24813093.613    -3514239.529 5  -2726061.729 2
  23725654.541    -1413095.633 6   9644055.796 4
  22055408.229   -10401488.763 7  -8257770.736 9
  23446040.844    -5231322.900 6  -4062571.291 5
  25656485.705    23423773.203 4  12135382.533 2
  23124322.974    20578158.793 7  10468180.633 6
  22365283.666   -11341058.095 7  -7955911.026 8
  21573102.362     2766960.342 8  -2613420.010 8
  22932046.555   -10655054.120 7  -8626653.247 6
 94  3 15  1 28 30.0030000  0  9  5  2  4 24 26  7  9 13 12
  24803732.743    -3563448.936 5  -2764406.674 2
  23743241.956    -1320657.069 5   9716085.817 4
  22052520.867   -10416664.773 7  -8269596.180 9
  23434161.807    -5293751.404 6  -4111216.812 5
  25676603.727    23529519.842 4  12217782.454 2
  23143165.320    20677174.898 7  10545336.031 6
  22363138.861   -11352322.420 7  -7964688.402 8
  21580852.926     2807675.771 8  -2581693.702 8
  22924366.022   -10695419.096 7  -8658106.452 6
 94  3 15  1 29  0.0030000  0  9  5  2  4 24 26  7  9 13 12
  24794382.246    -3612609.232 6  -2802713.357 2
  23760893.046    -1227915.401 6   9788352.053 3
  22049745.659   -10431245.341 7  -8280957.622 9
  23422347.796    -5355837.785 6  -4159595.766 5
  25696737.819    23635306.255 4  12300213.357 2
  23162043.581    20776404.899 7  10622658.118 6
  22361103.150   -11363023.448 7  -7973026.867 9
  21588705.570     2848953.137 8  -2549529.510 8
  22916758.188   -10735407.262 7  -8689266.045 6
 94  3 15  1 29 30.0030000  0  9  5  2  4 24 26  7  9 13 12
  24785036.396    -3661699.884 5  -2840965.765 3
  23778596.120    -1134892.362 6   9860837.534 3
  22047085.930   -10445218.453 7  -8291845.745 9
  23410598.060    -5417587.404 6  -4207712.310 5
  25716882.373    23741151.035 4  12382689.739 2
  23180968.549    20875844.986 7  10700143.877 6
  22359172.487   -11373157.044 7  -7980923.170 9
  21596667.788     2890793.728 8  -2516926.456 8
  22909217.359   -10775012.961 7  -8720127.595 6
 94  3 15  1 30  0.0030000  0  9  5  2  4 24 26  7  9 13 12
  24775714.800    -3710688.655 5  -2879138.802 3
  23796351.659    -1041574.286 6   9933552.904 3
  22044550.136   -10458546.595 7  -8302231.284 9
  23398910.831    -5478993.049 6  -4255560.834 5
  25737047.133    23847084.660 4  12465235.362 2
  23199935.579    20975510.685 7  10777805.463 6
  22357358.893   -11382705.034 7  -7988363.157 9
  21604741.139     2933216.093 8  -2483870.049 9
  22901760.681   -10814213.482 7  -8750673.441 6
 94  3 15  1 30 30.0030000  0  8  5  2  4 24  7  9 13 12
  24766413.679    -3759568.680 5  -2917227.092 3
  23814163.048     -947951.997 6  10006505.335 3
  22042134.198   -10471241.787 7  -8312123.622 9
  23387296.841    -5540047.963 6  -4303136.048 5
  23218941.701    21075381.802 7  10855627.090 6
  22355653.463   -11391652.708 7  -7995335.370 9
  21612921.906     2976207.003 8  -2450370.646 9
  22894379.341   -10853017.237 8  -8780910.112 6
 94  3 15  1 31  0.0030000  0  8  5  2  4 24  7  9 13 12
  24757130.125    -3808356.362 6  -2955243.408 3
  23832037.933     -854034.472 6  10079687.814 3
  22039830.323   -10483328.730 7  -8321541.990 9
  23375741.191    -5600760.479 6  -4350444.437 5
  23237979.182    21175437.905 7  10933592.906 6
  22354064.593   -11400007.455 7  -8001845.544 9
  21621207.270     3019743.404 8  -2416446.152 9
  22887065.574   -10891443.492 7  -8810852.625 6
 94  3 15  1 31 30.0030000  0  9  5  2  4 24 26  7  9 13 12
  24747855.146    -3857084.414 5  -2993213.267 3
  23849965.882     -759828.305 6  10153095.186 3
  22037651.911   -10494808.607 7  -8330487.330 9
  23364252.964    -5661128.332 6  -4397484.285 5
  25797604.610   -15975772.31914     89616.903
  23257053.117    21275664.992 7  11011691.918 6
  22352584.428   -11407768.911 7  -8007893.408 9
  21629592.375     3063814.317 8  -2382105.173 9
  22879821.149   -10929498.627 7  -8840505.969 7
 94  3 15  1 32  0.0030000  0  9  5  2  4 24 26  7  9 13 12
  24738587.542    -3905771.180 5  -3031150.976 3
  23867952.530     -665324.183 6  10226734.760 3
  22035579.566   -10505694.696 7  -8338969.983 9
  23352832.401    -5721134.866 6  -4444242.599 5
  25817809.482   -15869573.420 4    172369.775 1
  23276153.344    21376041.052 7  11089907.010 6
  22351221.631   -11414945.964 7  -8013485.920 9
  21638078.330     3108408.439 8  -2347356.506 9
  22872649.184   -10967189.835 7  -8869875.725 7
 94  3 15  1 32 30.0030000  0  9  5  2  4 24 26  7  9 13 12
  24729329.981    -3954436.804 6  -3069072.187 3
  23885988.794     -570526.402 5  10300603.141 3
  22033619.942   -10516007.219 7  -8347005.686 9
  23341485.226    -5780768.704 6  -4490710.487 5
  25838026.826   -15763340.823 4    255148.342 1
  23295278.184    21476546.113 7  11168222.638 6
  22349963.582   -11421551.761 7  -8018633.319 9
  21646663.487     3153513.729 8  -2312209.534 9
  22865546.082   -11004524.557 7  -8898967.704 7
 94  3 15  1 33  0.0030000  0  9  5  2  4 24 26  7  9 13 12
  24720073.349    -4003091.942 5  -3106985.188 3
  23904084.866     -475432.548 5  10374702.267 3
  22031763.657   -10525746.535 7  -8354594.747 9
  23330206.644    -5840039.907 6  -4536895.779 5
  25858249.716   -15657071.655 4    337955.479 1
  23314430.246    21577182.032 7  11246640.232 6
  22348815.017   -11427595.145 7  -8023342.415 9
  21655342.688     3199130.865 8  -2276663.691 9
  22858511.212   -11041497.814 8  -8927777.997 7
 94  3 15  1 33 30.0030000  0  9  5  2  4 24 26  7  9 13 12
  24710816.118    -4051728.368 5  -3144883.686 3
  23922237.420     -380043.154 6  10449031.637 3
  22030017.786   -10534916.906 7  -8361740.464 9
  23318992.727    -5898967.384 6  -4582813.253 5
  25878476.623   -15550776.646 4    420782.624 1
  23333606.410    21677952.054 7  11325162.316 6
  22347767.842   -11433085.512 7  -8027620.612 9
  21664121.571     3245257.739 8  -2240720.675 9
  22851543.316   -11078107.306 7  -8956304.856 7
 94  3 15  1 34  0.0030000  0  9  5  2  4 24 26  7  9 13 12
  24701575.405    -4100304.746 5  -3182735.338 3
  23940445.464     -284332.739 6  10523611.168 3
  22028384.097   -10543502.184 7  -8368430.277 9
  23307849.412    -5957536.697 6  -4628451.639 5
  25898711.775   -15444450.497 4    503634.127 2
  23352811.025    21778882.174 7  11403809.150 6
  22346832.969   -11438016.265 7  -8031462.758 9
  21672998.096     3291908.573 8  -2204369.363 9
  22844647.909   -11114334.306 7  -8984533.681 7
 94  3 15  1 34 30.0030000  0  8  5  2  4 24  7  9 13 12
  24692339.939    -4148826.342 5  -3220544.324 3
  23958729.327     -188303.861 6  10598438.873 3
  22026857.494   -10551506.518 7  -8374667.386 9
  23296765.155    -6015766.516 6  -4673825.495 5
  23372047.898    21879972.559 7  11482580.888 6
  22345997.658   -11442394.526 7  -8034874.362 9
  21681973.462     3339077.666 8  -2167614.221 9
  22837829.490   -11150180.385 7  -9012465.664 7
 94  3 15  1 35  0.0030000  0  8  5  2  4 24  7  9 13 12
  24683115.115    -4197302.475 5  -3258317.867 3
  23977056.479      -91973.688 5  10673501.339 3
  22025446.701   -10558939.786 7  -8380459.526 9
  23285745.654    -6073673.049 6  -4718947.424 5
  23391315.379    21981225.300 7  11561479.121 6
  22345272.610   -11446222.079 7  -8037856.873 9
  21691046.411     3386753.483 8  -2130464.218 8
  22831075.345   -11185652.296 7  -9040106.092 7
 94  3 15  1 35 30.0030000  0  8  5  2  4 24  7  9 13 12
  24673904.651    -4245727.999 6  -3296052.003 3
  23995433.037        4636.423 5  10748781.912 3
  22024148.000   -10565779.944 7  -8385789.498 9
  23274791.177    -6131242.692 6  -4763806.854 5
  23410612.210    22082639.764 7  11640503.386 6
  22344647.932   -11449491.416 7  -8040404.391 9
  21700213.255     3434934.037 8  -2092920.937 8
  22824397.948   -11220747.816 7  -9067453.223 7
 94  3 15  1 36  0.0030000  0  8  5  2  4 24  7  9 13 12
  24664683.545    -4294103.489 5  -3333747.146 3
  24013872.462      101523.778 5  10824278.552 3
  22022960.042   -10572003.363 7  -8390638.898 9
  23263907.512    -6188454.800 6  -4808387.660 5
  23429941.659    22184209.389 7  11719648.548 6
  22344134.328   -11452193.064 7  -8042509.565 9
  21709480.529     3483622.226 8  -2054982.076 9
  22817793.370   -11255459.655 7  -9094501.387 7
 94  3 15  1 36 30.0040000  0  8  5  2  4 24  7  9 13 12
  24655500.302    -4342423.781 6  -3371399.288 3
  24032367.288      198689.004 5  10899991.707 3
  22021895.749   -10577609.075 7  -8395006.952 9
  23253090.910    -6245289.975 6  -4852674.780 5
  23449301.986    22285938.989 7  11798918.350 6
  22343734.884   -11454299.196 7  -8044150.717 9
  21718842.748     3532828.886 8  -2016639.226 9
  22811264.070   -11289775.087 7  -9121240.678 7
 94  3 15  1 37  0.0040000  0  8  5  2  4 24  7  9 13 12
  24646318.559    -4390675.351 6  -3408997.837 3
  24050905.734      296112.115 5  10975905.795 3
  22020945.796   -10582593.722 7  -8398891.085 9
  23242346.109    -6301748.232 6  -4896668.190 5
  23468688.965    22387821.597 7  11878307.408 6
  22343446.664   -11455799.567 7  -8045319.808 9
  21728304.678     3582544.663 8  -1977899.650 9
  22804811.428   -11323693.514 7  -9147670.601 7
 94  3 15  1 37 30.0040000  0  8  5  2  4 24  7  9 13 12
  24637143.620    -4438852.197 6  -3446538.161 3
  24069489.689      393806.105 5  11052030.987 3
  22020119.389   -10586948.676 7  -8402284.518 9
  23231668.820    -6357824.548 6  -4940363.962 5
  23488104.634    22489845.523 7  11957806.577 6
  22343274.013   -11456698.696 7  -8046020.420 9
  21737860.083     3632769.928 8  -1938763.069 9
  22798431.424   -11357212.973 7  -9173789.627 7
 94  3 15  1 38  0.0040000  0  8  5  2  4 24  7  9 13 12
  24627999.591    -4486948.379 6  -3484015.700 3
  24088144.305      491791.063 5  11128382.875 3
  22019405.403   -10590693.012 7  -8405202.176 9
  23221082.099    -6413521.058 6  -4983763.797 5
  23507541.378    22592002.087 7  12037409.092 6
  22343220.650   -11456998.747 8  -8046254.231 9
  21747518.526     3683504.997 8  -1899229.253 9
  22792127.988   -11390328.565 7  -9199593.969 7
 94  3 15  1 38 30.0040000  0  8  5  2  4 24  7  9 13 12
  24618855.591    -4534955.678 6  -3521423.942 3
  24106843.380      590081.651 5  11204972.939 3
  22018806.148   -10593828.320 7  -8407645.239 9
  23210554.048    -6468831.987 6  -5026863.171 6
  23527011.309    22694310.894 7  12117130.233 5
  22343278.960   -11456688.293 8  -8046012.305 9
  21757268.886     3734760.966 8  -1859289.512 9
  22785907.265   -11423024.619 7  -9225071.376 7
 94  3 15  1 39  0.0040000  0  8  5  2  4 24  7  9 13 12
  24609740.551    -4582889.569 6  -3558774.937 3
  24125608.379      688680.301 5  11281803.037 3
  22018328.788   -10596345.866 7  -8409606.934 9
  23200100.135    -6523770.352 6  -5069672.260 5
  23546506.063    22796768.043 7  12196966.970 5
  22343449.182   -11455792.646 8  -8045314.398 9
  21767120.876     3786531.349 8  -1818948.948 8
  22779765.896   -11455303.275 8  -9250223.551 7
 94  3 15  1 39 30.0040000  0  8  5  2  4 24  7  9 13 12
  24600637.203    -4630749.779 6  -3596068.566 3
  24144435.075      787602.927 5  11358885.606 3
  22017968.078   -10598231.963 7  -8411076.581 9
  23189716.943    -6578307.970 6  -5112169.038 5
  23566036.163    22899386.231 7  12276929.205 5
  22343730.387   -11454305.407 8  -8044155.479 9
  21777073.566     3838828.811 8  -1778197.666 8
  22773706.071   -11487147.098 8  -9275036.896 7
 94  3 15  1 40  0.0040000  0  8  5  2  4 24  7  9 13 12
  24591540.631    -4678524.430 6  -3633295.546 3
  24163324.938      886863.630 5  11436231.583 2
  22017733.880   -10599484.025 7  -8412052.197 8
  23179419.252    -6632427.626 6  -5154340.161 5
  23585600.349    23002192.522 7  12357037.999 5
  22344133.248   -11452206.049 8  -8042519.624 9
  21787128.005     3891665.505 8  -1737026.212 8
  22767728.869   -11518539.619 8  -9299498.569 7
 94  3 15  1 40 30.0040000  0  8  5  2  4 24  7  9 13 12
  24582461.686    -4726216.139 6  -3670457.902 3
  24182277.008      986463.810 5  11513842.070 2
  22017613.453   -10600096.534 7  -8412529.465 8
  23169202.235    -6686122.361 6  -5196180.190 5
  23605200.420    23105193.549 7  12437298.536 5
  22344651.410   -11449485.811 8  -8040399.973 9
  21797284.404     3945039.287 8  -1695436.255 8
  22761841.635   -11549478.347 8  -9323606.666 7
 94  3 15  1 41  0.0040000  0  8  5  2  4 24  7  9 13 12
  24573402.587    -4773824.521 6  -3707555.277 3
  24201292.424     1086399.931 5  11591714.382 2
  22017617.261   -10600075.466 7  -8412512.999 8
  23159062.265    -6739390.181 6  -5237687.519 5
  23624837.395    23208382.082 7  12517705.189 5
  22345287.030   -11446139.851 8  -8037792.696 8
  21807540.634     3998939.472 8  -1653436.093 8
  22756039.062   -11579969.543 8  -9347365.995 7
 94  3 15  1 41 30.0040000  0  8  5  2  4 24  7  9 13 12
  24564373.108    -4821318.122 6  -3744563.278 3
  24220374.454     1186680.910 5  11669855.318 2
  22017741.255   -10599417.024 7  -8411999.974 7
  23149016.309    -6792207.595 6  -5278843.980 5
  23644513.344    23311771.177 7  12598268.051 5
  22346050.331   -11442139.181 8  -8034675.337 8
  21817898.643     4053377.408 8  -1611016.964 7
  22750328.735   -11609997.118 8  -9370764.155 6
 94  3 15  1 42  0.0040000  0  8  5  2  4 24  7  9 13 12
  24555353.313    -4868688.168 6  -3781474.967 2
  24239520.339     1287295.675 5  11748256.416 2
  22017991.612   -10598127.944 7  -8410995.448 7
  23139044.193    -6844586.253 6  -5319658.479 4
  23664220.531    23415344.434 7  12678974.507 4
  22346932.171   -11437491.317 8  -8031053.602 7
  21828362.449     4108341.945 8  -1568187.449 7
  22744700.102   -11639567.661 8  -9393806.113 6
 94  3 15  1 42 30.0040000  0  8  5  2  4 24  7  9 13 12
  24546358.969    -4915950.872 6  -3818302.990 2
  24258728.252     1388221.411 5  11826899.919 2
  22018358.887   -10596198.315 7  -8409491.804 7
  23129159.916    -6896539.826 6  -5360141.706 4
  23683963.243    23519078.992 7  12759806.663 4
  22347936.925   -11432214.851 8  -8026942.021 7
  21838917.572     4163817.808 8  -1524959.462 7
  22739156.190   -11668692.036 8  -9416500.387 6
 94  3 15  1 43  0.0040000  0  8  5  2  4 24  7  9 13 12
  24537394.875    -4963111.176 6  -3855051.212 2
  24277989.887     1489442.597 5  11905773.545 2
  22018847.099   -10593625.265 7  -8407486.797 7
  23119353.285    -6948078.567 6  -5400301.691 4
  23703729.759    23622974.240 7  12840763.978 4
  22349055.841   -11426329.972 8  -8022356.382 7
  21849570.067     4219796.816 8  -1481339.445 6
  22733700.087   -11697373.832 8  -9438849.818 6
 94  3 15  1 43 30.0040000  0  8  5  2  4 24  7  9 13 12
  24528430.571    -5010181.815 6  -3891729.582 2
  24297302.308     1590950.921 5  11984870.961 2
  22019459.455   -10590406.461 7  -8404978.581 7
  23109621.302    -6999212.530 7  -5440146.280 4
  23723529.642    23727017.091 7  12921836.358 4
  22350287.928   -11419850.966 8  -8017307.773 7
  21860315.498     4276267.833 9  -1437336.029 6
  22728322.710   -11725619.667 8  -9460859.509 6
 94  3 15  1 44  0.0040000  0  8  5  2  4 24  7  9 13 12
  24519480.147    -5057181.724 6  -3928352.893 2
  24316673.457     1692746.637 5  12064192.250 2
  22020193.407   -10586537.031 7  -8401963.452 7
  23099967.985    -7049949.431 7  -5479681.529 4
  23743351.830    23831193.724 7  13003012.923 4
  22351631.597   -11412784.575 8  -8011801.502 7
  21871153.625     4333224.452 9  -1392954.257 6
  22723032.512   -11753431.060 8  -9482530.739 6
 94  3 15  1 44 30.0040000  0  8  5  2  4 24  7  9 13 12
  24510545.343    -5104125.434 6  -3964932.322 2
  24336099.499     1794828.242 5  12143736.380 2
  22021051.983   -10582029.583 7  -8398451.102 7
  23090387.667    -7100292.412 7  -5518909.754 4
  23763203.786    23935500.905 6  13084291.284 3
  22353089.068   -11405129.250 8  -8005836.274 7
  21882081.720     4390657.377 9  -1348201.290 6
  22717821.969   -11780813.043 8  -9503867.305 6
 94  3 15  1 45  0.0040000  0  8  5  2  4 24  7  9 13 12
  24501632.213    -5151003.615 6  -4001460.845 2
  24355579.053     1897200.981 5  12223507.188 2
  22022027.897   -10576906.147 7  -8394458.932 7
  23080881.458    -7150240.964 7  -5557830.816 4
  23783078.198    24039932.084 6  13165666.106 3
  22354659.471   -11396880.934 8  -7999409.151 6
  21893101.731     4448557.873 8  -1303084.163 6
  22712691.741   -11807769.508 8  -9524872.468 5
 94  3 15  1 45 30.0040000  0  8  5  2  4 24  7  9 13 12
  24492720.732    -5197812.872 6  -4037935.404 2
  24375124.083     1999868.690 5  12303508.103 2
  22023117.943   -10571169.730 7  -8389988.831 7
  23071452.866    -7199788.803 7  -5596439.335 4
  23802966.129    24144471.889 6  13247125.815 3
  22356346.134   -11388029.914 7  -7992512.100 6
  21904207.992     4506922.508 9  -1257605.071 6
  22707642.636   -11834299.564 8  -9545545.089 5
 94  3 15  1 46  0.0040000  0  8  5  2  4 24  7  9 13 12
  24483834.164    -5244549.154 6  -4074353.322 2
  24394710.303     2102831.842 5  12383739.068 2
  22024328.685   -10564811.717 7  -8385034.563 6
  23062100.420    -7248931.531 7  -5634732.375 4
  23822884.490    24249118.569 6  13328668.634 3
  22358140.272   -11378575.316 8  -7985144.926 6
  21915404.431     4565754.395 8  -1211762.082 6
  22702677.623   -11860395.164 8  -9565879.368 5
 94  3 15  1 46 30.0040000  0  8  5  2  4 24  7  9 13 12
  24474946.157    -5291208.527 6  -4110711.296 2
  24414353.065     2206100.500 5  12464208.121 1
  22025659.733   -10557822.652 7  -8379588.626 6
  23052829.248    -7297663.927 7  -5672705.725 4
  23842816.941    24353880.453 6  13410301.140 3
  22360054.207   -11368512.279 8  -7977303.694 6
  21926686.851     4625054.639 8  -1165554.201 6
  22697794.874   -11886050.872 8  -9585870.903 5
 94  3 15  1 47  0.0040000  0  8  5  2  4 24  7  9 13 12
  24466088.909    -5337784.041 6  -4147003.709 2
  24434072.873     2309685.718 5  12544923.970 2
  22027110.219   -10550180.997 7  -8373633.901 6
  23043636.382    -7345972.218 7  -5710348.352 4
  23862778.742    24458766.076 6  13492030.374 3
  22362090.607   -11357826.491 8  -7968976.946 6
  21938062.116     4684835.328 8  -1118971.669 6
  22693000.143   -11911249.943 8  -9605506.366 5
 94  3 15  1 47 30.0040000  0  8  5  2  4 24  7  9 13 12
  24457239.635    -5384301.586 6  -4183251.148 2
  24453844.696     2413576.961 5  12625878.147 2
  22028691.384   -10541892.770 7  -8367175.540 7
  23034523.261    -7393854.704 7  -5747659.364 4
  23882758.500    24563760.670 6  13573844.348 3
  22364244.226   -11346525.436 7  -7960170.942 6
  21949528.218     4745086.406 8  -1072022.814 6
  22688290.074   -11935997.662 8  -9624790.303 5
 94  3 15  1 48  0.0040000  0  8  5  2  4 24  7  9 13 12
  24448393.329    -5430757.527 6  -4219450.591 2
  24473671.050     2517773.837 5  12707070.383 1
  22030386.891   -10532968.305 7  -8360221.438 6
  23025495.341    -7441297.083 7  -5784627.455 4
  23902758.615    24668870.332 6  13655747.889 2
  22366511.077   -11334603.159 7  -7950880.897 6
  21961083.448     4805806.029 8  -1024708.846 6
  22683667.664   -11960291.462 8  -9643720.551 5
 94  3 15  1 48 30.0040000  0  8  5  2  4 24  7  9 13 12
  24439573.525    -5477146.510 6  -4255597.789 2
  24493561.260     2622270.717 5  12788496.582 1
  22032208.969   -10523425.565 7  -8352785.515 6
  23016555.380    -7488289.425 7  -5821244.835 4
  23922784.451    24774106.872 6  13737750.413 2
  22368900.003   -11322049.365 7  -7941098.712 6
  21972724.659     4866992.463 8   -977031.110 6
  22679133.063   -11984128.329 8  -9662294.706 5
 94  3 15  1 49  0.0040000  0  8  5  2  4 24  7  9 13 12
  24430752.762    -5523450.238 6  -4291678.629 2
  24513496.829     2727056.640 5  12870147.888 1
  22034139.782   -10513263.547 7  -8344867.106 6
  23007702.629    -7534812.824 7  -5857496.878 3
  23942834.511    24879484.039 6  13819862.431 2
  22371410.974   -11308859.626 7  -7930821.067 6
  21984457.217     4928650.782 8   -928985.729 5
  22674682.074   -12007498.224 8  -9680505.087 5
 94  3 15  1 49 30.0040000  0  8  5  2  4 24  7  9 13 12
  24421962.757    -5569657.442 6  -4327684.086 2
  24533495.205     2832131.708 5  12952024.692 1
  22036190.663   -10502486.058 7  -8336468.949 6
  22998943.982    -7580867.811 7  -5893383.735 3
  23962918.417    24985010.266 6  13902090.738 2
  22374035.867   -11295045.921 7  -7920057.034 5
  21996283.280     4990782.120 8   -880571.598 5
  22670326.000   -12030395.971 8  -9698347.358 5
 94  3 15  1 50  0.0040000  0  8  5  2  4 24  7  9 13 12
  24413184.564    -5615762.402 6  -4363609.962 2
  24553538.429     2937471.558 5  13034107.662 1
  22038357.473   -10491098.454 7  -8327595.423 6
  22990255.697    -7626489.378 7  -5928932.910 4
  23983026.726    25090693.181 6  13984441.121 2
  22376784.994   -11280613.227 8  -7908810.710 6
  22008194.544     5053377.014 8   -831796.291 6
  22666059.174   -12052826.187 8  -9715825.376 5
 94  3 15  1 50 30.0040000  0  8  5  2  4 24  7  9 13 12
  24404441.477    -5661770.332 6  -4399460.251 3
  24573630.220     3043071.876 5  13116393.607 2
  22040642.251   -10479080.681 7  -8318230.907 7
  22981654.202    -7671688.592 7  -5964153.023 4
  24003169.571    25196530.343 6  14066911.632 3
  22379642.976   -11265569.897 7  -7897088.623 6
  22020194.247     5116435.815 8   -782659.554 6
  22661880.367   -12074784.032 8  -9732935.370 6
 94  3 15  1 51  0.0040000  0  8  5  2  4 24  7  9 13 12
  24395699.798    -5707679.559 6  -4435233.632 3
  24593780.770     3148942.993 5  13198890.573 2
  22043052.342   -10466423.293 7  -8308368.001 7
  22973133.291    -7716466.920 7  -5999045.207 5
  24023335.411    25302503.008 6  14149487.742 3
  22382625.461   -11249923.393 8  -7884896.541 6
  22032281.969     5179953.139 8   -733165.533 6
  22657790.778   -12096270.078 8  -9749677.721 6
 94  3 15  1 51 30.0040000  0  8  5  2  4 24  7  9 13 12
  24386986.810    -5753467.845 6  -4470912.797 3
  24613985.882     3255120.108 5  13281625.964 2
  22045583.460   -10453107.503 7  -8297992.029 8
  22964692.424    -7760813.076 7  -6033600.605 5
  24043525.654    25408624.622 6  14232179.905 3
  22385725.884   -11233639.159 8  -7872207.509 7
  22044459.298     5243948.491 8   -683299.022 6
  22653798.172   -12117260.443 8  -9766033.815 6
 94  3 15  1 52  0.0040000  0  8  5  2  4 24  7  9 13 12
  24378292.889    -5799140.037 6  -4506501.467 3
  24634250.413     3361611.050 5  13364605.894 2
  22048249.005   -10439119.732 7  -8287092.457 8
  22956344.703    -7804704.025 7  -6067801.310 5
  24063754.240    25514899.598 6  14314991.584 3
  22388948.863   -11216703.957 7  -7859011.239 7
  22056729.564     5308421.655 8   -633060.199 7
  22649898.172   -12137750.384 8  -9781999.983 7
 94  3 15  1 52 30.0040000  0  8  5  2  4 24  7  9 13 12
  24369621.302    -5844711.695 6  -4542011.789 3
  24654574.243     3468434.451 5  13447844.963 2
  22051034.197   -10424471.040 7  -8275677.851 8
  22948083.712    -7848119.268 7  -6101631.303 5
  24083993.049    25621295.806 6  14397897.742 3
  22392286.483   -11199143.225 7  -7845327.521 7
  22069085.930     5373357.190 8   -582461.050 7
  22646093.865   -12157751.000 8  -9797584.836 7
 94  3 15  1 53  0.0040000  0  8  5  2  4 24  7  9 13 12
  24360968.572    -5890184.726 6  -4577445.280 3
  24674960.580     3575587.348 5  13531340.681 2
  22053940.864   -10409193.542 7  -8263773.286 9
  22939908.192    -7891069.763 7  -6135099.182 5
  24104268.912    25727803.160 6  14480890.491 3
  22395748.036   -11180968.849 7  -7831165.658 7
  22081526.597     5438740.816 8   -531512.764 7
  22642378.088   -12177271.743 8  -9812795.793 7
 94  3 15  1 53 30.0040000  0  8  5  2  4 24  7  9 13 12
  24352329.033    -5935576.213 6  -4612815.225 4
  24695420.426     3683045.462 5  13615074.282 2
  22056965.141   -10393307.786 7  -8251394.762 9
  22931816.014    -7933569.387 7  -6168215.732 6
  24124556.587    25834421.696 6  14563969.857 3
  22399316.016   -11162196.186 7  -7816537.604 7
  22094051.446     5504556.402 8   -480227.874 7
  22638749.400   -12196324.151 8  -9827641.789 7
 94  3 15  1 54  0.0040000  0  8  5  2  4 24  7  9 13 12
  24343715.636    -5980901.094 6  -4648133.257 4
  24715919.635     3790792.936 5  13699033.328 2
  22060101.240   -10376818.079 8  -8238545.602 9
  22923819.320    -7975611.860 7  -6200976.065 6
  24144863.659    25941138.533 6  14647125.862 3
  22403001.905   -11142837.084 7  -7801452.560 7
  22106654.691     5570793.688 8   -428614.406 7
  22635216.676   -12214914.088 8  -9842127.436 7
 94  3 15  1 54 30.0040000  0  8  5  2  4 24  7  9 13 12
  24335099.391    -6026150.785 6  -4683392.725 4
  24736483.539     3898821.452 5  13783211.393 2
  22063352.969   -10359740.806 7  -8225238.606 9
  22915903.660    -8017221.696 7  -6233399.274 6
  24165187.699    26047933.245 6  14730342.505 3
  22406793.590   -11122897.175 7  -7785914.959 7
  22119338.820     5637446.771 8   -376676.925 7
  22631763.096   -12233042.755 8  -9856253.657 7
 94  3 15  1 55  0.0040000  0  8  5  2  4 24  7  9 13 12
  24326503.022    -6071318.257 6  -4718588.114 4
  24757084.407     4007111.141 5  13867592.978 2
  22066714.092   -10342076.579 7  -8211474.274 9
  22908064.807    -8058419.843 7  -6265501.687 6
  24185524.030    26154819.023 6  14813630.123 3
  22410703.903   -11102357.486 7  -7769910.005 7
  22132102.244     5704515.308 8   -324415.727 7
  22628401.823   -12250705.883 8  -9870017.123 7
 94  3 15  1 55 30.0040000  0  8  5  2  4 24  7  9 13 12
  24317920.894    -6116417.994 6  -4753730.728 4
  24777748.202     4115659.481 5  13952176.111 2
  22070193.723   -10323804.730 8  -8197236.453 9
  22900303.360    -8099203.576 7  -6297281.167 6
  24205878.079    26261789.841 6  14896984.036 3
  22414731.314   -11081195.975 7  -7753420.502 7
  22144943.974     5771994.581 8   -271834.454 7
  22625129.049   -12267903.541 8  -9883417.885 7
 94  3 15  1 56  0.0040000  0  8  5  2  4 24  7  9 13 12
  24309346.650    -6161464.592 6  -4788831.904 4
  24798443.625     4224467.133 5  14036961.262 2
  22073784.787   -10304921.996 8  -8182522.603 9
  22892615.692    -8139585.441 7  -6328747.530 6
  24226248.947    26368819.615 6  14980383.866 3
  22418873.607   -11059428.227 7  -7736458.611 7
  22157859.063     5839870.232 8   -218944.334 7
  22621942.975   -12284645.326 8  -9896463.406 7
 94  3 15  1 56 30.0040000  0  8  5  2  4 24  7  9 13 12
  24300786.765    -6206433.678 6  -4823872.710 4
  24819204.942     4333548.745 5  14121959.929 2
  22077497.776   -10285415.667 8  -8167322.833 9
  22885008.578    -8179561.860 7  -6359897.929 6
  24246630.277    26475923.106 6  15063841.138 3
  22423134.137   -11037045.263 7  -7719017.313 7
  22170851.649     5908150.094 8   -165739.245 7
  22618849.596   -12300918.999 8  -9909144.175 7
 94  3 15  1 57  0.0040000  0  8  5  2  4 24  7  9 13 12
  24292247.177    -6251336.926 6  -4858862.206 4
  24840004.423     4442899.560 5  14207168.364 2
  22081330.653   -10265270.248 8  -8151625.088 9
  22877480.550    -8219116.975 7  -6390720.059 6
  24267025.698    26583107.012 6  15147361.081 3
  22427516.144   -11014049.181 7  -7701098.280 7
  22183919.212     5976825.893 8   -112225.607 7
  22615839.650   -12316728.202 8  -9921463.003 7
 94  3 15  1 57 30.0040000  0  8  5  2  4 24  7  9 13 12
  24283706.750    -6296175.634 6  -4893801.413 4
  24860867.729     4552517.566 5  14292584.996 2
  22085287.584   -10244478.288 8  -8135423.555 9
  22870036.703    -8258227.719 7  -6421195.914 6
  24287436.318    26690362.073 6  15230936.460 3
  22432002.028   -10990451.130 7  -7682710.179 7
  22197065.082     6045893.076 8    -58407.021 7
  22612922.100   -12332072.815 8  -9933419.844 7
 94  3 15  1 58  0.0040000  0  8  5  2  4 24  7  9 13 12
  24275196.931    -6340940.296 6  -4928682.923 4
  24881782.870     4662389.518 5  14378199.508 2
  22089365.121   -10223058.086 8  -8118732.447 9
  22862678.987    -8296896.445 7  -6451327.367 6
  24307857.161    26797684.249 6  15314564.120 3
  22436599.975   -10966280.024 7  -7663875.543 7
  22210277.235     6115342.054 8     -4290.916 7
  22610086.123   -12346958.065 8  -9945018.727 7
 94  3 15  1 58 30.0040000  0  8  5  2  4 24  7  9 13 12
  24266682.016    -6385645.002 6  -4963517.730 4
  24902728.470     4772474.929 5  14463980.337 2
  22093551.812   -10201046.916 8  -8101580.872 9
  22855402.904    -8335146.781 7  -6481132.766 6
  24328290.385    26905057.041 6  15398231.240 3
  22441307.706   -10941548.447 7  -7644604.175 7
  22223562.718     6185148.408 8     50103.654 7
  22607336.457   -12361403.455 8  -9956274.852 7
 94  3 15  1 59  0.0040000  0  8  5  2  4 24  7  9 13 12
  24258187.007    -6430300.067 6  -4998313.830 4
  24923715.591     4882763.165 5  14549919.198 2
  22097849.757   -10178453.761 8  -8083975.799 9
  22848202.728    -8372977.719 7  -6510611.397 6
  24348728.826    27012466.607 6  15481926.986 3
  22446117.756   -10916271.081 7  -7624907.527 7
  22236912.236     6255304.334 8    104770.618 7
  22604670.702   -12375412.509 8  -9967190.984 7
 94  3 15  1 59 30.0040000  0  8  5  2  4 24  7  9 13 12
  24249701.051    -6474890.013 6  -5033059.200 4
  24944741.925     4993256.465 5  14636017.855 2
  22102257.456   -10155298.872 8  -8065933.004 9
  22841082.927    -8410394.935 7  -6539767.632 6
  24369176.830    27119910.898 6  15565649.840 3
  22451031.504   -10890446.626 7  -7604784.546 7
  22250330.437     6325815.202 8    159714.162 7
  22602093.866   -12388975.184 8  -9977759.287 7
 94  3 15  2  0  0.0050000  0  8  5  2  4 24  7  9 13 12
  24241224.959    -6519409.298 6  -5067749.519 4
  24965810.619     5103970.856 5  14722288.796 2
  22106772.930   -10131583.867 8  -8047453.758 9
  22834040.113    -8447394.917 7  -6568598.766 6
  24389630.140    27227396.380 6  15649404.740 3
  22456052.189   -10864068.433 7  -7584230.112 7
  22263817.830     6396691.253 8    214942.252 7
  22599598.304   -12402079.396 8  -9987970.335 7
 94  3 15  2  0 30.0050000  0  8  5  2  4 24  7  9 13 12
  24232768.503    -6563860.348 7  -5102386.663 4
  24986922.274     5214899.708 5  14808726.843 2
  22111388.444   -10107310.350 8  -8028539.312 9
  22827081.480    -8483972.774 7  -6597100.932 6
  24410087.408    27334902.624 6  15733175.866 3
  22461174.562   -10837137.204 7  -7563244.716 7
  22277376.153     6467926.998 8    270450.653 7
  22597191.780   -12414720.525 8  -9997820.526 7
 94  3 15  2  1  0.0050000  0  8  5  2  4 24  7  9 13 12
  24224327.187    -6608245.901 6  -5136972.761 4
  25008069.244     5326069.536 4  14895352.673 2
  22116115.902   -10082467.430 8  -8009181.178 9
  22820205.171    -8520112.529 7  -6625261.753 6
  24430552.500    27442435.784 6  15816967.940 3
  22466406.331   -10809644.000 7  -7541821.446 7
  22290999.412     6539527.129 8    326242.966 6
  22594876.153   -12426892.182 8 -10007304.924 7
 94  3 15  2  1 30.0050000  0  8  5  2  4 24  7  9 13 12
  24215889.858    -6652574.891 7  -5171514.799 4
  25029290.892     5437492.700 4  14982175.947 2
  22120952.573   -10057047.076 8  -7989373.089 9
  22813412.203    -8555806.682 7  -6653075.341 6
  24451017.982    27550009.630 6  15900791.734 3
  22471753.279   -10781561.299 7  -7519938.806 7
  22304694.202     6611494.781 8    382321.664 6
  22592650.793   -12438586.749 8 -10016417.551 7
 94  3 15  2  2  0.0050000  0  8  5  2  4 24  7  9 13 12
  24207460.983    -6696853.831 7  -5206017.826 4
  25050529.749     5549179.027 4  15069204.235 2
  22125906.044   -10031025.971 8  -7969096.876 9
  22806707.045    -8591038.649 7  -6680528.771 6
  24471500.313    27657637.788 6  15984657.844 3
  22477207.823   -10752877.946 7  -7497588.134 7
  22318460.881     6683831.882 8    438688.241 6
  22590519.539   -12449797.666 8 -10025153.307 7
 94  3 15  2  2 30.0050000  0  8  5  2  4 24  7  9 13 12
  24199047.158    -6741079.683 7  -5240479.510 4
  25071835.669     5661132.878 5  15156441.015 2
  22130973.166   -10004391.714 8  -7948342.888 9
  22800089.756    -8625808.003 7  -6707621.745 6
  24491997.243    27765347.727 6  16068587.679 3
  22482787.470   -10723571.373 7  -7474751.826 7
  22332297.772     6756541.752 8    495345.298 6
  22588477.263   -12460517.159 8 -10033506.134 7
 94  3 15  2  3  0.0050000  0  8  5  2  4 24  7  9 13 12
  24190639.419    -6785252.497 7  -5274899.844 4
  25093186.199     5773353.411 5  15243885.582 2
  22136156.997    -9977142.862 8  -7927109.993 9
  22793564.743    -8660102.023 7  -6734344.320 6
  24512518.337    27873156.446 6  16152594.454 3
  22488483.677   -10693632.577 7  -7451422.884 7
  22346200.677     6829622.478 8    552291.315 6
  22586532.449   -12470742.605 8 -10041473.999 7
 94  3 15  2  3 30.0050000  0  8  5  2  4 24  7  9 13 12
  24182250.416    -6829367.156 7  -5309274.862 4
  25114587.873     5885820.716 5  15331522.459 2
  22141460.656    -9949282.714 8  -7905400.774 9
  22787125.591    -8693931.363 7  -6760704.802 6
  24533046.236    27981060.106 6  16236675.267 3
  22494295.993   -10663075.212 7  -7427611.928 7
  22360178.650     6903067.054 8    609520.868 6
  22584681.680   -12480476.610 8 -10049058.912 7
 94  3 15  2  4  0.0050000  0  8  5  2  4 24  7  9 13 12
  24173868.999    -6873388.929 7  -5343577.518 4
  25136039.312     5998525.917 4  15419344.656 2
  22146881.473    -9920804.674 8  -7883210.082 9
  22780779.045    -8727294.589 7  -6786702.076 6
  24553601.475    28089057.800 6  16320829.316 3
  22500226.038   -10631914.704 7  -7403331.033 7
  22374224.886     6976876.784 8    667034.937 6
  22582922.408   -12489713.293 8 -10056256.322 7
 94  3 15  2  4 30.0050000  0  8  5  2  4 24  7  9 13 12
  24165513.273    -6917302.461 7  -5377795.815 4
  25157531.943     6111465.663 4  15507349.637 2
  22152416.421    -9891712.648 8  -7860540.947 9
  22774520.398    -8760190.934 7  -6812335.557 6
  24574163.161    28197136.445 6  16405046.421 3
  22506271.952   -10600152.167 7  -7378580.932 7
  22388341.903     7051048.201 8    724830.852 6
  22581260.329   -12498451.356 8 -10063065.171 7
 94  3 15  2  5  0.0050000  0  8  5  2  4 24  7  9 13 12
  24157181.141    -6961074.150 7  -5411903.588 5
  25179064.596     6224654.816 4  15595548.970 2
  22158069.698    -9861990.225 7  -7837380.598 9
  22768350.909    -8792599.851 7  -6837589.221 6
  24594742.204    28305284.670 6  16489317.806 3
  22512431.368   -10567781.642 7  -7353357.174 7
  22402523.226     7125595.466 8    782919.650 6
  22579694.992   -12506672.664 8 -10069471.373 7
 94  3 15  2  5 30.0050000  0  8  5  2  4 24  7  9 13 12
  24148880.878    -7004691.114 7  -5445890.791 5
  25200661.375     6338102.643 4  15683949.873 2
  22163848.797    -9831630.172 7  -7813723.379 9
  22762275.465    -8824536.310 7  -6862474.717 6
  24615339.535    28413494.696 6  16573637.300 3
  22518705.964   -10534800.410 7  -7327657.502 7
  22416783.064     7200517.207 8    841300.231 6
  22578229.097   -12514373.853 8 -10075472.275 7
 94  3 15  2  6  0.0050000  0  8  5  2  4 24  7  9 13 12
  24140606.636    -7048175.915 7  -5479775.021 5
  25222287.803     6451801.095 4  15772546.089 2
  22169746.524    -9800646.315 7  -7789580.110 9
  22756286.631    -8856009.035 7  -6886998.888 6
  24635934.647    28521749.802 6  16657991.962 3
  22525097.120   -10501219.592 7  -7301490.620 8
  22431104.839     7275796.346 8    899959.301 6
  22576860.994   -12521567.670 8 -10081077.833 7
 94  3 15  2  6 30.0050000  0  8  5  2  4 24  7  9 13 12
  24132348.523    -7091560.609 7  -5513581.261 5
  25243977.968     6565754.592 4  15861341.001 2
  22175753.046    -9769059.620 7  -7764967.078 9
  22750382.578    -8887026.886 7  -6911168.600 6
  24656543.850    28630035.376 6  16742370.328 3
  22531597.370   -10467050.007 7  -7274864.980 7
  22445497.395     7351417.891 8    958885.186 6
  22575585.677   -12528264.721 8 -10086296.308 7
 94  3 15  2  7  0.0050000  0  8  5  2  4 24  7  9 13 12
  24124116.791    -7134843.774 7  -5547308.365 5
  25265715.109     6679983.174 4  15950350.261 2
  22181885.630    -9736851.852 7  -7739870.105 9
  22744566.934    -8917584.538 7  -6934979.732 7
  24677153.802    28738371.997 6  16826788.473 3
  22538213.939   -10432287.031 7  -7247776.929 8
  22459953.478     7427391.864 8   1018085.694 6
  22574411.870   -12534450.263 8 -10091116.194 7
 94  3 15  2  7 30.0050000  0  8  5  2  4 24  7  9 13 12
  24115896.692    -7178036.285 7  -5580964.841 5
  25287496.860     6794510.384 4  16039592.263 2
  22188132.885    -9704017.050 7  -7714284.532 9
  22738839.489    -8947671.440 7  -6958424.026 7
  24697787.797    28846784.214 6  16911265.555 3
  22544942.721   -10396933.182 7  -7220228.479 8
  22474480.761     7503724.927 8   1077566.002 6
  22573332.887   -12540113.364 8 -10095528.995 7
 94  3 15  2  8  0.0050000  0  8  5  2  4 24  7  9 13 12
  24107696.829    -7221152.067 7  -5614561.518 5
  25309352.270     6909327.178 4  16129059.876 2
  22194494.631    -9670574.283 7  -7688225.221 9
  22733207.918    -8977278.396 7  -6981494.356 7
  24718434.984    28955265.042 6  16995796.087 3
  22551779.638   -10360997.211 7  -7192226.409 8
  22489071.330     7580412.415 8   1137322.508 6
  22572354.634   -12545254.477 8 -10099535.030 8
 94  3 15  2  8 30.0050000  0  8  5  2  4 24  7  9 13 12
  24099500.083    -7264199.631 7  -5648105.051 5
  25331258.015     7024415.349 4  16218738.980 2
  22200974.315    -9636539.277 7  -7661704.409 9
  22727663.886    -9006417.623 7  -7004200.190 7
  24739087.986    29063804.146 6  17080372.002 3
  22558725.979   -10324486.284 7  -7163776.331 8
  22503730.791     7657441.069 8   1197344.828 6
  22571472.675   -12549882.264 8 -10103141.091 8
 94  3 15  2  9  0.0050000  0  8  5  2  4 24  7  9 13 12
  24091314.430    -7307188.590 6  -5681602.916 5
  25353204.682     7139738.816 4  16308601.432 2
  22207561.235    -9601921.007 7  -7634729.110 9
  22722205.594    -9035096.104 7  -7026547.019 7
  24759750.581    29172395.367 6  17164988.586 3
  22565788.520   -10287398.804 7  -7134876.992 8
  22518450.361     7734800.405 8   1257624.845 6
  22570688.418   -12554002.844 8 -10106351.909 8
 94  3 15  2  9 30.0050000  0  8  5  2  4 24  7  9 13 12
  24083151.531    -7350119.526 6  -5715055.555 5
  25375185.585     7255275.874 4  16398630.289 2
  22214253.592    -9566740.196 7  -7607315.457 9
  22716836.491    -9063303.104 7  -7048526.468 7
  24780421.661    29281032.380 6  17249640.824 2
  22572955.928   -10249721.844 7  -7105518.316 8
  22533235.196     7812482.339 8   1318156.235 6
  22569997.246   -12557620.164 8 -10109170.589 8
 94  3 15  2 10  0.0050000  0  8  5  2  4 24  7  9 13 12
  24074996.247    -7392975.702 7  -5748449.933 5
  25397220.510     7370999.948 4  16488804.914 2
  22221058.132    -9530998.257 7  -7579464.583 9
  22711557.506    -9091034.712 7  -7070135.475 7
  24801106.921    29389710.955 6  17334325.426 2
  22580240.885   -10211432.310 7  -7075682.309 8
  22548077.261     7890482.942 8   1378935.931 6
  22569405.516   -12560733.453 8 -10111596.511 8
 94  3 15  2 10 30.0050000  0  8  5  2  4 24  7  9 13 12
  24066855.593    -7435742.099 6  -5781774.350 5
  25419267.607     7486911.957 4  16579125.968 2
  22227969.457    -9494675.884 7  -7551161.410 9
  22706374.094    -9118287.662 7  -7091371.486 7
  24821795.838    29498441.548 6  17419050.603 2
  22587649.895   -10172525.337 7  -7045365.177 8
  22562980.424     7968800.304 8   1439962.463 6
  22568913.256   -12563340.602 8 -10113628.040 8
 94  3 15  2 11  0.0050000  0  8  5  2  4 24  7  9 13 12
  24058736.134    -7478416.652 6  -5815027.197 5
  25441367.288     7603010.709 4  16669592.530 2
  22234987.688    -9457783.851 7  -7522414.366 9
  22701275.524    -9145066.482 7  -7112238.070 7
  24842493.869    29607203.474 6  17503800.167 2
  22595159.936   -10133015.406 7  -7014578.213 8
  22577937.669     8047419.221 8   1501223.970 6
  22568508.537   -12565452.293 8 -10115273.499 8
 94  3 15  2 11 30.0050000  0  8  5  2  4 24  7  9 13 12
  24050631.664    -7520998.005 6  -5848207.421 5
  25463490.802     7719319.280 4  16760222.584 2
  22242117.173    -9420325.814 7  -7493226.259 9
  22696271.148    -9171381.793 7  -7132743.461 7
  24863189.232    29715971.364 6  17588554.367 2
  22602793.642   -10092920.578 7  -6983335.486 8
  22592956.522     8126328.913 8   1562712.041 6
  22568199.451   -12567075.155 8 -10116538.057 8
 94  3 15  2 12  0.0050000  0  8  5  2  4 24  7  9 13 12
  24042552.467    -7563484.737 7  -5881313.919 5
  25485660.574     7835856.231 4  16851030.542 2
  22249353.233    -9382290.194 7  -7463588.092 9
  22691352.843    -9197248.245 7  -7152899.117 7
  24883888.193    29824741.385 6  17673310.269 2
  22610535.122   -10052259.888 7  -6951651.841 8
  22608025.290     8205528.621 8   1624426.103 6
  22567986.838   -12568205.586 8 -10117418.896 8
 94  3 15  2 12 30.0050000  0  8  5  2  4 24  7  9 13 12
  24034475.579    -7605895.613 7  -5914361.323 5
  25507891.234     7952625.561 4  16942019.649 2
  22256702.376    -9343686.018 7  -7433506.902 9
  22686505.979    -9222683.358 7  -7172718.651 7
  24904586.673    29933491.837 6  17758050.899 2
  22618372.596   -10011061.284 7  -6919549.019 8
  22623154.526     8285004.589 8   1686355.436 6
  22567860.176   -12568853.152 8 -10117923.487 8
 94  3 15  2 13  0.0050000  0  8  5  2  4 24  7  9 13 12
  24026413.500    -7648260.843 6  -5947373.147 5
  25530148.066     8069617.007 4  17033181.821 2
  22264149.250    -9304544.173 7  -7403006.740 9
  22681744.765    -9247710.099 7  -7192219.975 7
  24925260.991    30042185.026 6  17842746.901 2
  22626308.612    -9969355.172 7  -6887050.743 8
  22638324.744     8364737.123 8   1748484.690 6
  22567830.406   -12569033.092 8 -10118063.678 8
 94  3 15  2 13 30.0050000  0  8  5  2  4 24  7  9 13 12
  24018361.135    -7690582.676 6  -5980351.185 6
  25552451.936     8186827.538 4  17124514.681 2
  22271701.742    -9264859.647 7  -7372083.732 9
  22677062.576    -9272326.018 7  -7211401.173 7
  24945942.713    30150838.418 6  17927411.903 2
  22634340.742    -9927149.389 7  -6854163.106 8
  22653545.986     8444727.079 8   1810814.528 6
  22567883.200   -12568740.650 8 -10117835.808 8
 94  3 15  2 14  0.0050000  0  8  5  2  4 24  7  9 13 12
  24010321.780    -7732843.867 7  -6013281.925 6
  25574800.744     8304239.534 4  17216004.566 2
  22279360.690    -9224614.098 7  -7340723.539 9
  22672461.901    -9296508.485 7  -7230244.626 7
  24966612.654    30259489.965 6  18012075.474 3
  22642468.026    -9884428.198 7  -6820873.864 8
  22668816.365     8524983.287 8   1873351.839 6
  22568032.076   -12567962.532 8 -10117229.465 8
 94  3 15  2 14 30.0050000  0  8  5  2  4 24  7  9 13 12
  24002294.537    -7775025.895 7  -6046151.006 6
  25597183.309     8421849.795 3  17307648.914 2
  22287129.361    -9183789.408 7  -7308912.086 9
  22667946.907    -9320226.484 7  -7248726.149 7
  24987292.517    30368152.267 6  18096747.402 3
  22650701.765    -9841171.871 7  -6787167.632 9
  22684143.914     8605516.294 8   1936104.839 6
  22568277.097   -12566684.012 8 -10116233.205 8
 94  3 15  2 15  0.0050000  0  8  5  2  4 24  7  9 13 12
  23994279.646    -7817129.203 7  -6078958.740 6
  25619596.722     8539641.988 4  17399435.033 2
  22295008.237    -9142380.635 7  -7276645.484 9
  22663521.401    -9343462.268 7  -7266831.933 7
  25007978.557    30476841.430 5  18181440.291 3
  22659032.098    -9797380.499 7  -6753044.490 8
  22699521.318     8686318.439 8   1999067.547 6
  22568613.734   -12564908.682 8 -10114849.819 8
 94  3 15  2 15 30.0050000  0  8  5  2  4 24  7  9 13 12
  23986291.286    -7859142.847 7  -6111696.606 6
  25642036.637     8657590.786 4  17491343.179 2
  22303002.683    -9100386.200 7  -7243922.541 9
  22659192.308    -9366224.194 7  -7284568.455 7
  25028666.815    30585577.431 5  18266169.662 2
  22667471.226    -9753037.487 7  -6718491.488 8
  22714946.120     8767380.745 8   2062232.993 6
  22569044.775   -12562641.029 8 -10113082.793 8
 94  3 15  2 16  0.0050000  0  8  5  2  4 24  7  9 13 12
  23978306.434    -7901059.634 7  -6144358.991 6
  25664519.333     8775702.928 4  17583378.576 2
  22311101.756    -9057804.420 7  -7210741.911 9
  22654953.272    -9388516.507 7  -7301939.059 7
  25049370.422    30694356.402 6  18350932.498 2
  22676021.277    -9708121.590 7  -6683492.083 8
  22730419.728     8848707.550 8   2125604.539 6
  22569568.003   -12559873.064 8 -10110925.932 8
 94  3 15  2 16 30.0050000  0  8  5  2  4 24  7  9 13 12
  23970349.762    -7942890.243 7  -6176954.230 6
  25687023.194     8893983.616 4  17675545.381 2
  22319310.733    -9014669.080 7  -7177129.929 9
  22650796.410    -9410354.811 7  -7318955.873 7
  25070076.487    30803157.867 6  18435712.880 2
  22684673.437    -9662639.144 7  -6648051.212 8
  22745944.300     8930287.473 8   2189173.334 6
  22570191.961   -12556611.600 8 -10108384.503 8
 94  3 15  2 17  0.0050000  0  8  5  2  4 24  7  9 13 12
  23962405.502    -7984629.789 7  -6209478.513 6
  25709566.657     9012435.487 4  17767845.527 2
  22327617.202    -8971009.207 7  -7143109.251 9
  22646724.119    -9431752.566 7  -7335629.426 7
  25090786.990    30911984.374 6  18520512.804 2
  22693441.887    -9616580.402 7  -6612161.287 8
  22761518.669     9012119.938 8   2252938.894 6
  22570906.786   -12552853.216 8 -10105455.894 8
 94  3 15  2 17 30.0050000  0  8  5  2  4 24  7  9 13 12
  23954484.116    -8026280.974 7  -6241933.945 6
  25732137.672     9131070.731 3  17860288.583 2
  22336021.284    -8926847.529 7  -7108697.550 9
  22642728.245    -9452732.987 7  -7351977.775 7
  25111488.079    31020813.582 5  18605314.836 2
  22702311.697    -9569953.011 8  -6575828.235 8
  22777138.275     9094201.523 8   2316898.578 6
  22571718.055   -12548597.368 8 -10102139.629 8
 94  3 15  2 18  0.0050000  0  8  5  2  4 24  7  9 13 12
  23946566.327    -8067854.944 7  -6274329.201 6
  25754754.045     9249911.510 3  17952891.768 2
  22344524.687    -8882175.507 7  -7073888.155 9
  22638822.519    -9473271.245 7  -7367981.578 7
  25132196.842    31129623.410 5  18690101.721 2
  22711293.419    -9522762.451 7  -6539056.364 8
  22792806.448     9176540.191 8   2381058.585 6
  22572622.079   -12543832.065 8 -10098426.381 8
 94  3 15  2 18 30.0050000  0  8  5  2  4 24  7  9 13 12
  23938672.972    -8109360.434 7  -6306671.110 6
  25777403.725     9368956.763 4  18045654.301 2
  22353119.677    -8836996.590 7  -7038683.789 9
  22635002.774    -9493343.984 7  -7383622.651 7
  25152897.721    31238407.041 5  18774868.231 2
  22720381.327    -9475014.954 7  -6501850.526 8
  22808521.269     9259131.352 8   2445415.342 6
  22573627.133   -12538557.654 8 -10094316.452 8
 94  3 15  2 19  0.0050000  0  8  5  2  4 24  7  9 13 12
  23930791.848    -8150788.562 7  -6338952.738 6
  25800100.982     9488215.791 4  18138583.429 1
  22361821.693    -8791276.723 7  -7003057.898 9
  22631274.075    -9512934.486 7  -7398887.930 7
  25173586.789    31347156.890 5  18859608.367 2
  22729569.696    -9426715.914 8  -6464214.882 8
  22824288.524     9341982.377 8   2509974.603 6
  22574728.241   -12532762.936 8 -10089801.056 9
 94  3 15  2 19 30.0050000  0  8  5  2  4 24  7  9 13 12
  23922919.088    -8192134.066 7  -6371169.976 6
  25822830.377     9607694.188 4  18231683.453 1
  22370629.595    -8744987.026 7  -6966987.984 9
  22627643.558    -9532023.430 7  -7413762.410 7
  25194286.408    31455871.831 5  18944321.321 2
  22738865.481    -9377869.123 7  -6426152.450 8
  22840105.664     9425095.443 8   2574738.044 6
  22575932.387   -12526441.637 8 -10084875.348 9
 94  3 15  2 20  0.0050000  0  8  5  2  4 24  7  9 13 12
  23915069.382    -8233391.314 7  -6403318.447 6
  25845612.055     9727374.489 4  18324940.804 1
  22379548.181    -8698123.604 7  -6930471.014 9
  22624108.915    -9550598.129 7  -7428236.176 7
  25214960.486    31564564.679 5  19029017.085 2
  22748266.223    -9328471.569 7  -6387660.851 8
  22855968.312     9508467.284 8   2639703.109 6
  22577237.474   -12519592.974 8 -10079538.730 9
 94  3 15  2 20 30.0050000  0  8  5  2  4 24  7  9 13 12
  23907236.824    -8274541.340 7  -6435383.382 6
  25868433.006     9847246.209 4  18418347.367 1
  22388574.243    -8650691.410 8  -6893510.853 9
  22620669.396    -9568665.148 7  -7442314.342 7
  25235648.954    31673258.950 5  19113713.908 2
  22757768.745    -9278526.481 8  -6348742.598 8
  22871885.343     9592098.219 8   2704870.084 6
  22578639.153   -12512212.733 8 -10073787.884 9
 94  3 15  2 21  0.0050000  0  8  5  2  4 24  7  9 13 12
  23899431.938    -8315573.115 7  -6467356.160 6
  25891267.928     9967304.674 4  18511899.355 1
  22397709.578    -8602677.948 8  -6856097.741 9
  22617325.092    -9586239.276 7  -7456008.438 7
  25256338.890    31781967.311 5  19198421.753 2
  22767376.913    -9228036.794 8  -6309399.983 8
  22887846.923     9675989.974 8   2770240.293 6
  22580148.219   -12504295.365 8 -10067618.481 9
 94  3 15  2 21 30.0050000  0  8  5  2  4 24  7  9 13 12
  23891646.058    -8356482.449 7  -6499233.531 6
  25914155.733    10087558.032 4  18605603.218 1
  22406957.096    -8554084.525 7  -6818232.733 9
  22614074.112    -9603312.966 7  -7469312.595 7
  25277036.082    31890720.929 5  19283164.849 2
  22777094.566    -9176971.013 8  -6269608.458 8
  22903863.995     9760151.131 8   2835820.430 6
  22581757.235   -12495828.138 8 -10061020.636 9
 94  3 15  2 22  0.0050000  0  8  5  2  4 24  7  9 13 12
  23883880.953    -8397281.629 7  -6531025.047 6
  25937072.259    10208015.513 4  18699466.220 1
  22416313.649    -8504921.159 8  -6779923.590 9
  22610923.443    -9619887.957 7  -7482228.139 7
  25297730.366    31999520.597 5  19367943.826 2
  22786919.934    -9125329.916 8  -6229368.619 8
  22919928.614     9844579.784 8   2901609.009 6
  22583475.195   -12486809.021 8 -10053992.725 9
 94  3 15  2 22 30.0050000  0  8  5  2  4 24  7  9 13 12
  23876132.338    -8437974.695 7  -6562733.899 6
  25960038.519    10328677.195 4  18793488.296 1
  22425771.262    -8455196.679 8  -6741177.236 9
  22607862.143    -9635972.513 7  -7494761.529 7
  25318447.643    32108350.544 5  19452746.370 2
  22796856.854    -9073122.503 8  -6188687.533 8
  22936047.285     9929265.064 8   2967597.549 6
  22585297.664   -12477245.251 8 -10046540.432 9
 94  3 15  2 23  0.0060000  0  8  5  2  4 24  7  9 13 12
  23868419.007    -8478554.132 7  -6594354.202 6
  25983042.044    10449563.868 4  18887685.719 1
  22435341.836    -8404911.122 8  -6701993.649 9
  22604897.225    -9651554.669 7  -7506903.420 8
  25339146.874    32217203.525 5  19537566.916 3
  22806900.921    -9020326.736 7  -6147547.946 8
  22952207.657    10014205.625 8   3033785.031 6
  22587218.374   -12467136.775 8 -10038663.670 9
 94  3 15  2 23 30.0060000  0  8  5  2  4 24  7  9 13 12
  23860717.279    -8518995.593 7  -6625867.005 6
  26006089.249    10570693.062 3  18982072.146 1
  22445019.616    -8354067.329 7  -6662375.107 9
  22602030.340    -9666607.131 7  -7518632.593 8
  25359879.471    32326084.839 5  19622409.472 3
  22817062.746    -8966930.352 7  -6105940.385 8
  22968422.022    10099407.849 8   3100176.371 6
  22589248.269   -12456468.219 8 -10030350.517 9
 94  3 15  2 24  0.0060000  0  8  5  2  4 24  7  9 13 12
  23853058.991    -8559251.453 7  -6657235.173 6
  26029201.269    10692093.916 3  19076670.157 1
  22454805.382    -8302634.455 8  -6622297.529 9
  22599272.369    -9681101.048 7  -7529926.526 8
  25380604.273    32435023.246 5  19707296.579 2
  22827344.218    -8912925.409 7  -6063858.599 8
  22984689.870    10184899.361 8   3166793.149 6
  22591388.307   -12445210.781 8 -10021578.468 9
 94  3 15  2 24 30.0060000  0  8  5  2  4 24  7  9 13 12
  23845443.093    -8599278.150 7  -6688424.773 6
  26052365.423    10813783.591 3  19171493.272 1
  22464710.405    -8250589.027 8  -6581742.635 9
  22596625.442    -9695022.413 7  -7540774.327 8
  25401355.727    32544035.869 5  19792241.454 2
  22837736.434    -8858288.371 7  -6021284.286 8
  23001017.617    10270699.501 8   3233650.412 6
  22593647.753   -12433341.282 8 -10012329.509 9
 94  3 15  2 25  0.0060000  0  8  5  2  4 24  7  9 13 12
  23837864.280    -8639094.331 7  -6719450.327 6
  26075564.382    10935752.711 3  19266534.150 1
  22474733.696    -8197932.076 8  -6540711.215 9
  22594081.463    -9708386.740 7  -7551188.058 8
  25422113.897    32653117.123 5  19877239.852 2
  22848251.655    -8803034.749 7  -5978229.505 8
  23017402.084    10356798.344 8   3300740.433 6
  22596022.379   -12420865.928 8 -10002608.428 9
 94  3 15  2 25 30.0060000  0  8  5  2  4 24  7  9 13 12
  23830324.680    -8678723.177 7  -6750329.912 6
  26098824.650    11057970.822 4  19361769.011 1
  22484863.473    -8144670.371 8  -6499208.579 9
  22591641.242    -9721222.713 7  -7561190.070 8
  25442873.655    32762261.284 5  19962287.284 3
  22858874.411    -8747201.047 7  -5934722.727 8
  23033839.825    10443183.328 8   3368053.422 6
  22598510.327   -12407793.599 8  -9992422.177 9
 94  3 15  2 26  0.0060000  0  8  5  2  4 24  7  9 13 12
  23822817.517    -8718179.289 7  -6781074.921 6
  26122123.500    11180420.046 3  19457184.006 1
  22495119.673    -8090795.189 8  -6457227.914 9
  22589290.899    -9733546.386 7  -7570792.928 8
  25463653.050    32871447.354 5  20047367.332 3
  22869612.916    -8690790.308 7  -5890766.302 8
  23050329.489    10529845.193 8   3435582.146 6
  22601110.127   -12394129.566 8  -9981774.884 9
 94  3 15  2 26 30.0060000  0  8  5  2  4 24  7  9 13 12
  23815333.378    -8757494.739 7  -6811710.309 6
  26145454.848    11303091.295 3  19552771.942 1
  22505486.646    -8036312.547 8  -6414773.906 9
  22587045.634    -9745363.198 7  -7580000.804 8
  25484441.228    32980648.992 5  20132459.496 3
  22880457.159    -8633802.700 7  -5846360.390 8
  23066874.465    10616773.389 8   3503318.414 6
  22603823.668   -12379880.986 8  -9970672.083 9
 94  3 15  2 27  0.0060000  0  8  5  2  4 24  7  9 13 12
  23807877.839    -8796689.947 7  -6842251.996 6
  26168843.577    11425961.434 3  19648514.910 1
  22515966.071    -7981235.111 8  -6371856.400 9
  22584893.034    -9756670.511 7  -7588811.670 8
  25505216.516    33089862.007 5  20217560.568 3
  22891406.239    -8576246.270 7  -5801511.217 9
  23083463.421    10703949.135 8   3571247.590 6
  22606640.608   -12365063.162 8  -9959125.714 9
 94  3 15  2 27 30.0060000  0  8  5  2  4 24  7  9 13 12
  23800435.371    -8835788.909 7  -6872718.673 6
  26192272.867    11549012.328 4  19744398.771 1
  22526556.360    -7925591.761 8  -6328497.929 9
  22582833.999    -9767490.208 7  -7597242.576 8
  25525996.870    33199059.604 5  20302649.560 3
  22902465.643    -8518131.806 7  -5756227.218 9
  23100092.759    10791343.526 8   3639347.121 6
  22609564.904   -12349700.968 8  -9947155.158 9
 94  3 15  2 28  0.0060000  0  8  5  2  4 24  7  9 13 12
  23793015.898    -8874795.789 7  -6903113.630 7
  26215705.155    11672242.744 4  19840422.417 1
  22537247.258    -7869402.383 7  -6284713.989 9
  22580867.031    -9777822.793 7  -7605293.931 9
  25546775.455    33308228.984 5  20387716.606 3
  22913635.220    -8459449.943 7  -5710501.088 9
  23116762.268    10878943.306 8   3707606.694 7
  22612589.690   -12333804.212 8  -9934768.059 9
 94  3 15  2 28 30.0060000  0  8  5  2  4 24  7  9 13 12
  23785609.975    -8913691.410 7  -6933421.869 7
  26239197.282    11795657.337 3  19936589.649 1
  22548041.795    -7812680.709 7  -6240515.253 9
  22578994.737    -9787659.690 7  -7612959.014 9
  25567550.383    33417400.428 5  20472785.271 3
  22924911.074    -8400202.473 7  -5664334.239 9
  23133469.792    10966747.769 8   3776025.775 7
  22615716.016   -12317370.037 8  -9921962.184 9
 94  3 15  2 29  0.0060000  0  8  5  2  4 24  7  9 13 12
  23778234.721    -8952452.300 7  -6963625.130 7
  26262720.107    11919243.154 4  20032890.194 1
  22558936.403    -7755438.591 7  -6195911.001 9
  22577217.448    -9797010.486 7  -7620245.324 9
  25588324.022    33526583.892 5  20557863.304 3
  22936287.838    -8340404.878 7  -5617738.702 9
  23150215.659    11054747.106 8   3844596.690 7
  22618946.099   -12300404.567 8  -9908742.340 9
 94  3 15  2 29 30.0060000  0  7  5  4 24  7  9 13 12
  23770884.439    -8991082.262 7  -6993726.371 7
  22569921.429    -7697688.355 7  -6150910.786 9
  22575528.267    -9805888.757 7  -7627163.433 9
  25609102.577    33635754.552 5  20642931.337 3
  22947766.862    -8280083.792 7  -5570735.254 9
  23166997.471    11142932.783 8   3913312.814 7
  22622276.194   -12282913.001 8  -9895112.535 9
 94  3 15  2 30  0.0060000  0  7  5  4 24  7  9 13 12
  23763558.831    -9029567.727 7  -7023714.996 7
  22581004.276    -7639449.135 7  -6105529.564 9
  22573928.155    -9814287.084 7  -7633707.552 9
  25629869.650    33744897.446 5  20727977.747 3
  22959337.801    -8219269.651 7  -5523347.601 9
  23183812.740    11231294.852 8   3982166.384 6
  22625700.304   -12264901.552 8  -9881077.620 9
 94  3 15  2 30 30.0060000  0  7  5  4 24  7  9 13 12
  23756263.381    -9067912.140 7  -7053593.758 7
  22592180.869    -7580728.487 7  -6059773.219 9
  22572423.077    -9822207.098 7  -7639878.981 9
  25650627.640    33853993.555 5  20812987.708 3
  22970999.938    -8157994.627 7  -5475600.836 9
  23200657.179    11319819.904 8   4051146.933 7
  22629226.792   -12246380.544 8  -9866645.675 9
 94  3 15  2 31  0.0060000  0  7  5  4 24  7  9 13 12
  23748990.776    -9106132.337 7  -7083375.677 7
  22603444.161    -7521527.765 7  -6013642.765 9
  22571006.557    -9829641.906 7  -7645672.316 9
  25671371.299    33963015.756 5  20897940.071 3
  22982746.646    -8096261.191 7  -5427496.852 9
  23217535.225    11408506.509 8   4120253.387 6
  22632849.904   -12227347.564 8  -9851814.759 9
 94  3 15  2 31 30.0060000  0  7  5  4 24  7  9 13 12
  23741741.255    -9144233.352 7  -7113064.760 7
  22614803.447    -7461830.754 7  -5967125.605 9
  22569686.391    -9836578.794 7  -7651077.674 9
  25692109.623    34071985.139 5  20982851.250 3
  22994586.799    -8034040.212 7  -5379013.003 9
  23234446.038    11497372.889 8   4189499.920 6
  22636571.348   -12207780.975 8  -9836568.068 9
 94  3 15  2 32  0.0060000  0  7  5  4 24  7  9 13 12
  23734516.076    -9182201.192 7  -7142650.052 7
  22626264.243    -7401616.084 7  -5920205.067 9
  22568462.878    -9842997.584 7  -7656079.291 9
  25712841.770    34180939.767 5  21067750.949 3
  23006527.862    -7971292.657 7  -5330118.789 9
  23251392.856    11586441.155 8   4258903.771 6
  22640403.235   -12187655.632 8  -9820885.973 9
 94  3 15  2 32 30.0060000  0  7  5  4 24  7  9 13 12
  23727312.663    -9220058.897 7  -7172149.526 7
  22637822.382    -7340878.206 7  -5872876.842 9
  22567338.956    -9848917.600 7  -7660692.277 9
  25733578.924    34289887.594 5  21152645.360 3
  23018571.335    -7908002.713 7  -5280801.961 9
  23268380.895    11675705.646 8   4328460.526 6
  22644336.752   -12166973.543 8  -9804770.057 9
 94  3 15  2 33  0.0060000  0  7  5  4 24  7  9 13 12
  23720129.786    -9257803.784 7  -7201561.116 7
  22649480.051    -7279613.147 7  -5825137.821 9
  22566305.632    -9854349.062 7  -7664924.561 9
  25754301.208    34398839.606 5  21237543.014 3
  23030720.784    -7844151.431 7  -5231047.720 9
  23285406.768    11765170.829 8   4398173.667 6
  22648380.472   -12145727.232 8  -9788214.484 9
 94  3 15  2 33 30.0060000  0  7  5  4 24  7  9 13 12
  23712971.941    -9295431.202 7  -7230881.125 7
  22661234.943    -7217829.607 7  -5776994.796 9
  22565362.395    -9859310.378 7  -7668790.511 9
  25775035.964    34507792.302 5  21322441.251 3
  23042979.807    -7779737.140 7  -5180854.777 9
  23302465.978    11854825.870 8   4468034.741 6
  22652530.020   -12123923.807 8  -9771224.781 9
 94  3 15  2 34  0.0060000  0  7  5  4 24  7  9 13 12
  23705834.153    -9332933.978 7  -7260104.066 7
  22673095.543    -7155524.096 7  -5728445.020 9
  22564507.536    -9863787.090 7  -7672278.829 9
  25795773.987    34616732.833 5  21407329.932 2
  23055343.548    -7714768.556 7  -5130229.904 9
  23319563.382    11944668.819 8   4538042.232 6
  22656785.034   -12101562.114 8  -9753800.082 9
 94  3 15  2 34 30.0060000  0  7  5  4 24  7  9 13 12
  23698718.579    -9370310.490 7  -7289228.591 7
  22685050.276    -7092700.481 7  -5679491.542 9
  22563750.381    -9867785.016 7  -7675394.075 9
  25816495.342    34725641.321 5  21492193.729 2
  23067804.991    -7649274.221 7  -5079195.371 9
  23336691.185    12034689.297 8   4608188.072 6
  22661145.336   -12078649.288 8  -9735945.918 9
 94  3 15  2 35  0.0060000  0  7  5  4 24  7  9 13 12
  23691629.416    -9407554.382 7  -7318249.790 7
  22697102.353    -7029360.844 7  -5630135.993 9
  22563079.055    -9871297.691 7  -7678131.201 9
  25837212.560    34834508.345 5  21577025.166 2
  23080365.845    -7583272.961 7  -5027765.830 9
  23353858.320    12124885.408 8   4678470.744 6
  22665607.926   -12055184.201 8  -9717661.441 9
 94  3 15  2 35 30.0060000  0  7  5  4 24  7  9 13 12
  23684570.983    -9444668.236 7  -7347169.715 7
  22709254.800    -6965495.612 7  -5580370.896 9
  22562508.400    -9874302.860 7  -7680472.922 9
  25857915.957    34943345.035 5  21661832.970 2
  23093019.006    -7516780.353 7  -4975953.458 8
  23371052.797    12215259.134 8   4748891.811 6
  22670181.680   -12031161.541 8  -9698942.518 9
 94  3 15  2 36  0.0060000  0  7  5  4 24  7  9 13 12
  23677534.284    -9481640.172 8  -7375978.946 7
  22721509.506    -6901101.297 7  -5530193.461 9
  22562036.047    -9876779.768 7  -7682402.918 9
  25878626.220    35052155.496 5  21746620.345 2
  23105764.262    -7449812.645 7  -4923770.801 9
  23388286.096    12305808.646 8   4819449.894 6
  22674857.723   -12006579.872 8  -9679787.927 9
 94  3 15  2 36 30.0060000  0  7  5  4 24  7  9 13 12
  23670523.877    -9518462.616 8  -7404671.737 7
  22733860.026    -6836196.967 7  -5479618.656 9
  22561663.256    -9878738.650 7  -7683929.293 9
  25899333.904    35160932.258 5  21831381.449 2
  23118593.161    -7382371.459 7  -4871219.238 9
  23405546.048    12396518.449 8   4890132.861 6
  22679638.963   -11981451.604 8  -9660207.451 9
 94  3 15  2 37  0.0060000  0  7  5  4 24  7  9 13 12
  23663548.097    -9555137.547 8  -7433249.585 7
  22746305.940    -6770796.302 7  -5428657.096 9
  22561386.367    -9880193.105 7  -7685062.615 9
  25920016.646    35269677.602 5  21916118.078 2
  23131521.681    -7314441.962 7  -4818287.150 9
  23422839.276    12487378.006 8   4960932.517 6
  22684525.939   -11955784.294 8  -9640206.945 9
 94  3 15  2 37 30.0060000  0  7  5  4 24  7  9 13 12
  23656594.261    -9591668.470 7  -7461715.213 8
  22758840.113    -6704920.481 7  -5377325.259 9
  22561204.963    -9881147.932 7  -7685806.624 9
  25940711.109    35378384.953 5  22000825.122 2
  23144544.485    -7246010.191 7  -4764963.719 9
  23440151.511    12578373.352 8   5031837.995 6
  22689510.709   -11929588.729 8  -9619794.803 9
 94  3 15  2 38  0.0060000  0  7  5  4 24  7  9 13 12
  23649670.914    -9628057.887 8  -7490070.586 8
  22771463.894    -6638594.418 7  -5325642.622 9
  22561114.545    -9881623.887 7  -7686177.483 9
  25961387.555    35487041.505 5  22085492.574 2
  23157663.583    -7177055.928 7  -4711233.115 9
  23457493.725    12669494.182 8   5102841.224 6
  22694591.381   -11902872.282 8  -9598976.806 9
 94  3 15  2 38 30.0060000  0  7  5  4 24  7  9 13 12
  23642765.464    -9664336.816 7  -7518339.855 8
  22784167.089    -6571835.230 7  -5273622.464 9
  22561103.243    -9881665.820 7  -7686210.134 9
  25982047.333    35595631.054 4  22170107.799 2
  23170880.084    -7107592.939 7  -4657106.132 9
  23474853.507    12760719.092 8   5173925.567 6
  22699774.043   -11875653.239 8  -9577767.154 9
 94  3 15  2 39  0.0060000  0  8  5  4 24  7  9 20 13 12
  23635881.420    -9700537.223 8  -7546547.942 8
  22796949.670    -6504659.543 8  -5221277.756 9
  22561176.632    -9881295.028 7  -7685921.181 9
  26002701.804    35704137.244 4  22254658.100 2
  23184194.226    -7037641.260 7  -4602598.355 9
  26571567.137   -22502182.84815   -863111.874 2
  23492228.069    12852033.487 7   5245079.656 6
  22705046.044   -11847943.302 8  -9556174.987 9
 94  3 15  2 39 30.0060000  0  8  5  4 24  7  9 20 13 12
  23629006.489    -9736670.190 8  -7574703.475 8
  22809809.627    -6437077.971 8  -5168616.786 9
  22561327.338    -9880502.383 7  -7685303.512 9
  26023329.354    35812548.215 4  22339134.153 2
  23197593.390    -6967229.046 7  -4547731.695 9
  26559400.240   -22566108.872 5   -912924.340 2
  23509620.558    12943428.651 7   5316296.673 6
  22710410.290   -11819748.117 8  -9534204.719 9
 94  3 15  2 40  0.0060000  0  8  5  4 24  7  9 20 13 12
  23622133.507    -9772753.025 7  -7602819.952 8
  22822747.261    -6369096.429 8  -5115644.151 9
  22561555.810    -9879308.754 7  -7684373.393 9
  26043940.805    35920840.036 5  22423517.421 2
  23211069.931    -6896400.981 7  -4492540.987 9
  26547208.880   -22630178.170 5   -962848.363 2
  23527024.770    13034886.008 7   5387562.145 6
  22715865.613   -11791083.515 8  -9511868.663 9
 94  3 15  2 40 30.0060000  0  8  5  4 24  7  9 20 13 12
  23615276.684    -9808790.623 7  -7630901.183 8
  22835759.303    -6300713.293 8  -5062358.608 9
  22561857.161    -9877725.518 7  -7683139.692 9
  26064516.671    36028996.204 4  22507794.963 2
  23224624.657    -6825191.980 7  -4437053.492 9
  26534990.328   -22694401.208 5  -1012892.271 2
  23544438.514    13126391.659 7   5458865.247 6
  22721405.958   -11761960.588 8  -9489175.487 9
 94  3 15  2 41  0.0060000  0  8  5  4 24  7  9 20 13 12
  23608429.784    -9844788.442 7  -7658951.401 8
  22848844.764    -6231948.608 8  -5008775.698 9
  22562234.720    -9875733.462 7  -7681587.418 9
  26085066.574    36137022.659 4  22591971.422 2
  23238239.492    -6753619.481 7  -4381282.703 9
  26522740.359   -22758780.405 5  -1063057.764 2
  23561857.865    13217939.634 7   5530201.345 6
  22727037.889   -11732382.297 8  -9466127.447 9
 94  3 15  2 41 30.0060000  0  8  5  4 24  7  9 20 13 12
  23601592.388    -9880716.293 7  -7686947.103 8
  22862006.702    -6162791.029 8  -4954886.684 9
  22562695.591    -9873320.612 7  -7679707.271 9
  26105612.071    36244937.722 4  22676061.074 2
  23251932.302    -6681684.519 7  -4325229.513 9
  26510458.941   -22823302.567 5  -1113334.723 2
  23579291.396    13309539.664 7   5601577.988 6
  22732756.700   -11702336.175 8  -9442714.893 9
 94  3 15  2 42  0.0060000  0  8  5  4 24  7  9 20 13 12
  23594776.576    -9916531.933 7  -7714855.376 8
  22875248.145    -6093206.217 8  -4900664.742 9
  22563237.526    -9870475.106 7  -7677489.957 9
  26126131.845    36352775.428 4  22760090.459 2
  23265697.543    -6609351.634 7  -4268866.220 9
  26498156.538   -22887937.082 5  -1163699.125 2
  23596736.979    13401219.204 7   5673016.592 6
  22738567.817   -11671791.979 8  -9418914.209 9
 94  3 15  2 42 30.0060000  0  8  5  4 24  7  9 20 13 12
  23587985.827    -9952207.973 7  -7742654.865 8
  22888570.952    -6023182.592 8  -4846100.870 9
  22563864.602    -9867179.432 7  -7674921.880 9
  26146638.339    36460565.720 4  22844082.903 2
  23279540.609    -6536598.513 7  -4212175.510 9
  26485842.713   -22952663.834 5  -1214135.528 2
  23614198.810    13492994.646 7   5744529.936 6
  22744480.654   -11640730.443 8  -9394710.414 9
 94  3 15  2 43  0.0060000  0  8  5  4 24  7  9 20 13 12
  23581228.475    -9987740.830 7  -7770342.802 8
  22901975.902    -5952742.132 8  -4791212.207 9
  22564575.260    -9863437.527 7  -7672006.114 9
  26167137.338    36568296.687 4  22928029.118 2
  23293464.020    -6463424.611 7  -4155156.917 9
  26473502.266   -23017491.494 5  -1264650.534 2
  23631681.297    13584853.941 7   5816108.584 6
  22750485.886   -11609161.004 8  -9370110.862 9
 94  3 15  2 43 30.0060000  0  8  5  4 24  7  9 20 13 12
  23574493.758   -10023110.936 7  -7797903.892 8
  22915464.314    -5881868.054 8  -4735985.644 9
  22565370.759    -9859257.698 7  -7668749.072 9
  26187630.581    36675943.127 4  23011909.474 2
  23307475.870    -6389808.123 7  -4097793.417 8
  26461148.058   -23082415.907 5  -1315240.873 2
  23649174.697    13676798.028 7   5887753.333 6
  22756590.380   -11577080.004 8  -9345112.672 9
 94  3 15  2 44  0.0060000  0  8  5  4 24  7  9 20 13 12
  23567797.803   -10058303.040 7  -7825326.291 9
  22929035.949    -5810538.941 8  -4680404.503 9
  22566256.046    -9854610.941 7  -7665128.207 9
  26208090.936    36783518.028 4  23095734.049 2
  23321573.730    -6315717.284 7  -4040060.301 8
  26448782.309   -23147415.655 5  -1365889.977 2
  23666691.001    13768844.842 7   5959478.133 6
  22762795.155   -11544467.118 8  -9319700.031 9
 94  3 15  2 44 30.0060000  0  8  5  4 24  7  9 20 13 12
  23561135.006   -10093324.484 7  -7852615.703 9
  22942696.352    -5738759.388 8  -4624472.377 9
  22567230.521    -9849488.571 7  -7661136.731 9
  26228553.840    36891010.778 4  23179494.653 2
  23335761.349    -6241150.793 7  -3981956.548 8
  26436396.653   -23212487.314 5  -1416595.080 2
  23684228.890    13860994.054 7   6031282.713 6
  22769104.677   -11511319.783 7  -9293870.934 9
 94  3 15  2 45  0.0060000  0  8  5  4 24  7  9 20 13 12
  23554504.706   -10128168.843 7  -7879767.139 9
  22956443.935    -5666512.560 8  -4568176.152 9
  22568296.853    -9843871.174 7  -7656759.534 9
  26248994.379    36998424.333 4  23263193.557 2
  23350044.810    -6166092.783 7  -3923469.814 8
  26424010.578   -23277609.084 5  -1467339.273 2
  23701785.575    13953264.117 7   6103181.440 6
  22775516.458   -11477617.057 7  -9267609.092 9
 94  3 15  2 45 30.0060000  0  8  5  4 24  7  9 20 13 12
  23547906.963   -10162840.211 7  -7906783.761 9
  22970285.862    -5593766.192 8  -4511490.664 9
  22569466.104    -9837738.520 7  -7651980.822 9
  26269427.304    37105785.785 4  23346851.826 2
  23364421.807    -6090539.235 7  -3864596.933 8
  26411609.483   -23342758.655 5  -1518105.139 2
  23719373.050    14045673.683 7   6175188.902 6
  22782038.383   -11443337.712 7  -9240897.909 9
 94  3 15  2 46  0.0060000  0  8  5  4 24  7  9 20 13 12
  23541339.770   -10197332.549 8  -7933660.902 9
  22984227.710    -5520508.297 8  -4454406.579 9
  22570734.706    -9831072.141 7  -7646786.237 9
  26289851.235    37213127.986 4  23430495.130 2
  23378892.280    -6014491.212 7  -3805338.752 8
  26399209.228   -23407919.694 5  -1568879.951 2
  23736983.548    14138235.717 7   6247315.168 6
  22788674.679   -11408466.277 7  -9213725.364 9
 94  3 15  2 46 30.0070000  0  8  5  4 24  7  9 20 13 12
  23534812.029   -10231650.393 8  -7960402.056 9
  22998267.141    -5446737.764 8  -4396923.048 9
  22572105.926    -9823865.629 7  -7641170.750 9
  26310282.001    37320460.782 4  23514131.076 2
  23393458.805    -5937946.689 7  -3745693.684 8
  26386809.452   -23473086.095 5  -1619658.885 2
  23754629.692    14230958.148 7   6319566.419 6
  22795425.945   -11372994.296 7  -9186084.855 9
 94  3 15  2 47  0.0070000  0  8  5  4 24  7  9 20 13 12
  23528314.747   -10265788.898 8  -7987003.477 9
  23012397.379    -5372468.001 8  -4339050.504 9
  22573582.884    -9816104.804 7  -7635123.339 9
  26330704.493    37427794.326 5  23597767.641 2
  23408117.997    -5860913.267 7  -3685667.660 8
  26374403.860   -23538253.004 5  -1670438.259 2
  23772301.078    14323832.054 7   6391935.689 6
  22802288.494   -11336924.365 7  -9157978.426 9
 94  3 15  2 47 30.0070000  0  8  5  4 24  7  9 20 13 12
  23521852.300   -10299750.524 8  -8013467.065 9
  23026620.253    -5297723.427 8  -4280807.975 9
  22575161.621    -9807800.708 7  -7628652.603 9
  26351119.520    37535130.267 4  23681406.024 2
  23422872.073    -5783396.120 7  -3625264.689 8
  26362008.281   -23603437.113 5  -1721231.025 2
  23789999.116    14416842.383 7   6464411.272 6
  22809267.093   -11300271.018 7  -9129417.358 9
 94  3 15  2 48  0.0070000  0  8  5  4 24  7  9 20 13 12
  23515423.191   -10333523.015 8  -8039783.288 9
  23040926.828    -5222547.627 8  -4222229.424 9
  22576841.328    -9798970.429 7  -7621771.853 9
  26371554.663    37642449.266 4  23765031.241 2
  23437713.389    -5705398.105 7  -3564487.040 8
  26349598.882   -23668652.719 5  -1772048.309 2
  23807720.778    14509971.558 7   6536979.460 6
  22816345.912   -11263049.521 7  -9100413.606 9
 94  3 15  2 48 30.0070000  0  8  5  4 24  7  9 20 13 12
  23509032.665   -10367120.815 8  -8065963.361 9
  23055309.431    -5146963.171 8  -4163332.452 9
  22578622.605    -9789628.822 7  -7614492.656 9
  26391958.447    37749733.044 4  23848629.021 2
  23452643.293    -5626927.435 7  -3503341.083 8
  26337170.206   -23733909.598 5  -1822897.745 2
  23825467.412    14603205.920 7   6609629.613 6
  22823535.445   -11225271.325 7  -9070976.046 9
 94  3 15  2 49  0.0070000  0  8  5  4 24  7  9 20 13 12
  23502674.697   -10400529.985 8  -8091996.457 9
  23069772.978    -5070966.839 8  -4104114.526 9
  22580492.950    -9779789.471 7  -7606825.609 9
  26412371.646    37856979.462 4  23932197.677 2
  23467667.062    -5547985.652 7  -3441828.030 8
  26324745.548   -23799209.485 5  -1873780.708 2
  23843224.119    14696540.581 7   6682357.926 6
  22830830.235   -11186938.795 7  -9041106.551 9
 94  3 15  2 49 30.0070000  0  8  5  4 24  7  9 20 13 12
  23496351.354   -10433756.279 8  -8117887.069 9
  23084311.264    -4994554.936 8  -4044572.791 9
  22582455.302    -9769483.111 7  -7598794.671 9
  26432770.364    37964160.068 4  24015715.067 2
  23482777.951    -5468587.175 7  -3379959.092 8
  26312311.026   -23864564.435 5  -1924706.568 2
  23861003.851    14789959.906 7   6755152.218 6
  22838227.044   -11148065.249 7  -9010815.470 9
 94  3 15  2 50  0.0070000  0  8  5  4 24  7  9 20 13 12
  23490059.940   -10466824.410 8  -8143654.428 9
  23098934.031    -4917724.357 8  -3984704.796 9
  22584500.815    -9758722.510 7  -7590409.762 9
  26453151.514    38071257.086 4  24099167.296 2
  23497968.705    -5388758.050 7  -3317754.605 8
  26299869.189   -23929988.137 5  -1975685.984 2
  23878794.614    14883446.736 7   6827999.098 6
  22845726.293   -11108665.712 7  -8980114.541 9
 94  3 15  2 50 30.0070000  0  8  5  4 24  7  9 20 13 12
  23483775.271   -10499839.870 8  -8169380.742 9
  23113622.272    -4840549.719 8  -3924568.707 9
  22586617.680    -9747609.543 7  -7581750.312 9
  26473486.886    38178166.053 4  24182472.994 2
  23513216.959    -5308607.497 7  -3255299.632 8
  26287378.367   -23995581.813 4  -2026797.850 2
  23896576.145    14976896.594 7   6900817.172 6
  22853303.547   -11068842.610 7  -8949083.543 9
 94  3 15  2 51  0.0070000  0  8  5  4 24  7  9 20 13 12
  23477513.566   -10532750.312 8  -8195025.224 9
  23128376.768    -4762999.569 8  -3864140.025 9
  22588805.565    -9736105.876 7  -7572786.384 9
  26493802.142    38284927.858 4  24265664.044 2
  23528539.861    -5228106.060 7  -3192571.245 8
  26274870.785   -24061312.019 4  -2078016.109 2
  23914359.533    15070339.206 7   6973629.608 6
  22860968.911   -11028563.823 7  -8917697.475 9
 94  3 15  2 51 30.0070000  0  8  5  4 24  7  9 20 13 12
  23471312.179   -10565346.840 8  -8220425.101 9
  23143243.326    -4684879.241 8  -3803267.036 9
  22591110.280    -9723993.345 7  -7563348.038 9
  26514131.789    38391760.053 4  24348909.925 2
  23543965.262    -5147050.305 7  -3129410.933 8
  26262378.164   -24126963.891 4  -2129173.281 2
  23932178.867    15163985.835 7   7046601.004 5
  22868762.645   -10987616.057 7  -8885790.114 9
 94  3 15  2 52  0.0070000  0  8  5  4 24  7  9 20 13 12
  23465143.649   -10597754.803 8  -8245678.035 9
  23158187.890    -4606331.314 8  -3742060.847 9
  22593510.388    -9711385.258 7  -7553523.531 9
  26534457.477    38498542.091 4  24432116.742 2
  23559467.110    -5065571.554 7  -3065921.010 8
  26249872.052   -24192656.970 5  -2180362.658 2
  23950013.880    15257713.617 7   7119635.662 5
  22876658.669   -10946120.047 7  -8853455.566 9
 94  3 15  2 52 30.0070000  0  8  5  4 24  7  9 20 13 12
  23459009.656   -10630007.695 8  -8270810.145 9
  23173208.182    -4527400.889 8  -3680556.622 9
  22595998.036    -9698315.580 7  -7543339.369 9
  26554756.934    38605239.523 4  24515257.613 2
  23575049.513    -4983692.362 7  -3002119.038 8
  26237358.864   -24258418.428 5  -2231605.251 2
  23967856.478    15351491.800 7   7192709.573 5
  22884653.084   -10904104.571 7  -8820716.229 9
 94  3 15  2 53  0.0070000  0  8  5  4 24  7  9 20 13 12
  23452893.650   -10662122.677 8  -8295834.793 9
  23188296.796    -4448115.400 8  -3618775.711 9
  22598571.574    -9684784.195 7  -7532795.401 9
  26575050.096    38711855.730 4  24598335.201 2
  23590703.806    -4901424.451 7  -2938014.178 8
  26224838.302   -24324253.584 5  -2282905.327 2
  23985714.395    15445311.769 7   7265816.055 5
  22892745.952   -10861576.156 7  -8787577.201 9
 94  3 15  2 53 30.0070000  0  8  5  4 24  7  9 20 13 12
  23446810.171   -10694113.764 8  -8320762.891 9
  23203453.134    -4368461.258 8  -3556707.541 9
  22601234.571    -9670791.805 7  -7521892.233 9
  26595317.535    38818388.616 4  24681347.874 2
  23606432.357    -4818774.384 7  -2873611.541 8
  26212289.709   -24390161.317 5  -2334261.933 2
  24003575.580    15539171.081 7   7338953.190 5
  22900935.442   -10818535.275 7  -8754038.859 9
 94  3 15  2 54  0.0070000  0  8  5  4 24  7  9 20 13 12
  23440742.971   -10725994.646 8  -8345605.118 9
  23218681.421    -4288436.342 8  -3494350.459 9
  22603980.280    -9656349.734 7  -7510638.655 9
  26615571.183    38924825.256 4  24764285.556 2
  23622232.858    -4735739.995 7  -2808909.411 8
  26199739.348   -24456154.240 5  -2385684.896 2
  24021442.102    15633053.654 7   7412108.456 5
  22909219.607   -10774996.077 7  -8720112.211 9
 94  3 15  2 54 30.0070000  0  8  5  4 24  7  9 20 13 12
  23434699.185   -10757751.876 8  -8370350.990 9
  23233985.077    -4208027.252 8  -3431694.007 9
  22606812.240    -9641471.589 7  -7499045.276 9
  26635820.965    39031180.950 4  24847160.150 2
  23638110.467    -4652310.412 7  -2743899.344 8
  26187154.300   -24522229.708 5  -2437172.207 2
  24039308.563    15726958.461 7   7485281.053 5
  22917603.453   -10730957.585 7  -8685796.499 9
 94  3 15  2 55  0.0070000  0  8  5  4 24  7  9 20 13 12
  23428680.282   -10789369.864 8  -8394988.380 9
  23249356.785    -4127244.273 8  -3368746.233 9
  22609724.573    -9626176.051 7  -7487126.678 9
  26656036.630    39137450.427 4  24929967.521 2
  23654059.545    -4568509.617 7  -2678600.051 8
  26174571.141   -24588398.060 5  -2488731.919 2
  24057177.782    15820871.487 7   7558460.030 5
  22926076.128   -10686431.938 7  -8651101.209 9
 94  3 15  2 55 30.0070000  0  8  5  4 24  7  9 20 13 12
  23422693.697   -10820831.872 8  -8419504.195 9
  23264802.033    -4046080.067 8  -3305501.389 9
  22612712.215    -9610472.154 7  -7474889.843 9
  26676239.194    39243626.996 4  25012702.545 2
  23670071.640    -4484329.611 7  -2613005.215 8
  26161965.948   -24654648.769 5  -2540355.716 2
  24075054.287    15914800.200 7   7631651.264 5
  22934644.256   -10641409.953 7  -8616019.132 9
 94  3 15  2 56  0.0070000  0  8  5  4 24  7  9 20 13 12
  23416745.365   -10852109.265 8  -8443876.167 9
  23280314.943    -3964545.106 8  -3241967.631 9
  22615779.871    -9594361.367 7  -7462335.970 9
  26696429.796    39349713.127 4  25095367.072 2
  23686166.478    -4399760.310 7  -2547107.067 8
  26149342.317   -24720970.289 5  -2592034.773 2
  24092931.960    16008752.556 7   7704860.921 5
  22943304.661   -10595881.857 7  -8580542.679 9
 94  3 15  2 56 30.0070000  0  8  5  4 24  7  9 20 13 12
  23410832.288   -10883175.605 8  -8468083.679 9
  23295903.911    -3882641.538 8  -3178146.679 9
  22618927.123    -9577822.143 7  -7449448.247 9
  26716593.357    39455714.248 4  25177965.367 2
  23702332.577    -4314808.179 7  -2480910.621 7
  26136713.290   -24787345.847 5  -2643755.894 2
  24110815.330    16102742.050 7   7778099.481 5
  22952068.044   -10549832.335 7  -8544659.951 9
 94  3 15  2 57  0.0070000  0  8  5  4 24  7  9 20 13 12
  23404960.133   -10914022.126 8  -8492119.925 9
  23311559.403    -3800361.564 8  -3114032.411 9
  22622159.875    -9560815.400 7  -7436196.234 9
  26736756.559    39561634.322 4  25260500.464 2
  23718573.383    -4229464.938 7  -2414409.413 7
  26124069.513   -24853755.201 5  -2695503.389 2
  24128714.439    16196785.109 7   7851379.809 5
  22960932.097   -10503243.137 7  -8508356.690 9
 94  3 15  2 57 30.0070000  0  8  5  4 24  7  9 20 13 12
  23399130.669   -10944647.405 8  -8515983.754 9
  23327292.781    -3717691.186 8  -3049613.918 9
  22625491.918    -9543317.989 7  -7422561.885 9
  26756908.458    39667481.982 3  25342979.182 2
  23734892.256    -4143705.984 7  -2347584.271 7
  26111437.908   -24920183.849 5  -2747265.846 2
  24146618.644    16290892.953 7   7924710.619 5
  22969903.866   -10456101.607 8  -8471623.031 9
 94  3 15  2 58  0.0070000  0  8  5  4 24  7  9 20 13 12
  23393349.381   -10975043.222 8  -8539668.782 9
  23343097.660    -3634630.098 8  -2984890.985 9
  22628916.417    -9525312.718 7  -7408531.783 9
  26777022.973    39773268.002 3  25425409.881 2
  23751295.011    -4057523.726 7  -2280429.249 7
  26098789.514   -24986627.674 5  -2799040.196 2
  24164542.066    16385066.126 7   7998092.303 5
  22978981.282   -10408405.282 7  -8434457.055 9
 94  3 15  2 58 30.0070000  0  8  5  4 24  7  9 20 13 12
  23387606.587   -11005222.275 8  -8563184.903 9
  23358980.784    -3551170.329 8  -2919857.383 9
  22632442.816    -9506787.749 7  -7394096.721 9
  26797149.120    39878991.868 3  25507792.160 2
  23767776.581    -3970912.319 7  -2212939.862 7
  26086137.313   -25053078.554 5  -2850820.057 2
  24182478.319    16479309.257 7   8071528.552 5
  22988162.846   -10360147.953 7  -8396853.951 9
 94  3 15  2 59  0.0070000  0  8  5  4 24  7  9 20 13 12
  23381901.237   -11035202.822 8  -8586546.351 9
  23374935.949    -3467312.178 8  -2854513.363 9
  22636061.880    -9487769.804 7  -7379277.552 9
  26817240.071    39984641.492 3  25590116.501 2
  23784340.054    -3883878.816 7  -2145121.559 7
  26073495.725   -25119545.363 5  -2902612.346 2
  24200419.308    16573610.180 7   8145009.784 5
  22997452.005   -10311340.401 7  -8358822.080 9
 94  3 15  2 59 30.0070000  0  8  5  4 24  7  9 20 13 12
  23376232.221   -11064987.968 8  -8609755.550 9
  23390966.931    -3383069.649 8  -2788869.823 9
  22639770.493    -9468277.343 7  -7364088.603 9
  26837328.984    40090217.012 3  25672383.136 2
  23800978.505    -3796427.357 7  -2076977.581 7
  26060850.629   -25186030.455 5  -2954418.843 2
  24218376.367    16667962.883 7   8218531.400 5
  23006841.325   -10261986.818 7  -8320364.769 9
 94  3 15  3  0  0.0070000  0  8  5  4 24  7  9 20 13 12
  23370601.669   -11094581.225 8  -8632815.196 9
  23407074.330    -3298442.856 8  -2722926.852 9
  22643572.131    -9448311.997 7  -7348531.165 9
  26857430.008    40195715.338 3  25754589.637 2
  23817696.462    -3708577.264 7  -2008522.950 7
  26048190.153   -25252533.523 5  -3006239.348 2
  24236338.222    16762364.118 7   8292090.837 5
  23016333.054   -10212088.981 7  -8281483.334 9
 94  3 15  3  0 30.0070000  0  7  5  4 24  9 20 13 12
  23365004.244   -11123994.374 8  -8655734.509 9
  23423249.392    -3213428.962 8  -2656682.242 9
  22647455.553    -9427885.943 7  -7332614.750 9
  23834485.019    -3620359.285 7  -1939781.685 7
  26035533.995   -25319063.672 5  -3058080.947 2
  24254306.763    16856801.251 7   8365678.220 5
  23025936.366   -10161658.137 8  -8242186.573 9
 94  3 15  3  1  0.0070000  0  7  5  4 24  9 20 13 12
  23359444.623   -11153204.633 8  -8678495.739 9
  23439503.959    -3128017.515 8  -2590127.858 9
  22651432.450    -9406994.294 7  -7316335.514 9
  23851343.459    -3531757.456 7  -1870741.289 7
  26022867.943   -25385607.771 5  -3109933.443 2
  24272289.903    16951284.068 7   8439301.221 5
  23035637.320   -10110683.191 7  -8202465.822 9
 94  3 15  3  1 30.0070000  0  7  5  4 24  9 20 13 12
  23353926.973   -11182203.268 8  -8701092.058 9
  23455831.376    -3042220.576 8  -2523273.092 9
  22655500.663    -9385625.678 7  -7299684.660 9
  23868276.786    -3442771.225 7  -1801401.401 7
  26010203.661   -25452168.356 5  -3161798.793 2
  24290276.521    17045806.574 7   8512955.127 5
  23045437.655   -10059168.345 7  -8162324.400 9
 94  3 15  3  2  0.0070000  0  7  5  4 24  9 20 13 12
  23348450.784   -11210976.216 8  -8723512.510 9
  23472231.462    -2956026.555 8  -2456108.894 9
  22659658.905    -9363770.582 7  -7282654.668 9
  23885283.922    -3353407.768 7  -1731767.537 7
  25997533.832   -25518743.968 5  -3213675.810 2
  24308269.615    17140366.727 7   8586638.393 5
  23055345.856   -10007114.476 7  -8121762.923 9
 94  3 15  3  2 30.0070000  0  7  5  4 24  9 20 13 12
  23343019.924   -11239525.681 8  -8745758.824 9
  23488704.908    -2869453.647 8  -2388649.484 9
  22663909.122    -9341444.888 7  -7265258.012 9
  23902360.430    -3263664.021 7  -1661837.370 7
  25984861.005   -25585340.350 5  -3265569.063 2
  24326270.623    17234955.223 7   8660343.722 5
  23065353.048    -9954529.703 7  -8080787.803 9
 94  3 15  3  3  0.0070000  0  7  5  4 24  9 20 13 12
  23337631.094   -11267844.289 8  -8767825.254 9
  23505249.884    -2782521.413 8  -2320910.052 9
  22668246.100    -9318642.071 7  -7247489.559 9
  23919510.717    -3173521.974 7  -1591596.805 7
  25972182.782   -25651950.554 5  -3317473.071 2
  24344273.340    17329575.505 7   8734073.843 5
  23075458.003    -9901409.013 7  -8039395.043 9
 94  3 15  3  3 30.0070000  0  7  5  4 24  9 20 13 12
  23332289.722   -11295909.463 8  -8789694.195 9
  23521864.442    -2695210.377 8  -2252875.461 9
  22672682.009    -9295324.422 7  -7229319.956 9
  23936738.021    -3082987.558 7  -1521050.514 7
  25959507.947   -25718553.788 5  -3369371.643 2
  24362292.486    17424244.894 7   8807842.212 5
  23085675.110    -9847734.241 7  -7997570.545 9
 94  3 15  3  4  0.0070000  0  8  5  4 24  9 20 13 12 16
  23326999.105   -11323718.239 8  -8811363.349 9
  23538550.561    -2607517.205 8  -2184543.115 9
  22677213.911    -9271505.547 7  -7210759.765 9
  23954044.110    -2992064.771 7  -1450201.607 7
  25946836.049   -25785141.453 5  -3421258.068 2
  24380317.867    17518968.723 7   8881653.010 5
  23095993.067    -9793498.499 7  -7955308.915 9
  27017189.499   -10880967.46914   -894096.828 2
 94  3 15  3  4 30.0070000  0  8  5  4 24  9 20 13 12 16
  23321752.257   -11351276.814 8  -8832837.541 9
  23555309.708    -2519455.282 8  -2115923.397 9
  22681841.208    -9247199.366 7  -7191819.876 9
  23971421.460    -2900753.046 7  -1379049.610 7
  25934172.396   -25851714.707 5  -3473133.272 2
  24398351.043    17613742.320 7   8955502.583 5
  23106420.808    -9738705.401 7  -7912613.010 9
  27005466.804   -10942554.047 4   -942086.312 2
 94  3 15  3  5  0.0070000  0  8  5  4 24  9 20 13 12 16
  23316559.132   -11378576.812 8  -8854110.241 9
  23572139.008    -2431020.592 8  -2047013.249 9
  22686565.038    -9222395.120 7  -7172491.871 9
  23988867.882    -2809053.029 7  -1307595.069 7
  25921505.235   -25918264.701 5  -3524990.337 2
  24416398.969    17708570.624 7   9029394.773 5
  23116952.367    -9683348.636 7  -7869477.852 9
  26993725.673   -11004300.303 4   -990200.213 2
 94  3 15  3  5 30.0070000  0  8  5  4 24  9 20 13 12 16
  23311414.813   -11405614.958 8  -8875178.911 9
  23589039.718    -2342204.138 8  -1977805.612 9
  22691373.529    -9197112.134 7  -7152790.832 9
  24006393.150    -2716976.354 7  -1235847.017 7
  25908844.520   -25984796.623 5  -3576833.350 2
  24434451.121    17803445.166 7   9103323.025 5
  23127596.858    -9627435.820 7  -7825909.441 9
  26981942.390   -11066220.183 4  -1038449.382 2
 94  3 15  3  6  0.0070000  0  8  5  4 24  9 20 13 12 16
  23306312.945   -11432414.397 8  -8896061.553 9
  23606006.562    -2253026.115 8  -1908316.221 9
  22696270.429    -9171384.741 7  -7132743.479 9
  24023981.584    -2624523.137 7  -1163805.548 7
  25896183.745   -26051327.843 5  -3628675.777 3
  24452507.951    17898345.078 7   9177271.024 5
  23138335.873    -9570986.854 7  -7781923.216 9
  26970135.064   -11128333.795 4  -1086849.495 2
 94  3 15  3  6 30.0070000  0  8  5  4 24  9 20 13 12 16
  23301255.327   -11458986.994 8  -8916767.479 9
  23623044.187    -2163492.978 8  -1838550.157 9
  22701253.639    -9145192.265 7  -7112333.760 9
  24041647.993    -2531691.498 7  -1091469.225 7
  25883522.850   -26117858.009 5  -3680517.412 3
  24470571.376    17993267.418 7   9251236.489 5
  23149181.195    -9514003.424 7  -7737520.570 9
  26958271.707   -11190616.277 4  -1135381.277 2
 94  3 15  3  7  0.0070000  0  8  5  4 24  9 20 13 12 16
  23296242.827   -11485332.294 8  -8937296.245 9
  23640152.113    -2073599.384 8  -1768503.155 9
  22706329.275    -9118524.150 7  -7091553.383 9
  24059389.351    -2438476.771 7  -1018834.385 7
  25870865.732   -26184381.777 5  -3732354.041 3
  24488640.107    18088213.940 7   9325220.814 5
  23160127.997    -9456482.645 7  -7692699.167 9
  26946384.306   -11253045.407 4  -1184027.288 2
 94  3 15  3  7 30.0070000  0  8  5  4 24  9 20 13 12 16
  23291273.737   -11511448.905 8  -8957646.846 9
  23657328.542    -1983336.610 7  -1698168.529 9
  22711495.899    -9091370.418 7  -7070394.633 9
  24077201.071    -2344877.179 7   -945899.634 7
  25858206.516   -26250894.602 5  -3784182.146 3
  24506714.804    18183185.722 7   9399224.796 4
  23171172.651    -9398422.720 7  -7647457.677 9
  26934484.225   -11315608.686 4  -1232777.782 2
 94  3 15  3  8  0.0070000  0  8  5  4 24  9 20 13 12 16
  23286341.671   -11537353.266 8  -8977832.020 9
  23674569.307    -1892729.545 7  -1627565.607 9
  22716756.087    -9063730.784 7  -7048857.223 9
  24095082.611    -2250903.104 7   -872673.100 7
  25845551.557   -26317403.677 5  -3836007.332 3
  24524788.902    18278171.918 7   9473240.040 4
  23182323.282    -9339833.482 7  -7601803.721 9
  26922543.641   -11378299.340 4  -1281627.594 2
 94  3 15  3  8 30.0070000  0  8  5  4 24  9 20 13 12 16
  23281457.842   -11563033.537 8  -8997842.606 9
  23691877.075    -1801782.262 7  -1556697.573 9
  22722105.464    -9035609.386 7  -7026944.431 9
  24113033.584    -2156564.635 7   -799162.619 7
  25832892.341   -26383910.505 5  -3887830.766 3
  24542862.430    18373167.924 7   9547262.923 4
  23193571.914    -9280718.868 7  -7555740.380 9
  26910598.021   -11441108.955 4  -1330570.066 2
 94  3 15  3  9  0.0070000  0  8  5  4 24  9 20 13 12 16
  23276616.584   -11588465.545 8  -9017659.739 9
  23709243.782    -1710496.368 7  -1485565.707 9
  22727545.408    -9007025.583 7  -7004671.316 9
  24131054.469    -2061882.113 7   -725384.037 7
  25820236.212   -26450419.098 5  -3939655.577 3
  24560943.962    18468165.862 7   9621287.297 4
  23204920.918    -9221085.538 7  -7509272.852 9
  26898615.826   -11504045.459 4  -1379611.414 2
 94  3 15  3  9 30.0070000  0  8  5  4 24  9 20 13 12 16
  23271827.819   -11613631.622 8  -9037269.641 9
  23726683.159    -1618877.181 7  -1414174.120 9
  22733070.223    -8977986.707 7  -6982043.592 9
  24149129.975    -1966872.842 7   -651350.835 7
  25807586.680   -26516925.177 6  -3991478.397 3
  24579021.837    18563166.856 7   9695314.066 4
  23216367.353    -9160931.918 7  -7462399.901 9
  26886612.915   -11567123.643 4  -1428763.211 2
 94  3 15  3 10  0.0070000  0  8  5  4 24  9 20 13 12 16
  23267094.216   -11638518.864 8  -9056662.286 9
  23744178.657    -1526931.100 7  -1342527.820 9
  22738683.477    -8948497.695 7  -6959065.139 9
  24167271.166    -1871543.148 7   -577067.968 7
  25794928.543   -26583424.170 6  -4043295.756 3
  24597099.292    18658171.751 7   9769343.846 4
  23227915.029    -9100255.974 7  -7415119.952 9
  26874582.873   -11630350.237 4  -1478030.639 2
 94  3 15  3 10 30.0070000  0  8  5  4 24  9 20 13 12 16
  23262409.629   -11663119.533 8  -9075831.615 9
  23761737.951    -1434650.181 8  -1270620.586 9
  22744382.202    -8918558.468 7  -6935735.846 9
  24185472.256    -1775896.535 7   -502538.157 7
  25782273.404   -26649911.361 6  -4095103.883 3
  24615180.945    18753182.071 7   9843377.882 4
  23239557.499    -9039055.732 7  -7367431.443 9
  26862524.891   -11693729.197 4  -1527416.756 2
 94  3 15  3 11  0.0070000  0  8  5  4 24  9 20 13 12 16
  23257783.412   -11687440.420 8  -9094782.944 9
  23779361.251    -1342052.173 7  -1198466.294 9
  22750161.301    -8888166.316 7  -6912053.626 9
  24203730.936    -1679947.023 7   -427772.315 7
  25769629.567   -26716385.501 6  -4146901.836 3
  24633255.552    18848195.601 7   9917414.418 4
  23251305.526    -8977332.826 7  -7319335.669 9
  26850436.989   -11757256.162 4  -1576918.177 2
 94  3 15  3 11 30.0070000  0  8  5  4 24  9 20 13 12 16
  23253205.311   -11711496.148 8  -9113527.637 9
  23797039.622    -1249137.848 8  -1126065.504 9
  22756032.736    -8857312.715 8  -6888011.834 9
  24222054.131    -1583667.612 7   -352749.409 7
  25756980.813   -26782836.786 6  -4198682.011 3
  24651342.391    18943218.663 7   9991458.384 4
  23263151.465    -8915079.927 7  -7270826.923 9
  26838321.117   -11820913.621 4  -1626521.316 2
 94  3 15  3 12  0.0080000  0  8  5  4 24  9 20 13 12 16
  23248670.620   -11735312.961 8  -9132086.180 9
  23814782.929    -1155909.535 7  -1053420.056 9
  22761991.171    -8826007.117 7  -6863617.846 9
  24240438.154    -1487047.607 6   -277461.086 7
  25744339.165   -26849272.705 6  -4250450.208 3
  24669424.343    19038245.652 7  10065505.394 4
  23275097.295    -8852303.469 7  -7221910.199 9
  26826183.210   -11884684.434 4  -1676212.794 2
 94  3 15  3 12 30.0080000  0  8  5  4 24  9 20 13 12 16
  23244182.757   -11758909.591 8  -9150473.170 9
  23832578.159    -1062392.556 7   -980549.698 8
  22768029.171    -8794277.013 7  -6838893.095 9
  24258883.604    -1390114.218 6   -201928.617 6
  25731699.165   -26915707.289 6  -4302217.403 3
  24687504.916    19133248.157 7  10139533.308 4
  23287138.160    -8789028.683 7  -7172605.184 8
  26814033.971   -11948561.899 4  -1725987.399 2
 94  3 15  3 13  0.0080000  0  8  5  4 24  9 20 13 12 16
  23239731.349   -11782298.860 8  -9168698.582 9
  23850426.873     -968590.299 7   -907457.049 8
  22774147.396    -8762129.383 7  -6813843.012 9
  24277392.131    -1292875.394 6   -126158.121 6
  25719053.080   -26982154.339 6  -4353994.288 3
  24705575.656    19228214.220 7  10213532.830 4
  23299271.810    -8725268.369 7  -7122921.843 8
  26801853.973   -12012549.795 4  -1775847.989 2
 94  3 15  3 13 30.0080000  0  8  5  4 24  9 20 13 12 16
  23235324.550   -11805461.761 8  -9186747.535 9
  23868340.042     -874474.069 7   -834119.661 8
  22780347.554    -8729551.821 7  -6788457.822 9
  24295953.062    -1195309.941 6    -50133.051 6
  25706409.063   -27048598.680 6  -4405769.010 3
  24723641.509    19323155.762 7  10287513.307 4
  23311499.625    -8661010.098 7  -7072850.426 8
  26789662.013   -12076640.042 4  -1825788.360 2
 94  3 15  3 14  0.0080000  0  8  5  4 24  9 20 13 12 16
  23230964.818   -11828370.123 8  -9204598.171 9
  23886310.741     -780018.512 7   -760517.930 8
  22786632.882    -8696517.554 7  -6762716.819 9
  24314581.745    -1097419.879 6     26144.911 6
  25693772.691   -27115023.539 6  -4457528.555 3
  24741710.121    19418086.023 7  10361484.940 4
  23323824.183    -8596240.184 7  -7022380.361 8
  26777443.282   -12140825.641 4  -1875803.049 2
 94  3 15  3 14 30.0080000  0  8  5  4 24  9 20 13 12 16
  23226656.290   -11851005.098 8  -9222235.811 9
  23904350.483     -685227.075 7   -686654.457 8
  22793009.708    -8663007.422 7  -6736605.007 9
  24333271.946     -999203.400 6    102677.217 6
  25681133.381   -27181420.206 6  -4509266.210 3
  24759770.128    19513010.320 7  10435451.918 4
  23336247.852    -8530952.662 7  -6971506.975 8
  26765210.730   -12205117.479 4  -1925900.491 2
 94  3 15  3 15  0.0080000  0  8  5  4 24  9 20 13 12 16
  23222400.467   -11873370.409 8  -9239663.303 9
  23922448.983     -590114.787 7   -612540.986 8
  22799476.201    -8629028.071 7  -6710127.567 9
  24352025.194     -900669.015 6    179457.265 6
  25668503.065   -27247785.806 6  -4560979.596 3
  24777831.964    19607928.238 7  10509413.955 4
  23348771.802    -8465147.606 7  -6920230.293 8
  26752953.835   -12269531.241 4  -1976092.959 2
 94  3 15  3 15 30.0080000  0  8  5  4 24  9 20 13 12 16
  23218194.079   -11895479.200 8  -9256890.921 9
  23940603.605     -494704.581 7   -538195.355 8
  22806027.656    -8594597.594 7  -6683298.615 9
  24370832.164     -801826.161 6    256477.660 6
  25655886.120   -27314120.924 6  -4612669.242 3
  24795893.470    19702835.208 7  10583367.438 4
  23361390.606    -8398829.226 7  -6868553.646 8
  26740672.538   -12334071.293 4  -2026383.834 2
 94  3 15  3 16  0.0080000  0  8  5  4 24  9 20 13 12 16
  23214031.850   -11917343.967 8  -9273928.380 9
  23958814.438     -399010.275 7   -463628.356 8
  22812663.142    -8559724.112 7  -6656124.467 9
  24389700.831     -702674.498 6    333738.691 6
  25643258.861   -27380424.405 6  -4664334.244 3
  24813947.362    19797729.348 7  10657310.941 4
  23374105.044    -8331999.162 7  -6816478.273 8
  26728371.184   -12398728.095 4  -2076765.702 2
 94  3 15  3 16 30.0080000  0  8  5  4 24  9 20 13 12 16
  23209921.096   -11938947.564 8  -9290762.328 9
  23977076.146     -303040.403 7   -388846.625 8
  22819384.909    -8524415.474 7  -6628611.232 9
  24408625.620     -603221.285 6    411234.692 6
  25630661.522   -27446685.086 6  -4715965.899 3
  24832005.450    19892618.557 7  10731250.581 4
  23386924.769    -8264649.228 7  -6763997.788 8
  26716050.673   -12463480.977 4  -2127222.398 2
 94  3 15  3 17  0.0080000  0  8  5  4 24  9 20 13 12 16
  23205863.765   -11960274.241 8  -9307380.502 9
  23995396.193     -206773.816 7   -313833.693 8
  22826185.221    -8488670.699 7  -6600758.143 9
  24427609.108     -503458.652 6    488971.807 6
  25618057.888   -27512893.065 6  -4767556.515 4
  24850063.359    19987508.955 7  10805191.154 4
  23399837.639    -8196772.783 7  -6711107.065 8
  26703707.768   -12528306.782 5  -2177735.946 2
 94  3 15  3 17 30.0080000  0  8  5  4 24  9 20 13 12 16
  23201863.544   -11981296.725 8  -9323761.647 9
  24013774.280     -110188.122 7   -238572.117 8
  22833073.012    -8452468.148 7  -6572548.348 9
  24446657.261     -403363.084 6    566968.348 6
  25605470.532   -27579033.416 6  -4819094.401 4
  24868124.715    20082412.073 7  10879141.634 4
  23412859.605    -8128358.275 7  -6657797.066 8
  26691365.192   -12593185.685 5  -2228290.854 2
 94  3 15  3 18  0.0080000  0  8  5  4 24  9 20 13 12 16
  23197925.740   -12001984.714 8  -9339882.131 9
  24032217.992      -13267.396 7   -163049.463 8
  22840054.399    -8415786.728 7  -6543965.405 9
  24465765.133     -302942.321 6    645218.279 6
  25592901.553   -27645093.980 6  -4870570.109 4
  24886186.222    20177336.725 7  10953108.900 4
  23425984.069    -8059396.605 7  -6604060.703 8
  26679013.803   -12658111.034 5  -2278882.000 2
 94  3 15  3 18 30.0080000  0  8  5  4 24  9 20 13 12 16
  23194056.139   -12022329.327 8  -9355735.058 9
  24050728.347       83982.512 7    -87270.296 8
  22847119.608    -8378637.348 7  -6515017.827 9
  24484932.034     -202213.775 6    723708.053 6
  25580343.307   -27711081.322 6  -4921988.774 4
  24904252.195    20272272.929 7  11027085.183 4
  23439207.644    -7989897.652 7  -6549905.663 8
  26666639.689   -12723095.440 5  -2329519.143 2
 94  3 15  3 19  0.0080000  0  8  5  4 24  9 20 13 12 16
  23190247.905   -12042347.525 8  -9371333.635 9
  24069294.014      181562.839 7    -11233.689 8
  22854281.500    -8341022.745 7  -6485707.730 9
  24504163.870     -101164.542 6    802447.700 6
  25567800.410   -27776999.470 6  -4973353.542 4
  24922316.399    20367213.317 7  11101064.711 4
  23452533.569    -7919868.768 7  -6495337.724 8
  26654265.756   -12788143.636 5  -2380205.955 2
 94  3 15  3 19 30.0080000  0  8  5  4 24  9 20 13 12 16
  23186496.902   -12062044.675 8  -9386682.035 9
  24087923.178      279464.502 7     65053.346 7
  22861527.154    -8302938.832 7  -6456031.929 9
  24523452.187         193.648 6    881428.127 6
  25555267.017   -27842844.824 6  -5024661.567 4
  24940386.480    20462157.758 7  11175047.411 4
  23465957.616    -7849309.795 7  -6440356.695 8
  26641878.122   -12853253.628 5  -2430940.965 2
 94  3 15  3 20  0.0080000  0  8  5  4 24  9 20 13 12 16
  23182811.973   -12081419.510 8  -9401779.314 9
  24106615.268      377684.362 7    141588.329 7
  22868863.525    -8264379.896 7  -6425985.997 9
  24542799.803      101864.003 6    960651.780 6
  25542755.059   -27908612.525 6  -5075909.078 4
  24958452.693    20557108.035 7  11249034.616 4
  23479488.269    -7778219.123 7  -6384961.366 8
  26629471.720   -12918413.264 5  -2481714.656 2
 94  3 15  3 20 30.0080000  0  8  5  4 24  9 20 13 12 16
  23179185.054   -12100474.543 8  -9416627.369 9
  24125367.825      476223.148 7    218371.814 7
  22876296.460    -8225343.419 7  -6395567.960 9
  24562209.506      203871.134 6   1040137.847 6
  25530261.388   -27974296.220 6  -5127091.170 4
  24976523.463    20652066.751 7  11323028.431 4
  23493118.722    -7706593.915 7  -6329149.518 8
  26617068.947   -12983605.200 5  -2532513.511 2
 94  3 15  3 21  0.0080000  0  8  5  4 24  9 20 13 12 16
  23175618.063   -12119215.328 8  -9431230.570 9
  24144178.033      575074.408 7    295398.753 7
  22883814.715    -8185813.422 7  -6364765.336 9
  24581681.236      306217.074 6   1119887.926 6
  25517772.903   -28039889.492 6  -5178202.797 4
  24994597.290    20747037.122 7  11397031.334 4
  23506853.294    -7634431.317 7  -6272918.930 8
  26604663.235   -13048823.039 5  -2583332.556 2
 94  3 15  3 21 30.0080000  0  8  5  4 24  9 20 13 12 16
  23172115.618   -12137624.676 8  -9445575.522 9
  24163045.771      674235.237 7    372666.943 7
  22891434.510    -8145786.294 7  -6333575.366 9
  24601228.424      408891.803 6   1199894.184 6
  25505303.036   -28105384.826 6  -5229238.078 4
  25012670.489    20842023.120 7  11471046.387 4
  23520686.647    -7561727.163 7  -6216266.362 8
  26592236.028   -13114066.522 5  -2634171.573 2
 94  3 15  3 22  0.0080000  0  8  5  4 24  9 20 13 12 16
  23168677.268   -12155697.748 8  -9459658.425 9
  24181972.479      773703.066 7    450174.345 7
  22899142.953    -8105272.931 7  -6302006.486 9
  24620824.868      511891.243 6   1280153.478 6
  25492859.071   -28170781.924 6  -5280196.838 4
  25030749.982    20937021.824 7  11545071.360 4
  23534623.099    -7488484.461 7  -6159194.138 8
  26579813.318   -13179336.242 5  -2685031.036 2
 94  3 15  3 22 30.0080000  0  8  5  4 24  9 20 13 12 16
  23165301.036   -12173433.873 8  -9473478.769 9
  24200960.614      873475.888 7    527919.415 7
  22906944.482    -8064276.602 7  -6270061.282 9
  24640484.358      615198.463 6   1360652.609 6
  25480443.616   -28236082.073 6  -5331080.020 4
  25048831.395    21032028.382 6  11619102.440 3
  23548662.920    -7414708.268 7  -6101706.181 8
  26567401.671   -13244643.362 5  -2735919.660 2
 94  3 15  3 23  0.0080000  0  8  5  4 24  9 20 13 12 16
  23161993.336   -12190831.067 8  -9487035.013 9
  24220005.439      973556.317 7    605904.178 7
  22914832.352    -8022817.734 7  -6237755.644 9
  24660198.380      718798.103 6   1441379.581 6
  25468039.493   -28301288.773 6  -5381890.400 4
  25066906.152    21127036.095 6  11693134.438 3
  23562801.642    -7340405.492 7  -6043807.923 8
  26554956.566   -13310004.706 5  -2786850.542 2
 94  3 15  3 23 30.0080000  0  8  5  4 24  9 20 13 12 16
  23158747.753   -12207882.001 8  -9500321.443 9
  24239109.714     1073946.254 7    684130.098 7
  22922808.690    -7980909.638 7  -6205099.994 9
  24679969.363      822687.753 6   1522332.553 6
  25455640.227   -28366405.003 6  -5432630.277 4
  25084985.706    21222038.438 6  11767162.236 3
  23577040.495    -7265582.764 7  -5985504.516 8
  26542507.145   -13375412.777 5  -2837817.834 2
 94  3 15  3 24  0.0080000  0  8  5  4 24  9 20 13 12 16
  23155564.826   -12224604.433 8  -9513351.919 9
  24258269.479     1174632.335 7    762586.791 7
  22930868.520    -7938554.104 7  -6172095.666 9
  24699794.668      926867.882 6   1603511.858 6
  25443270.191   -28431434.264 6  -5483302.397 4
  25103064.480    21317028.242 6  11841180.275 3
  23591374.681    -7190247.625 7  -5926801.823 7
  26530060.002   -13440856.291 5  -2888812.766 2
 94  3 15  3 24 30.0080000  0  8  5  4 24  9 20 13 12 16
  23152445.635   -12240986.623 8  -9526117.230 9
  24277488.335     1275621.220 7    841279.440 7
  22939015.560    -7895736.667 8  -6138731.425 9
  24719678.762     1031360.413 6   1684934.618 6
  25430906.480   -28496357.056 6  -5533891.549 4
  25121139.747    21412022.012 6  11915201.418 3
  23605813.855    -7114383.902 7  -5867687.213 7
  26517605.004   -13506313.466 5  -2939818.325 2
 94  3 15  3 25  0.0080000  0  8  5  4 24  9 20 13 12 16
  23149390.840   -12257035.973 8  -9538623.213 9
  24296760.882     1376901.796 7    920199.383 7
  22947250.799    -7852463.423 7  -6105011.991 9
  24739621.586     1136159.418 6   1766596.161 6
  25418578.894   -28561170.348 6  -5584395.377 4
  25139213.844    21507019.364 6  11989225.300 3
  23620349.712    -7037992.158 7  -5808161.189 7
  26505149.497   -13571760.105 5  -2990815.674 2
 94  3 15  3 25 30.0080000  0  8  5  4 24  9 20 13 12 16
  23146402.779   -12272767.087 8  -9550881.209 9
  24316083.586     1478446.728 7    999325.302 7
  22955572.558    -7808734.498 7  -6070937.503 9
  24759610.398     1241238.891 6   1848476.264 6
  25406259.433   -28625883.079 6  -5634820.838 4
  25157293.038    21602007.909 6  12063242.370 3
  23634983.571    -6961084.975 7  -5748233.521 7
  26492694.289   -13637194.495 5  -3041803.468 2
 94  3 15  3 26  0.0080000  0  8  5  4 24  9 20 13 12 16
  23143463.584   -12288191.381 8  -9562900.122 9
  24335454.765     1580239.942 7   1078644.702 7
  22963977.059    -7764567.183 7  -6036521.391 9
  24779654.282     1346576.062 6   1930557.181 6
  25393961.436   -28690505.310 6  -5685175.772 4
  25175363.808    21696974.056 6  12137241.965 3
  23649717.022    -6883676.466 7  -5687915.213 7
  26480231.167   -13702640.997 5  -3092800.702 3
 94  3 15  3 26 30.0080000  0  8  5  4 24  9 20 13 12 16
  23140591.962   -12303285.070 8  -9574661.427 9
  24354870.974     1682289.123 7   1158163.542 7
  22972463.944    -7719966.648 7  -6001767.704 9
  24799753.658     1452163.219 6   2012832.870 6
  25381686.434   -28755036.702 6  -5735459.934 4
  25193432.659    21791914.856 6  12211221.829 3
  23664540.410    -6805769.993 7  -5627208.867 7
  26467783.545   -13768107.594 5  -3143813.624 2
 94  3 15  3 27  0.0080000  0  8  5  4 24  9 20 13 12 16
  23137780.388   -12318059.708 8  -9586174.118 9
  24374341.265     1784585.484 7   1237875.010 7
  22981029.644    -7674945.087 7  -5966685.964 9
  24819885.951     1557978.442 6   2095286.281 6
  25369416.079   -28819488.507 6  -5785682.060 4
  25211489.429    21886815.834 6  12285170.644 3
  23679459.192    -6727380.539 7  -5566126.184 7
  26455313.797   -13833611.496 5  -3194855.613 2
 94  3 15  3 27 30.0080000  0  8  5  4 24  9 20 13 12 16
  23135030.781   -12332520.779 8  -9597442.473 9
  24393852.597     1887115.232 7   1317768.320 7
  22989673.230    -7629517.613 7  -5931287.908 9
  24840065.610     1664017.573 6   2177914.157 6
  25357172.285   -28883872.405 6  -5835851.299 4
  25229539.843    21981661.579 6  12359076.417 3
  23694464.104    -6648523.948 7  -5504679.498 7
  26442847.767   -13899171.266 5  -3245941.113 2
 94  3 15  3 28  0.0080000  0  8  5  4 24  9 20 13 12 16
  23132341.643   -12346643.901 8  -9608447.490 9
  24413408.299     1989891.312 7   1397853.585 7
  22998398.900    -7583660.719 7  -5895555.264 9
  24860295.246     1770316.408 6   2260744.427 6
  25344934.877   -28948163.585 6  -5885948.286 4
  25247581.443    22076473.712 6  12432956.014 3
  23709560.992    -6569179.166 7  -5442852.399 7
  26430368.217   -13964746.231 5  -3297038.440 2
 94  3 15  3 28 30.0080000  0  8  5  4 24  9 20 13 12 16
  23129719.478   -12360415.505 8  -9619178.601 9
  24433014.036     2092918.667 7   1478134.634 7
  23007213.727    -7537350.391 7  -5859469.281 9
  24880576.925     1876887.459 6   2343786.779 6
  25332718.454   -29012345.245 6  -5935959.931 5
  25265618.456    22171265.451 6  12506819.732 3
  23724754.894    -6489333.248 7  -5380634.811 7
  26417890.435   -14030310.583 5  -3348127.545 2
 94  3 15  3 29  0.0080000  0  8  5  4 24  9 20 13 12 16
  23127166.176   -12373839.455 8  -9629638.816 9
  24452666.511     2196197.762 7   1558611.863 7
  23016111.807    -7490578.987 7  -5823024.033 9
  24900908.520     1983731.698 6   2427042.019 6
  25320531.291   -29076409.697 6  -5985880.242 5
  25283653.401    22266041.489 6  12580671.171 3
  23740046.258    -6408982.565 7  -5318023.888 7
  26405416.251   -14095849.403 5  -3399196.717 3
 94  3 15  3 29 30.0080000  0  8  5  4 24  9 20 13 12 16
  23124679.248   -12386898.872 8  -9639814.978 9
  24472371.120     2299739.455 7   1639293.703 7
  23025102.523    -7443345.230 7  -5786218.488 9
  24921287.991     2090851.356 6   2510511.872 6
  25308356.210   -29140355.033 6  -6035707.751 5
  25301686.547    22360800.380 6  12654509.271 3
  23755431.847    -6328128.792 7  -5255020.956 7
  26392952.559   -14161350.942 5  -3450236.850 3
 94  3 15  3 30  0.0080000  0  8  5  4 24  9 20 13 12 16
  23122264.000   -12399588.365 8  -9649702.888 9
  24492123.156     2403544.024 7   1720180.378 7
  23034178.650    -7395656.327 7  -5749058.300 9
  24941723.764     2198235.495 6   2594187.817 6
  25296216.114   -29204183.722 6  -6085444.377 5
  25319712.678    22455536.104 6  12728329.335 3
  23770914.179    -6246778.722 7  -5191631.298 7
  26380490.516   -14226843.019 5  -3501269.639 3
 94  3 15  3 30 30.0080000  0  8  5  4 24  9 20 13 12 16
  23119920.012   -12411908.573 8  -9659303.037 9
  24511930.324     2507621.890 7   1801280.028 7
  23043334.881    -7347537.935 7  -5711563.440 9
  24962203.546     2305868.506 6   2678057.678 5
  25284094.695   -29267902.019 6  -6135094.952 5
  25337734.581    22550239.271 6  12802124.009 3
  23786483.570    -6164942.481 7  -5127862.815 7
  26368016.812   -14292355.064 5  -3552317.950 3
 94  3 15  3 31  0.0080000  0  8  5  4 24  9 20 13 12 16
  23117645.157   -12423872.716 8  -9668625.724 9
  24531785.069     2611967.340 7   1882588.175 7
  23052566.570    -7299022.954 7  -5673759.544 9
  24982730.276     2413736.505 6   2762110.664 5
  25271975.465   -29331520.716 6  -6184667.935 5
  25355748.121    22644895.299 6  12875881.971 3
  23802148.356    -6082635.406 7  -5063727.412 7
  26355552.701   -14357898.945 5  -3603391.042 3
 94  3 15  3 31 30.0080000  0  8  5  4 24  9 20 13 12 16
  23115436.376   -12435480.183 8  -9677670.514 9
  24551686.671     2716562.087 7   1964090.566 7
  23061874.377    -7250118.401 7  -5635652.099 9
  25003302.304     2521841.481 6   2846348.266 5
  25259900.305   -29395035.725 6  -6234160.137 5
  25373750.148    22739505.416 6  12949604.122 3
  23817898.342    -5999857.077 7  -4999224.846 7
  26343078.216   -14423481.903 5  -3654494.666 3
 94  3 15  3 32  0.0080000  0  8  5  4 24  9 20 13 12 16
  23113291.541   -12446741.049 8  -9686445.190 9
  24571634.561     2821387.676 7   2045772.854 7
  23071254.193    -7200818.811 7  -5597236.824 9
  25023923.079     2630188.178 6   2930774.275 5
  25247829.042   -29458438.788 6  -6283565.085 5
  25391745.760    22834074.433 6  13023294.274 3
  23833741.144    -5916603.247 7  -4934351.729 7
  26330582.267   -14489091.926 5  -3705619.312 3
 94  3 15  3 32 30.0080000  0  8  5  4 24  9 20 13 12 16
  23111218.746   -12457652.350 8  -9694947.500 9
  24591629.129     2926458.074 7   2127645.895 7
  23080713.425    -7151100.971 7  -5558495.626 9
  25044590.051     2738797.079 6   3015404.591 5
  25235788.147   -29521703.463 6  -6332862.219 5
  25409738.704    22928625.462 6  13096970.421 2
  23849681.019    -5832851.661 7  -4869090.766 7
  26318102.057   -14554676.698 5  -3756724.272 3
 94  3 15  3 33  0.0080000  0  8  5  4 24  9 20 13 12 16
  23109208.608   -12468206.259 8  -9703171.359 9
  24611668.996     3031764.052 7   2209702.468 7
  23090260.195    -7100931.584 8  -5519402.638 9
  25065308.018     2847676.431 6   3100245.584 5
  25223773.845   -29584812.685 6  -6382038.241 4
  25427730.568    23023172.032 6  13170643.050 2
  23865716.618    -5748589.608 7  -4803432.062 6
  26305630.631   -14620211.295 5  -3807790.226 2
 94  3 15  3 33 30.0080000  0  8  5  4 24  9 20 13 12 16
  23107265.713   -12478409.129 8  -9711121.675 9
  24631752.842     3137293.638 7   2291933.259 6
  23099897.294    -7050298.764 8  -5479948.533 9
  25086072.873     2956822.254 6   3185294.212 4
  25211800.704   -29647767.198 6  -6431093.731 4
  25445721.743    23117710.282 6  13244309.190 2
  23881845.392    -5663821.994 7  -4737379.438 6
  26293171.826   -14685692.033 5  -3858814.142 2
 94  3 15  3 34  0.0080000  0  8  5  4 24  9 20 13 12 16
  23105390.901   -12488268.655 8  -9718804.452 9
  24651880.009     3243057.887 7   2374346.938 6
  23109618.064    -6999214.941 8  -5440142.975 9
  25106893.279     3066211.405 6   3270532.486 4
  25199847.529   -29710576.509 6  -6480036.046 4
  25463708.002    23212227.277 6  13317958.693 2
  23898070.910    -5578562.604 7  -4670943.590 6
  26280719.796   -14751120.151 5  -3909797.101 2
 94  3 15  3 34 30.0080000  0  8  5  4 24  9 20 13 12 16
  23103578.775   -12497784.555 8  -9726219.330 9
  24672051.094     3349060.498 7   2456946.457 5
  23119420.948    -6947699.741 8  -5400001.153 9
  25127751.879     3175813.357 6   3355936.669 4
  25187923.134   -29773251.282 6  -6528873.413 3
  25481688.144    23306708.837 6  13391580.818 2
  23914383.337    -5492826.441 7  -4604136.098 5
  26268280.538   -14816509.185 5  -3960749.514 2
 94  3 15  3 35  0.0080000  0  8  5  4 24  9 20 13 12 16
  23101840.009   -12506933.456 8  -9733348.368 9
  24692269.787     3455312.822 7   2539740.460 6
  23129303.217    -6895756.105 8  -5359525.607 9
  25148645.075     3285616.521 6   3441497.549 4
  25176022.212   -29835788.894 6  -6577604.020 4
  25499655.936    23401154.547 6  13465174.887 2
  23930790.409    -5406615.173 7  -4536958.508 6
  26255839.990   -14881858.737 5  -4011671.191 2
 94  3 15  3 35 30.0080000  0  8  5  4 24  9 20 13 12 16
  23100167.347   -12515715.959 8  -9740191.811 9
  24712538.755     3561834.732 7   2622744.589 5
  23139263.941    -6843419.730 8  -5318743.978 9
  25169577.754     3395605.694 6   3527203.436 4
  25164147.073   -29898196.257 6  -6626233.056 4
  25517622.557    23495554.124 6  13538733.033 2
  23947285.020    -5319939.900 7  -4469419.304 5
  26243409.606   -14947173.327 5  -4062565.621 2
 94  3 15  3 36  0.0080000  0  8  5  4 24  9 20 13 12 16
  23098567.984   -12524117.445 8  -9746738.525 9
  24732865.583     3668639.647 7   2705969.099 5
  23149297.425    -6790700.751 8  -5277664.341 9
  25190541.941     3505774.112 6   3613048.813 3
  25152291.121   -29960471.653 6  -6674759.401 3
  25535576.648    23589905.992 6  13612253.910 2
  23963864.472    -5232803.219 7  -4401520.703 5
  26230994.780   -15012452.362 5  -4113432.455 2
 94  3 15  3 36 30.0080000  0  8  5  4 24  9 20 13 12 16
  23097047.047   -12532109.716 8  -9752966.307 9
  24753238.400     3775726.221 7   2789413.147 5
  23159406.576    -6737577.016 8  -5236269.259 9
  25211541.533     3616148.853 6   3699055.069 3
  25140467.517   -30022594.339 6  -6723166.706 3
  25553525.942    23684227.799 6  13685751.340 2
  23980540.247    -5145188.639 7  -4333249.648 5
  26218578.786   -15077682.794 5  -4164261.350 2
 94  3 15  3 37  0.0080000  0  8  5  4 24  9 20 13 12 16
  23095607.803   -12539680.320 8  -9758865.326 9
  24773671.084     3883085.635 7   2873069.978 5
  23169596.732    -6684032.414 8  -5194546.034 8
  25232590.351     3726749.973 6   3785237.871 3
  25128685.193   -30084549.180 6  -6771443.031 3
  25571467.771    23778530.939 6  13759234.452 2
  23997301.734    -5057085.700 7  -4264597.872 5
  26206174.303   -15142853.000 5  -4215043.174 2
 94  3 15  3 37 30.0080000  0  8  5  4 24  9 20 13 12 16
  23094246.926   -12546816.199 8  -9764425.724 9
  24794151.766     3990706.098 7   2956930.095 5
  23179868.611    -6630049.974 8  -5152481.789 9
  25253685.937     3837600.971 6   3871615.287 4
  25116933.659   -30146322.137 7  -6819577.781 4
  25589415.446    23872826.595 6  13832711.600 2
  24014164.760    -4968484.558 7  -4195558.016 5
  26193791.795   -15207946.920 5  -4265765.673 2
 94  3 15  3 38  0.0080000  0  8  5  4 24  9 20 13 12 16
  23092973.437   -12553516.253 8  -9769646.543 9
  24814670.401     4098547.209 7   3040962.141 6
  23190226.740    -6575604.178 8  -5110056.469 9
  25274831.768     3948706.595 6   3958191.089 4
  25105209.765   -30207912.536 7  -6867570.279 5
  25607353.798    23967111.870 6  13906180.655 2
  24031119.882    -4879389.072 7  -4126132.964 6
  26181418.881   -15272969.028 5  -4316432.223 3
 94  3 15  3 38 30.0080000  0  8  5  4 24  9 20 13 12 16
  23091777.685   -12559801.386 8  -9774544.045 9
  24835224.562     4206566.577 7   3125133.064 6
  23200675.077    -6520704.726 8  -5067277.689 9
  25296014.713     4060056.652 6   4044957.354 4
  25093516.600   -30269326.372 7  -6915425.198 5
  25625292.629    24061377.811 6  13979634.652 2
  24048165.631    -4789809.621 7  -4056330.805 6
  26169057.209   -15337923.704 5  -4367046.223 3
 94  3 15  3 39  0.0080000  0  8  5  4 24  9 20 13 12 16
  23090655.292   -12565697.509 8  -9779138.417 9
  24855814.368     4314747.338 7   3209429.775 6
  23211204.478    -6465377.285 8  -5024165.373 9
  25317250.962     4171626.016 6   4131894.509 4
  25081867.265   -30330578.148 7  -6963153.827 5
  25643227.083    24155606.734 6  14053059.784 2
  24065301.798    -4699764.998 7  -3986166.173 6
  26156706.359   -15402811.190 5  -4417607.860 3
 94  3 15  3 39 30.0080000  0  8  5  4 24  9 20 13 12 16
  23089609.886   -12571210.879 8  -9783434.542 9
  24876429.956     4423081.584 7   3293846.081 6
  23221811.285    -6409627.815 8  -4980724.230 9
  25338519.888     4283413.519 6   4219001.612 4
  25070243.382   -30391668.777 7  -7010756.906 5
  25661147.477    24249794.376 6  14126452.753 2
  24082522.537    -4609260.845 7  -3915643.467 6
  26144370.259   -15467634.608 5  -4468119.566 3
 94  3 15  3 40  0.0080000  0  8  5  4 24  9 20 13 12 16
  23088627.076   -12576359.237 8  -9787446.232 9
  24897074.834     4531571.482 7   3378383.660 6
  23232496.547    -6353478.227 8  -4936971.276 9
  25359830.934     4395406.274 6   4306268.689 4
  25058653.435   -30452602.212 7  -7058237.477 5
  25679065.563    24343933.238 6  14199807.702 2
  24099832.313    -4518305.776 7  -3844769.411 6
  26132050.798   -15532397.854 5  -4518584.425 3
 94  3 15  3 40 30.0090000  0  8  5  4 24  9 20 13 12 16
  23087723.352   -12581114.043 8  -9791151.279 9
  24917756.196     4640261.944 7   3463077.533 6
  23243259.816    -6296925.895 8  -4892904.531 9
  25381182.603     4507613.188 6   4393702.636 4
  25047082.136   -30513358.606 7  -7105580.098 5
  25696971.327    24438045.267 6  14273141.777 2
  24117228.400    -4426879.458 7  -3773528.117 6
  26119747.495   -15597067.146 5  -4568976.027 3
 94  3 15  3 41  0.0090000  0  8  5  4 24  9 20 13 12 16
  23086901.920   -12585436.265 8  -9794519.235 9
  24938484.986     4749196.640 7   3547961.708 6
  23254102.620    -6239945.685 8  -4848504.360 9
  25402580.949     4620044.178 6   4481311.192 4
  25035562.821   -30573908.311 7  -7152761.666 5
  25714880.479    24532146.383 6  14346467.317 2
  24134718.442    -4334966.692 7  -3701907.792 6
  26107454.475   -15661610.310 5  -4619269.368 3
 94  3 15  3 41 30.0090000  0  8  5  4 24  9 20 13 12 16
  23086161.523   -12589318.193 8  -9797544.090 9
  24959266.749     4858386.884 7   3633045.037 6
  23265027.656    -6182536.308 8  -4803769.755 9
  25424020.547     4732694.161 6   4569090.402 4
  25024076.123   -30634250.530 7  -7199781.528 6
  25732783.725    24626239.740 6  14419786.828 2
  24152300.520    -4242566.271 7  -3629907.458 6
  26095199.799   -15726031.122 5  -4669467.341 3
 94  3 15  3 42  0.0090000  0  8  5  4 24  9 20 13 12 16
  23085510.883   -12592736.177 8  -9800207.458 9
  24980096.809     4967864.892 7   3718352.578 6
  23276035.046    -6124686.971 8  -4758692.362 9
  25445497.319     4845564.582 6   4657041.359 5
  25012640.150   -30694369.543 7  -7246627.495 6
  25750690.928    24720337.528 6  14493109.776 2
  24169977.693    -4149667.359 7  -3557518.721 6
  26082976.091   -15790308.580 5  -4719553.650 3
 94  3 15  3 42 30.0090000  0  8  5  4 24  9 20 13 12 16
  23084945.295   -12595700.632 8  -9802517.418 9
  25000977.983     5077602.580 7   3803862.465 6
  23287125.389    -6066403.546 8  -4713276.686 9
  25467010.066     4958622.831 6   4745138.657 5
  25001240.391   -30754286.527 7  -7293316.027 6
  25768589.437    24814415.263 6  14566417.110 2
  24187748.220    -4056295.555 7  -3484761.455 6
  26070758.529   -15854473.721 5  -4769552.428 3
 94  3 15  3 43  0.0090000  0  8  5  4 24  9 20 13 12 16
  23084462.119   -12598247.401 8  -9804501.899 9
  25021904.546     5187567.521 7   3889549.450 6
  23298295.086    -6007711.782 8  -4667542.827 9
  25488557.019     5071859.082 6   4833374.691 4
  24989872.891   -30814016.662 7  -7339858.958 6
  25786492.922    24908454.776 6  14639694.605 2
  24205603.919    -3962470.925 7  -3411651.365 6
  26058564.861   -15918551.367 5  -4819483.002 3
 94  3 15  3 43 30.0090000  0  8  5  4 24  9 20 13 12 16
  23084051.014   -12600407.024 8  -9806184.729 9
  25042864.146     5297717.836 7   3975380.829 6
  23309537.273    -5948640.075 8  -4621512.934 9
  25510128.915     5185250.352 6   4921731.495 4
  24978543.944   -30873578.286 7  -7386270.612 6
  25804374.583    25002434.291 6  14712925.410 2
  24223536.665    -3868216.637 7  -3338206.493 6
  26046385.762   -15982568.462 5  -4869366.456 3
 94  3 15  3 44  0.0090000  0  8  5  4 24  9 20 13 12 16
  23083711.889   -12602186.214 8  -9807571.086 9
  25063859.541     5408038.069 7   4061344.680 6
  23320849.732    -5889192.640 8  -4575190.230 9
  25531739.335     5298793.679 6   5010206.833 4
  24967236.582   -30932979.258 6  -7432557.021 6
  25822240.565    25096342.760 6  14786100.868 2
  24241554.491    -3773545.096 7  -3264436.448 6
  26034210.501   -16046529.531 5  -4919206.184 3
 94  3 15  3 44 30.0090000  0  8  5  4 24  9 20 13 12 16
  23083445.103   -12603589.983 8  -9808664.921 9
  25084885.035     5518519.497 7   4147434.098 6
  23332232.881    -5829368.422 8  -4528573.942 9
  25553378.564     5412489.554 6   5098800.993 4
  24955966.274   -30992205.688 7  -7478707.450 6
  25840100.401    25190190.692 6  14859229.111 2
  24259651.283    -3678447.433 7  -3190334.384 6
  26022048.820   -16110413.616 5  -4968985.943 3
 94  3 15  3 45  0.0090000  0  8  5  4 24  9 20 13 12 16
  23083252.097   -12604609.165 9  -9809459.089 9
  25105938.890     5629172.624 7   4233657.310 6
  23343687.621    -5769167.584 8  -4481664.201 9
  25575048.852     5526351.429 6   5187524.527 4
  24944734.040   -31051240.737 7  -7524708.743 6
  25857950.583    25283992.014 6  14932321.055 2
  24277833.815    -3582911.348 7  -3115890.682 6
  26009923.265   -16174201.122 5  -5018690.440 3
 94  3 15  3 45 30.0090000  0  8  5  4 24  9 20 13 12 16
  23083136.437   -12605223.773 9  -9809937.981 9
  25127033.517     5740004.982 7   4320020.200 6
  23355219.768    -5708570.390 8  -4434445.576 9
  25596742.014     5640384.047 6   5276381.139 4
  24933537.781   -31110076.016 7  -7570554.372 6
  25875794.081    25377751.911 6  15005380.731 2
  24296093.305    -3486933.171 7  -3041102.510 6
  25997798.009   -16237881.217 5  -5068311.270 3
 94  3 15  3 46  0.0090000  0  8  5  4 24  9 20 13 12 16
  23083100.492   -12605418.341 9  -9810089.598 9
  25148158.362     5851031.600 7   4406534.446 5
  23366829.441    -5647562.407 8  -4386906.893 9
  25618478.376     5754593.917 6   5365375.799 4
  24922379.446   -31168699.670 7  -7616235.122 6
  25893631.732    25471479.122 6  15078414.934 2
  24314442.672    -3390505.819 7  -2965964.310 6
  25985704.381   -16301438.238 5  -5117836.184 3
 94  3 15  3 46 30.0090000  0  8  5  4 24  9 20 13 12 16
  23083141.354   -12605193.114 8  -9809914.072 9
  25169324.219     5962248.691 7   4493197.129 5
  23378518.978    -5586145.046 8  -4339049.190 9
  25640247.476     5868974.022 6   5454503.153 4
  24911264.850   -31227108.088 7  -7661748.139 6
  25911456.672    25565174.113 6  15151424.021 2
  24332881.407    -3293630.360 7  -2890476.938 6
  25973636.656   -16364878.721 5  -5167270.280 3
 94  3 15  3 47  0.0090000  0  8  5  4 24  9 20 13 12 16
  23083269.335   -12604515.904 8  -9809386.376 9
  25190525.752     6073669.285 7   4580018.361 5
  23390282.265    -5524298.157 8  -4290856.814 9
  25662047.364     5983548.128 6   5543781.637 4
  24900190.877   -31285288.681 7  -7707083.654 6
  25929285.449    25658846.337 6  15224415.341 2
  24351398.927    -3196299.531 7  -2814634.760 6
  25961584.039   -16428193.739 5  -5216606.611 3
 94  3 15  3 47 30.0090000  0  8  5  4 24  9 20 13 12 16
  23083493.250   -12603349.514 8  -9808477.486 9
  25211775.761     6185326.895 7   4667024.296 5
  23402141.005    -5461996.680 8  -4242310.184 9
  25683893.990     6098337.971 6   5633228.271 4
  24889166.908   -31343215.102 7  -7752221.083 6
  25947112.338    25752519.008 6  15297407.045 2
  24370011.242    -3098491.269 7  -2738420.509 6
  25949565.240   -16491346.654 5  -5265816.648 3
 94  3 15  3 48  0.0090000  0  8  5  4 24  9 20 13 12 16
  23083807.463   -12601685.526 8  -9807180.865 9
  25233068.040     6297230.037 7   4754221.562 5
  23414083.178    -5399246.110 8  -4193413.622 9
  25705778.180     6213335.070 6   5722836.373 4
  24878195.014   -31400877.247 7  -7797152.607 6
  25964933.351    25846199.085 6  15370404.530 2
  24388712.955    -3000200.677 7  -2661830.458 6
  25937581.426   -16554323.692 5  -5314889.644 3
 94  3 15  3 48 30.0090000  0  8  5  4 24  9 20 13 12 16
  23084223.844   -12599501.396 8  -9805478.942 9
  25254408.827     6409383.913 7   4841614.183 5
  23426107.823    -5336054.597 8  -4144173.486 9
  25727699.814     6328552.929 6   5812616.535 4
  24867277.742   -31458257.921 7  -7841864.797 6
  25982768.184    25939900.738 6  15443418.770 2
  24407512.521    -2901415.254 7  -2584854.815 6
  25925633.258   -16617095.972 5  -5363803.057 3
 94  3 15  3 49  0.0090000  0  8  5  4 24  9 20 13 12 16
  23084737.389   -12596800.055 8  -9803373.996 9
  25275796.710     6521781.499 7   4929196.702 5
  23438212.843    -5272436.522 8  -4094600.963 9
  25749664.318     6443980.309 6   5902559.920 4
  24856410.625   -31515360.510 7  -7886360.314 6
  26000595.462    26033616.964 6  15516444.437 2
  24426404.902    -2802143.831 7  -2507500.468 6
  25913728.799   -16679666.694 5  -5412559.434 3
 94  3 15  3 49 30.0090000  0  8  5  4 24  9 20 13 12 16
  23085347.856   -12593601.236 8  -9800881.404 9
  25297230.432     6634410.776 7   5016959.789 5
  23450397.757    -5208401.113 8  -4044703.233 9
  25771663.988     6559598.092 6   5992651.688 4
  24845598.700   -31572189.894 7  -7930642.927 6
  26018433.443    26127340.078 6  15589475.389 2
  24445389.199    -2702396.015 7  -2429774.893 6
  25901861.035   -16742044.039 5  -5461165.123 3
 94  3 15  3 50  0.0090000  0  8  5  4 24  9 20 13 12 16
  23086042.625   -12589935.047 8  -9798024.627 9
  25318701.118     6747233.333 7   5104873.467 5
  23462660.588    -5143966.734 8  -3994494.611 9
  25793698.164     6675384.198 6   6082874.600 4
  24834828.896   -31628762.330 7  -7974725.320 6
  26036265.698    26221050.595 6  15662496.580 2
  24464456.119    -2602193.030 7  -2351694.678 6
  25890031.074   -16804243.240 5  -5509631.985 4
 94  3 15  3 50 30.0090000  0  8  5  4 24  9 20 13 12 16
  23086827.572   -12585821.113 8  -9794818.954 9
  25340198.666     6860228.996 6   5192922.043 5
  23474997.377    -5079138.970 8  -3943979.467 9
  25815759.142     6791329.101 6   6173221.270 4
  24824106.878   -31685091.798 7  -8018618.399 6
  26054092.227    26314731.425 6  15735494.661 2
  24483604.164    -2501553.971 7  -2273274.615 6
  25878217.873   -16866282.202 5  -5557973.975 4
 94  3 15  3 51  0.0090000  0  8  5  4 24  9 20 13 12 16
  23087695.501   -12581268.034 8  -9791271.095 9
  25361736.535     6973392.111 6   5281101.083 5
  23487409.805    -5013898.907 8  -3893143.051 9
  25837855.285     6907430.750 6   6263690.067 4
  24813436.785   -31741177.080 7  -8062321.196 6
  26071915.339    26408380.675 6  15808468.087 2
  24502840.796    -2400482.441 7  -2194517.588 6
  25866445.532   -16928168.073 5  -5606196.681 4
 94  3 15  3 51 30.0090000  0  8  5  4 24  9 20 13 12 16
  23088642.755   -12576273.583 8  -9787379.317 9
  25383301.056     7086719.213 6   5369407.918 5
  23499903.026    -4948257.576 8  -3841993.964 9
  25859979.908     7023687.109 6   6354279.421 4
  24802816.158   -31797015.749 7  -8105831.823 6
  26089728.497    26501997.668 6  15881416.394 2
  24522154.566    -2298981.377 7  -2115425.868 6
  25854698.914   -16989884.479 5  -5654287.345 4
 94  3 15  3 52 30.0090000  0  8  5  4 24  9 20 13 12 16
  23090812.803   -12564871.387 8  -9778494.481 9
  25426544.470     7313949.545 6   5546470.493 5
  23525117.430    -4815737.664 8  -3738731.683 9
  25904314.356     7256707.065 6   6535853.373 4
  24781714.636   -31907881.698 7  -8192220.859 6
  26125350.496    26689194.047 6  16027283.697 2
  24561034.799    -2094638.535 7  -1956197.711 6
  25831314.443   -17112739.987 5  -5750018.823 4
 94  3 15  3 53  0.0090000  0  8  5  4 24  9 20 13 12 16
  23092035.387   -12558454.850 8  -9773494.577 9
  25448215.627     7427842.895 6   5635218.571 5
  23537840.202    -4748895.457 8  -3686646.843 9
  25926532.185     7373454.043 6   6626825.030 4
  24771243.965   -31962919.229 7  -8235107.221 6
  26143157.988    26782757.095 6  16100189.966 2
  24580606.750    -1991817.203 7  -1876077.188 6
  25819680.157   -17173898.803 6  -5797674.995 4
 94  3 15  3 53 30.0090000  0  8  5  4 24  9 20 13 12 16
  23093344.310   -12551562.005 8  -9768123.524 9
  25469927.586     7541925.254 6   5724113.917 5
  23550627.910    -4681684.734 8  -3634274.847 9
  25948779.484     7490354.928 6   6717916.608 4
  24760817.932   -32017697.690 7  -8277791.726 6
  26160954.358    26876288.305 6  16173071.425 2
  24600250.711    -1888573.765 7  -1795627.779 6
  25808077.590   -17234877.147 5  -5845190.577 4
 94  3 15  3 54  0.0090000  0  8  5  4 24  9 20 13 12 16
  23094748.868   -12544190.203 8  -9762379.264 9
  25491668.175     7656193.485 6   5813154.098 5
  23563491.674    -4614084.111 8  -3581599.021 9
  25971056.552     7607425.763 6   6809140.617 4
  24750443.165   -32072211.780 7  -8320270.222 6
  26178751.567    26969789.855 6  16245929.795 2
  24619982.301    -1784907.974 7  -1714849.235 6
  25796505.781   -17295671.858 5  -5892562.990 4
 94  3 15  3 54 30.0090000  0  8  5  4 24  9 20 13 12 16
  23096244.683   -12536321.008 8  -9756247.411 9
  25513450.466     7770648.654 6   5902339.955 5
  23576433.565    -4546086.803 8  -3528614.082 9
  25993376.790     7724687.925 6   6900513.741 4
  24740121.190   -32126445.246 7  -8362530.021 6
  26196534.417    27063274.849 6  16318775.263 2
  24639787.310    -1680808.985 7  -1633733.140 5
  25784979.180   -17356266.367 5  -5939779.444 4
 94  3 15  3 55  0.0090000  0  8  5  4 24  9 20 13 12 16
  23097835.711   -12527943.307 8  -9749719.329 9
  25535268.102     7885313.616 6   5991689.250 4
  23589454.930    -4477667.293 7  -3475300.196 9
  26015733.093     7842162.258 6   6992052.127 3
  24729861.723   -32180374.707 7  -8404552.997 6
  26214325.870    27156763.721 6  16391623.716 2
  24659683.546    -1576258.381 7  -1552265.143 5
  25773498.388   -17416626.560 5  -5986813.333 4
 94  3 15  3 55 30.0090000  0  8  5  4 24  9 20 13 12 16
  23099537.093   -12519043.019 8  -9742784.054 9
  25557134.184     8000204.374 6   6081214.526 4
  23602558.079    -4408805.855 8  -3421641.924 9
  26038119.585     7959846.090 6   7083753.797 3
  24719661.285   -32233976.986 7  -8446320.981 6
  26232125.957    27250276.751 6  16464490.990 2
  24679667.352    -1471238.042 7  -1470431.117 5
  25762054.621   -17476725.876 5  -6033643.931 4
 94  3 15  3 56  0.0090000  0  8  5  4 24  9 20 13 12 16
  23101329.852   -12509599.360 8  -9735425.336 9
  25579039.120     8115322.171 6   6170916.713 4
  23615747.148    -4339487.093 8  -3367627.299 9
  26060555.663     8077740.815 6   7175619.825 3
  24709528.659   -32287230.989 7  -8487817.578 6
  26249924.965    27343831.495 6  16537390.830 2
  24699746.521    -1365732.423 7  -1388218.958 5
  25750673.600   -17536543.753 6  -6080255.171 4
 94  3 15  3 56 30.0090000  0  8  5  4 24  9 20 13 12 16
  23103230.626   -12499609.035 8  -9727640.678 9
  25600988.754     8230672.594 6   6260800.162 4
  23629024.297    -4269713.438 8  -3313258.192 9
  26083026.097     8195829.554 6   7267636.984 3
  24699462.198   -32340126.077 7  -8529034.515 6
  26267737.134    27437435.889 6  16610329.281 2
  24719915.539    -1259735.988 7  -1305624.335 5
  25739341.774   -17596077.905 6  -6126645.430 3
 94  3 15  3 57  0.0090000  0  8  5  4 24  9 20 13 12 16
  23105237.497   -12489071.666 8  -9719429.738 9
  25622986.026     8346261.475 6   6350869.430 4
  23642389.374    -4199480.026 8  -3258530.870 9
  26105536.073     8314090.715 6   7359788.507 3
  24689462.801   -32392660.160 7  -8569970.166 6
  26285558.327    27531088.910 6  16683305.691 2
  24740180.699    -1153251.944 7  -1222649.775 5
  25728070.208   -17655324.389 6  -6172811.491 3
 94  3 15  3 57 30.0090000  0  8  5  4 24  9 20 13 12 16
  23107341.261   -12478011.440 8  -9710811.387 9
  25645018.193     8462050.234 7   6441094.429 4
  23655834.946    -4128826.118 8  -3203475.876 9
  26128070.453     8432495.073 6   7452051.648 3
  24679536.822   -32444857.277 7  -8610643.216 6
  26303387.464    27624763.639 6  16756298.982 2
  24760528.723    -1046309.421 7  -1139317.939 5
  25716846.038   -17714313.630 6  -6218777.075 3
 94  3 15  3 58  0.0090000  0  8  5  4 24  9 20 13 12 16
  23109542.007   -12466445.928 8  -9701799.295 9
  25667086.216     8578012.735 7   6531454.821 4
  23669355.106    -4057767.385 8  -3148105.421 9
  26150622.910     8551044.090 6   7544427.464 3
  24669655.513   -32496737.051 7  -8651068.993 6
  26321206.018    27718437.233 6  16829291.387 2
  24780960.268     -938933.286 7  -1055648.232 5
  25705664.049   -17773076.431 6  -6264566.239 3
 94  3 15  3 58 30.0090000  0  8  5  4 24  9 20 13 12 16
  23111842.225   -12454366.306 8  -9692386.592 9
  25689186.077     8694157.504 7   6621957.248 4
  23682953.542    -3986315.881 8  -3092428.921 9
  26173209.364     8669724.065 6   7636905.345 3
  24659847.653   -32548301.502 7  -8691249.075 6
  26339036.415    27812104.872 6  16902279.173 2
  24801475.456     -831130.843 7   -971646.333 5
  25694518.965   -17831625.471 6  -6310188.840 3
 94  3 15  3 59  0.0090000  0  8  5  4 24  9 20 13 12 16
  23114239.395   -12441773.523 8  -9682574.034 9
  25711322.452     8810474.614 7   6712593.973 4
  23696622.070    -3914483.647 8  -3036455.744 9
  26195817.103     8788528.770 6   7729480.416 3
  24650095.854   -32599556.450 7  -8731187.984 6
  26356852.751    27905757.793 6  16975255.481 2
  24822072.067     -722913.154 7   -887320.878 5
  25683424.185   -17889956.527 6  -6355641.579 3
 94  3 15  3 59 30.0090000  0  8  5  4 24  9 20 13 12 16
  23116732.919   -12428662.736 8  -9672357.830 9
  25733486.018     8926947.899 6   6803352.349 4
  23710362.308    -3842269.655 8  -2980185.100 9
  26218451.554     8907474.354 6   7822165.302 3
  24640402.994   -32650498.442 7  -8770883.003 6
  26374672.744    27999396.573 6  17048220.761 2
  24842742.787     -614282.130 7   -802673.318 5
  25672361.724   -17948060.365 6  -6400917.235 3
 94  3 15  4  0  0.0090000  0  8  5  4 24  9 20 13 12 16
  23119329.241   -12415016.588 8  -9661724.459 9
  25755686.339     9043593.820 6   6894245.294 4
  23724183.040    -3769659.360 8  -2923605.643 9
  26241115.444     9026544.809 5   7914947.427 3
  24630767.395   -32701119.484 7  -8810327.958 6
  26392493.877    28093026.058 5  17121178.773 2
  24863490.793     -505235.034 7   -717701.566 5
  25661352.295   -18005921.315 6  -6446003.697 3
 94  3 15  4  0 30.0090000  0  8  5  4 24  9 20 13 12 16
  23122027.404   -12400834.426 8  -9650673.422 9
  25777915.620     9160419.271 6   6985278.097 4
  23738075.093    -3696649.832 8  -2866715.087 9
  26263790.037     9145727.112 5   8007816.740 3
  24621197.690   -32751409.008 7  -8849514.597 6
  26410307.844    28186653.959 5  17194135.603 2
  24884324.301     -395766.730 7   -632401.605 5
  25650393.802   -18063503.725 6  -6490873.078 3
 94  3 15  4  1  0.0090000  0  8  5  4 24  9 20 13 12 16
  23124824.017   -12386148.799 8  -9639230.080 9
  25800173.771     9277402.823 6   7076434.134 4
  23752041.464    -3623259.983 8  -2809528.197 9
  26286489.752     9265019.682 5   8100771.941 3
  24611689.562   -32801381.372 7  -8888454.074 6
  26428116.416    28280263.084 5  17267077.766 2
  24905229.818     -285896.536 7   -546788.461 5
  25639489.481   -18120806.446 6  -6535524.497 3
 94  3 15  4  1 30.0090000  0  8  5  4 24  9 20 13 12 16
  23127707.181   -12370983.630 8  -9627413.075 9
  25822463.730     9394527.356 6   7167699.988 4
  23766074.629    -3549525.718 8  -2752072.922 9
  26309211.052     9384394.557 5   8193791.333 3
  24602232.519   -32851063.338 7  -8927167.282 6
  26445924.028    28373823.752 5  17339982.146 2
  24926208.845     -175656.639 7   -460887.248 5
  25628629.379   -18177867.707 6  -6579987.806 4
 94  3 15  4  2  0.0090000  0  8  5  4 24  9 20 13 12 16
  23130680.703   -12355358.149 8  -9615237.356 9
  25844779.741     9511799.433 6   7259080.840 4
  23780166.104    -3475467.061 8  -2694364.888 9
  26331934.181     9503830.833 5   8286858.538 3
  24592833.006   -32900466.620 7  -8965663.329 6
  26463720.518    28467321.190 6  17412837.315 2
  24947257.723      -65064.303 7   -374711.416 5
  25617813.886   -18234715.970 6  -6624285.118 4
 94  3 15  4  2 30.0090000  0  8  5  4 24  9 20 13 12 16
  23133739.276   -12339288.056 8  -9602715.211 9
  25867122.883     9629200.658 6   7350562.318 4
  23794315.078    -3401098.600 8  -2636415.429 9
  26354668.762     9623344.660 5   8379986.167 3
  24583484.068   -32949598.791 7  -9003948.132 7
  26481495.512    28560745.184 6  17485635.219 2
  24968365.510       45867.846 7   -288270.784 5
  25607036.348   -18291367.339 6  -6668429.036 4
 94  3 15  4  3  0.0090000  0  8  5  4 24  9 20 13 12 16
  23136882.989   -12322763.409 8  -9589838.869 9
  25889485.692     9746721.821 6   7442137.233 4
  23808526.950    -3326420.621 8  -2578224.791 9
  26377438.989     9742939.526 5   8473176.932 3
  24574186.455   -32998458.546 7  -9042020.658 7
  26499261.633    28654094.159 5  17558374.694 2
  24989538.443      157135.610 7   -201568.645 5
  25596286.060   -18347832.512 6  -6712427.802 4
 94  3 15  4  3 30.0090000  0  8  5  4 24  9 20 13 12 16
  23140122.127   -12305761.720 8  -9576590.806 9
  25911871.974     9864360.206 6   7533803.516 4
  23822800.129    -3251417.104 8  -2519780.479 9
  26400217.909     9862618.196 5   8566433.002 3
  24564943.104   -33047032.313 7  -9079870.329 7
  26517010.636    28747378.593 5  17631063.823 2
  25010774.151      268747.164 7   -114598.606 5
  25585577.863   -18404104.538 6  -6756276.127 4
 94  3 15  4  4  0.0090000  0  8  5  4 24  9 20 13 12 16
  23143442.928   -12288293.234 8  -9562978.991 9
  25934274.146     9982081.173 6   7625534.139 4
  23837133.356    -3176091.315 8  -2461085.058 9
  26422993.502     9982370.711 5   8659746.671 3
  24555755.005   -33095329.280 7  -9117504.310 7
  26534748.456    28840586.368 5  17703693.282 2
  25032078.992      380687.847 7    -27372.100 5
  25574910.468   -18460175.474 6  -6799967.713 4
 94  3 15  4  4 30.0090000  0  8  5  4 24  9 20 13 12 16
  23146859.213   -12270353.632 8  -9549000.082 9
  25956686.300    10099859.694 6   7717309.601 4
  23851528.520    -3100450.553 8  -2402144.181 9
  26445795.207    10102186.417 5   8753109.514 3
  24546615.532   -33143344.830 7  -9154919.014 7
  26552472.276    28933719.350 5  17776264.418 2
  25053441.693      492957.036 7     60110.391 5
  25564284.024   -18516022.936 6  -6843485.200 4
 94  3 15  4  5  0.0090000  0  8  5  4 24  9 20 13 12 16
  23150361.478   -12251947.845 8  -9534657.898 9
  25979100.553    10217679.818 6   7809117.478 4
  23865975.669    -3024518.779 8  -2342976.571 9
  26468600.689    10222029.855 5   8846494.024 2
  24537529.812   -33191088.908 7  -9192122.161 7
  26570171.813    29026764.692 5  17848767.304 2
  25074865.252      605539.204 7    147836.748 4
  25553696.884   -18571649.316 6  -6886830.382 4
 94  3 15  4  5 30.0090000  0  8  5  4 24  9 20 13 12 16
  23153949.095   -12233085.724 8  -9519960.159 9
  26001533.603    10335548.522 6   7900963.204 4
  23880480.317    -2948305.791 8  -2283589.826 9
  26491413.516    10341902.529 5   8939901.242 2
  24528498.534   -33238558.457 8  -9229111.431 7
  26587870.480    29119722.798 5  17921202.121 2
  25096348.979      718432.125 6    235805.249 4
  25543155.312   -18627053.968 6  -6930002.834 4
 94  3 15  4  6  0.0090000  0  8  5  4 24  9 20 13 12 16
  23157622.002   -12213776.995 8  -9504914.390 9
  26023971.719    10453462.850 6   7992844.509 4
  23895034.462    -2871824.320 8  -2223993.867 9
  26514222.536    10461787.562 5   9033318.166 2
  24519516.362   -33285755.804 8  -9265888.579 7
  26605533.832    29212588.486 5  17993565.008 2
  25117887.898      831628.090 6    324009.884 4
  25532657.029   -18682239.148 6  -6973004.231 4
 94  3 15  4  6 30.0090000  0  8  5  4 24  9 20 13 12 16
  23161384.037   -12194016.344 8  -9489516.496 9
  26046422.457    10571444.445 6   8084778.203 4
  23909640.141    -2795077.502 8  -2164191.155 9
  26537040.369    10581681.759 5   9126742.178 2
  24510589.382   -33332666.196 8  -9302442.113 7
  26623190.259    29305373.443 5  18065864.967 2
  25139488.544      945136.184 6    412457.726 4
  25522190.135   -18737198.495 6  -7015829.662 4
 94  3 15  4  7  0.0090000  0  8  5  4 24  9 20 13 12 16
  23165227.497   -12173816.111 8  -9473776.039 9
  26068885.096    10689490.962 6   8176762.515 4
  23924292.557    -2718074.374 8  -2104188.700 9
  26559861.500    10701570.636 5   9220162.084 2
  24501713.757   -33379303.254 8  -9338782.674 7
  26640826.450    29398061.529 5  18138089.454 2
  25161146.181     1058937.664 6    501134.206 4
  25511773.727   -18791957.688 6  -7058499.111 4
 94  3 15  4  7 30.0090000  0  8  5  4 24  9 20 13 12 16
  23169156.127   -12153180.850 8  -9457696.621 9
  26091360.027    10807599.679 6   8268795.249 4
  23938995.728    -2640810.813 8  -2043983.351 9
  26582664.794    10821445.701 5   9313571.164 2
  24492890.085   -33425668.012 8  -9374911.058 8
  26658452.507    29490648.718 5  18210235.336 2
  25182857.121     1173025.893 6    590034.106 4
  25501390.685   -18846523.354 6  -7101017.822 4
 94  3 15  4  8  0.0090000  0  8  5  4 24  9 20 13 12 16
  23173163.663   -12132108.845 8  -9441276.874 9
  26113842.483    10925753.975 6   8360863.539 4
  23953743.059    -2563302.109 8  -1983586.927 9
  26605470.966    10941277.004 5   9406946.237 3
  24484114.590   -33471773.120 8  -9410837.096 8
  26676049.245    29583119.850 5  18282290.774 2
  25204618.366     1287382.829 6    679143.422 4
  25491045.626   -18900903.247 6  -7143391.715 4
 94  3 15  4  8 30.0090000  0  8  5  4 24  9 20 13 12 16
  23177256.339   -12110605.798 8  -9424521.248 9
  26136338.579    11043949.500 6   8452963.956 4
  23968538.776    -2485552.238 8  -1923002.621 9
  26628267.124    11061057.346 5   9500281.554 3
  24475391.559   -33517626.492 8  -9446567.000 8
  26693623.019    29675464.045 5  18354247.235 2
  25226426.618     1401995.103 6    768451.666 4
  25480727.130   -18955099.398 6  -7185622.447 5
 94  3 15  4  9  0.0090000  0  8  5  4 24  9 20 13 12 16
  23181431.309   -12088665.975 8  -9407425.295 9
  26158834.885    11162171.041 6   8545084.635 4
  23983383.149    -2407546.283 8  -1862218.773 9
  26651050.332    11180794.041 5   9593582.830 3
  24466714.726   -33563228.936 7  -9482101.375 8
  26711166.035    29767677.709 5  18426102.047 2
  25248284.606     1516856.258 6    857953.865 4
  25470452.463   -19009107.290 6  -7227706.486 5
 94  3 15  4  9 30.0090000  0  8  5  4 24  9 20 13 12 16
  23185692.109   -12066287.576 8  -9389987.576 9
  26181337.637    11280413.922 6   8637221.926 4
  23998275.729    -2329277.009 8  -1801229.710 9
  26673834.439    11300499.569 5   9686859.872 3
  24458086.249   -33608567.273 7  -9517429.923 8
  26728689.473    29859771.126 5  18497863.148 2
  25270189.242     1631973.974 6    947655.968 4
  25460213.831   -19062899.424 6  -7269622.414 5
 94  3 15  4 10  0.0100000  0  8  5  4 24  9 20 13 12 16
  23190032.415   -12043467.957 8  -9372206.057 9
  26203842.008    11398685.636 6   8729381.693 4
  24013225.540    -2250729.900 8  -1740024.185 9
  26696610.601    11420202.585 5   9780134.913 3
  24449510.896   -33653628.530 7  -9552542.586 8
  26746192.286    29951759.542 5  18569542.422 2
  25292147.001     1747361.395 6   1037568.237 4
  25450025.504   -19116458.902 6  -7311357.054 5
 94  3 15  4 10 30.0100000  0  8  5  4 24  9 20 13 12 16
  23194457.981   -12020215.738 8  -9354087.457 9
  26226346.138    11516973.054 6   8821553.686 4
  24028226.495    -2171900.212 8  -1678598.449 9
  26719388.622    11539916.101 5   9873418.149 3
  24440991.304   -33698398.561 7  -9587428.321 8
  26763686.885    30043645.126 5  18641141.562 2
  25314154.555     1863016.505 6   1127689.070 4
  25439879.538   -19169772.609 6  -7352900.182 5
 94  3 15  4 11  0.0100000  0  8  5  4 24  9 20 13 12 16
  23198963.202   -11996540.523 8  -9335639.252 9
  26248860.822    11635263.890 6   8913728.344 4
  24043275.896    -2092809.667 8  -1616969.464 9
  26742166.074    11659643.696 5   9966712.349 3
  24432526.454   -33742883.120 7  -9622091.613 8
  26781145.449    30135424.125 5  18712657.641 2
  25336214.064     1978933.508 6   1218013.996 4
  25429776.742   -19222856.421 6  -7394264.174 5
 94  3 15  4 11 30.0100000  0  8  5  4 24  9 20 13 12 16
  23203548.348   -11972438.406 8  -9316858.379 9
  26271375.895    11753581.431 6   9005923.832 4
  24058372.845    -2013470.714 8  -1555146.897 9
  26764950.990    11779374.962 5  10060009.441 3
  24424117.245   -33787074.422 7  -9656526.386 8
  26798589.742    30227101.337 5  18784094.425 2
  25358322.349     2095114.303 6   1308544.496 4
  25419717.985   -19275712.642 6  -7435450.803 5
 94  3 15  4 12  0.0100000  0  8  5  4 24  9 20 13 12 16
  23208222.112   -11947879.397 8  -9297721.487 9
  26293900.681    11871951.747 6   9098160.449 4
  24073518.840    -1933872.371 8  -1493122.214 9
  26787738.994    11899115.521 5  10153313.767 3
  24415765.957   -33830956.926 7  -9690720.530 8
  26816020.275    30318689.733 5  18855462.009 2
  25380481.029     2211569.003 6   1399288.396 4
  25409706.536   -19328342.077 6  -7476460.720 5
 94  3 15  4 12 30.0100000  0  8  5  4 24  9 20 13 12 16
  23212984.315   -11922852.997 8  -9278220.389 9
  26316436.950    11990367.578 6   9190432.501 4
  24088713.041    -1854032.085 8  -1430908.990 9
  26810525.290    12018836.167 5  10246602.574 3
  24407474.897   -33874534.139 7  -9724676.780 8
  26833429.104    30410182.984 5  18926755.448 2
  25402698.528     2328288.681 6   1490238.792 4
  25399730.193   -19380755.605 6  -7517302.417 5
 94  3 15  4 13  0.0100000  0  8  5  4 24  9 20 13 12 16
  23217840.264   -11897335.730 8  -9258336.824 9
  26338981.762    12108844.221 6   9282751.976 4
  24103955.839    -1773934.837 8  -1368495.565 9
  26833297.525    12138522.606 5  10339864.694 3
  24399240.587   -33917794.580 7  -9758386.223 8
  26850829.627    30501590.152 5  18997981.775 2
  25424957.218     2445279.348 6   1581400.341 4
  25389800.137   -19432937.159 6  -7557963.342 5
 94  3 15  4 13 30.0100000  0  8  5  4 24  9 20 13 12 16
  23222791.756   -11871315.531 8  -9238061.336 9
  26361537.637    12227388.531 6   9375124.154 4
  24119252.179    -1693561.175 8  -1305866.724 9
  26856068.291    12258172.336 5  10433098.243 3
  24391071.782   -33960725.909 7  -9791839.184 8
  26868205.059    30592920.966 5  19069148.667 2
  25447271.790     2562548.053 6   1672778.540 4
  25379916.130   -19484862.736 6  -7598424.812 5
 94  3 15  4 14  0.0100000  0  8  5  4 24  9 20 13 12 16
  23227840.111   -11844791.478 8  -9217393.248 9
  26384110.900    12345989.336 6   9467540.346 4
  24134597.866    -1612910.586 8  -1243022.117 9
  26878835.040    12377805.835 5  10526319.130 3
  24382967.223   -34003318.274 7  -9825028.039 8
  26885572.935    30684182.599 5  19140261.627 2
  25469640.835     2680098.837 6   1764376.550 4
  25370089.353   -19536509.781 6  -7638669.246 5
 94  3 15  4 14 30.0100000  0  8  5  4 24  9 20 13 12 16
  23232985.269   -11817757.458 8  -9196327.794 9
  26406689.229    12464660.672 6   9560011.489 4
  24149999.253    -1531971.373 8  -1179952.616 9
  26901600.200    12497445.822 5  10619545.087 3
  24374930.657   -34045554.348 7  -9857939.265 8
  26902923.933    30775389.604 5  19211331.957 2
  25492068.308     2797943.479 6   1856203.517 4
  25360324.543   -19587839.433 6  -7678666.382 5
 94  3 15  4 15  0.0100000  0  8  5  4 24  9 20 13 12 16
  23238227.410   -11790207.984 8  -9174860.662 9
  26429294.660    12583427.620 6   9652557.145 4
  24165461.379    -1450725.802 8  -1116644.379 9
  26924372.795    12617127.535 5  10712803.543 2
  24366961.064   -34087421.156 7  -9890562.735 8
  26920280.658    30866552.582 5  19282368.085 2
  25514546.177     2916089.561 6   1948265.394 4
  25350619.301   -19638826.341 6  -7718396.400 5
 94  3 15  4 15 30.0100000  0  8  5  4 24  9 20 13 12 16
  23243566.294   -11762140.541 8  -9152989.928 9
  26451912.322    12702291.808 6   9745178.607 4
  24180977.498    -1369184.108 8  -1053105.388 9
  26947162.028    12736867.144 5  10806107.119 2
  24359067.229   -34128917.700 7  -9922897.695 8
  26937608.452    30957669.867 5  19353368.562 2
  25537085.594     3034532.696 6   2040558.735 4
  25340980.135   -19689479.339 6  -7757866.248 5
 94  3 15  4 16  0.0100000  0  8  5  4 24  9 20 13 12 16
  23249005.578   -11733557.911 8  -9130717.777 9
  26474550.190    12821241.475 6   9837866.653 4
  24196549.437    -1287355.828 8   -989343.111 9
  26969956.358    12856640.153 5  10899436.714 2
  24351239.797   -34170049.053 8  -9954948.109 8
  26954945.390    31048733.788 5  19424327.397 2
  25559678.703     3153262.024 6   2133075.080 4
  25331402.635   -19739812.236 6  -7797086.678 5
 94  3 15  4 16 30.0100000  0  8  5  4 24  9 20 13 12 16
  23254546.612   -11704450.388 8  -9108036.579 9
  26497200.440    12940277.342 6   9930621.846 4
  24212176.749    -1205227.630 8   -925347.100 9
  26992746.251    12976418.256 5  10992770.267 2
  24343483.357   -34210814.256 8  -9986713.186 8
  26972266.409    31139742.438 5  19495243.243 2
  25582328.293     3272272.908 6   2225810.837 4
  25321886.323   -19789833.339 6  -7836064.130 5
 94  3 15  4 17  0.0100000  0  8  5  4 24  9 20 13 12 16
  23260184.569   -11674809.966 8  -9084940.168 9
  26519861.992    13059385.904 6  10023433.714 4
  24227861.950    -1122801.805 8   -861119.195 9
  27015535.214    13096185.717 5  11086095.559 2
  24335798.327   -34251203.948 8 -10018185.673 9
  26989573.337    31230702.922 5  19566121.519 2
  25605030.316     3391569.303 6   2318769.042 4
  25312426.102   -19839550.393 6  -7874804.682 5
 94  3 15  4 17 30.0100000  0  8  5  4 24  9 20 13 12 16
  23265924.096   -11644649.451 8  -9061438.456 9
  26542543.060    13178547.776 6  10116287.126 4
  24243601.384    -1040094.751 8   -796672.138 9
  27038314.824    13215912.461 5  11179389.139 2
  24328180.241   -34291215.878 8 -10049363.786 9
  27006869.653    31321614.985 5  19636962.095 2
  25627786.303     3511147.891 6   2411947.149 4
  25303021.882   -19888958.258 6  -7913304.277 5
 94  3 15  4 18  0.0100000  0  8  5  4 24  9 20 13 12 16
  23271758.867   -11613984.987 8  -9037544.071 9
  26565224.518    13297768.819 6  10209186.576 4
  24259390.853     -957118.995 8   -732015.706 9
  27061091.556    13335584.381 5  11272639.920 2
  24320641.840   -34330845.396 8 -10080243.931 9
  27024161.922    31412480.927 5  19707766.668 2
  25650595.053     3631007.912 6   2505344.567 4
  25293682.178   -19938047.488 6  -7951555.606 5
 94  3 15  4 18 30.0100000  0  8  5  4 24  9 20 13 12 16
  23277695.087   -11582807.154 8  -9013249.659 9
  26587922.914    13417061.083 6  10302141.615 4
  24275229.998     -873873.596 8   -667149.161 9
  27083861.243    13455229.340 5  11365869.749 2
  24313173.380   -34370081.659 8 -10110817.645 9
  27041447.356    31503308.961 5  19778541.786 2
  25673454.078     3751154.771 6   2598965.495 4
  25284404.981   -19986797.019 6  -7989542.245 5
 94  3 15  4 19  0.0100000  0  8  5  4 24  9 20 13 12 16
  23283725.622   -11551114.912 8  -8988554.414 9
  26610639.628    13536424.393 6  10395151.967 4
  24291122.896     -790362.684 8   -602075.729 9
  27106625.474    13574878.784 4  11459103.096 2
  24305783.436   -34408912.214 8 -10141075.222 9
  27058718.759    31594108.903 5  19849294.963 1
  25696377.108     3871595.278 6   2692815.225 4
  25275195.416   -20035185.030 6  -8027247.160 5
 94  3 15  4 19 30.0100000  0  8  5  4 24  9 20 13 12 16
  23289854.129   -11518895.966 8  -8963448.758 9
  26633373.519    13655873.920 6  10488229.496 4
  24307068.017     -706569.355 8   -536782.247 9
  27129403.435    13694558.041 4  11552359.637 2
  24298474.226   -34447327.603 8 -10171009.287 9
  27076004.672    31684887.777 5  19920031.726 2
  25719352.123     3992333.207 6   2786896.720 4
  25266054.504   -20083199.549 6  -8064661.069 5
 94  3 15  4 20  0.0100000  0  8  5  4 24  9 20 13 12 16
  23296096.438   -11486098.915 8  -8937892.600 9
  26656119.582    13775428.544 6  10581388.950 4
  24323077.684     -622444.402 8   -471230.317 9
  27152186.253    13814304.898 4  11645668.871 2
  24291250.727   -34485296.073 8 -10200595.096 9
  27093277.514    31775674.931 5  19990775.005 1
  25742385.417     4113394.938 6   2881230.521 4
  25256998.764   -20130817.965 6  -8101766.280 5
 94  3 15  4 20 30.0100000  0  8  5  4 24  9 20 13 12 16
  23302457.105   -11452684.949 8  -8911855.760 9
  26678892.747    13895082.303 6  10674625.626 4
  24339154.864     -537956.196 8   -405395.364 9
  27174993.144    13934146.618 4  11739052.012 2
  24284113.328   -34522795.078 8 -10229815.095 9
  27110555.843    31866490.346 5  20061540.240 1
  25765490.272     4234797.344 6   2975829.771 4
  25248013.714   -20178015.200 6  -8138543.335 6
 94  3 15  4 21  0.0100000  0  8  5  4 24  9 20 13 12 16
  23308932.112   -11418648.793 8  -8885334.072 9
  26701683.119    14014840.411 6  10767943.636 4
  24355302.645     -453092.675 8   -339267.938 9
  27197820.301    14054074.444 4  11832502.254 2
  24277069.375   -34559818.856 8 -10258664.795 9
  27127841.396    31957337.516 5  20132330.212 1
  25788658.563     4356540.696 6   3070694.741 4
  25239110.058   -20224795.295 6  -8174995.339 6
 94  3 15  4 21 30.0100000  0  8  5  4 24  9 20 13 12 16
  23315524.698   -11383999.353 8  -8858334.524 9
  26724488.212    14134688.390 6  10861331.636 4
  24371521.027     -367870.431 8   -272861.004 9
  27220645.779    14174046.384 4  11925986.871 2
  24270110.802   -34596385.167 8 -10287158.035 9
  27145130.247    32048196.042 5  20203129.047 1
  25811885.284     4478601.891 6   3165807.339 4
  25230287.316   -20271181.714 6  -8211140.591 6
 94  3 15  4 22  0.0100000  0  8  5  4 24  9 20 13 12 16
  23322235.073   -11348741.284 8  -8830860.714 9
  26747305.446    14254627.766 5  10954790.903 4
  24387803.715     -282308.957 8   -206189.731 9
  27243482.380    14294039.044 4  12019487.599 2
  24263237.700   -34632500.089 8 -10315299.525 9
  27162427.523    32139057.393 5  20273930.102 1
  25835173.731     4600968.911 6   3261158.254 4
  25221530.318   -20317170.350 6  -8246975.851 6
 94  3 15  4 22 30.0100000  0  8  5  4 24  9 20 13 12 16
  23329057.030   -11312897.995 8  -8802930.868 9
  26770152.119    14374666.975 5  11048327.939 4
  24404142.014     -196447.400 8   -139284.620 9
  27266321.408    14414032.497 5  12112988.972 2
  24256447.911   -34668178.920 8 -10343101.209 9
  27179716.794    32229904.255 5  20344719.885 1
  25858512.095     4723621.338 6   3356731.564 4
  25212857.442   -20362772.267 6  -8282509.802 6
 94  3 15  4 23  0.0100000  0  8  5  4 24  9 20 13 12 16
  23335986.313   -11276480.522 8  -8774553.624 9
  26793016.481    14494814.537 5  11141949.391 4
  24420535.745     -110302.049 8    -72158.380 9
  27289146.317    14534012.996 5  12206480.281 2
  24249741.913   -34703424.311 8 -10370565.158 9
  27197001.238    32320731.651 5  20415494.442 1
  25881905.260     4846551.124 6   3452521.007 4
  25204253.968   -20407997.120 7  -8317749.947 6
 94  3 15  4 23 30.0100000  0  8  5  4 24  9 20 13 12 16
  23343021.063   -11239512.558 8  -8745747.428 9
  26815896.071    14615060.709 5  11235647.679 3
  24436975.584      -23899.500 8     -4831.709 9
  27311970.176    14653971.678 4  12299954.573 2
  24243116.769   -34738241.520 8 -10397695.434 9
  27214277.228    32411531.874 5  20486247.815 1
  25905346.332     4969747.498 6   3548518.162 4
  25195717.168   -20452846.139 7  -8352697.203 6
 94  3 15  4 24  0.0100000  0  8  5  4 24  9 20 13 12 16
  23350154.954   -11202012.297 8  -8716526.448 9
  26838796.798    14735402.919 5  11329420.827 3
  24453467.047       62750.382 8     62687.671 9
  27334800.991    14773912.000 5  12393414.533 2
  24236572.660   -34772629.098 8 -10424490.948 9
  27231552.199    32502304.034 5  20556979.361 1
  25928840.767     5093206.286 6   3644719.792 3
  25187254.297   -20497314.229 7  -8387347.629 6
 94  3 15  4 24 30.0100000  0  8  5  4 24  9 20 13 12 16
  23357390.115   -11163994.609 8  -8686902.283 9
  26861714.672    14855814.789 5  11423248.249 3
  24470000.721      149648.959 8    130400.841 9
  27357623.351    14893833.164 4  12486859.586 2
  24230110.993   -34806583.406 8 -10450948.864 9
  27248823.362    32593049.131 5  20627689.848 1
  25952386.257     5216925.418 6   3741124.303 3
  25178866.224   -20541405.711 6  -8421704.614 6
 94  3 15  4 25  0.0100000  0  8  5  4 24  9 20 13 12 16
  23364718.392   -11125480.463 8  -8656891.269 9
  26884633.895    14976267.421 5  11517107.434 3
  24486585.240      236799.396 8    198310.263 9
  27380435.759    15013732.175 4  12580287.398 2
  24223731.110   -34840110.038 8 -10477073.500 9
  27266079.866    32683759.720 5  20698373.396 1
  25975978.874     5340893.893 6   3837723.112 3
  25170546.773   -20585118.945 6  -8455766.862 6
 94  3 15  4 25 30.0100000  0  8  5  4 24  9 20 13 12 16
  23372142.662   -11086476.884 8  -8626498.864 9
  26907558.455    15096735.228 6  11610978.461 3
  24503216.766      324199.144 8    266413.980 9
  27403238.603    15133593.384 4  12673685.694 2
  24217431.271   -34873220.016 8 -10502873.481 9
  27283334.031    32774422.230 4  20769019.566 1
  25999608.156     5465095.281 6   3934503.407 3
  25162299.722   -20628453.995 6  -8489534.419 6
 94  3 15  4 26  0.0100000  0  8  5  4 24  9 20 13 12 16
  23379661.187   -11046969.988 8  -8595714.297 9
  26930478.038    15217198.340 5  11704845.797 3
  24519896.739      411846.463 8    334710.567 9
  27426044.804    15253397.972 4  12767039.887 2
  24211207.790   -34905919.593 8 -10528353.669 9
  27300577.613    32865028.383 4  20839621.696 1
  26023285.554     5589517.902 6   4031456.067 3
  25154123.333   -20671415.135 7  -8523010.614 6
 94  3 15  4 26 30.0100000  0  8  5  4 24  9 20 13 12 16
  23387276.515   -11006951.410 8  -8564530.991 9
  26953399.570    15337651.189 5  11798705.140 3
  24536622.280      499745.323 8    403203.192 9
  27448828.132    15373138.308 4  12860344.034 2
  24205062.584   -34938213.078 8 -10553517.417 9
  27317810.973    32955571.510 4  20910174.768 1
  26046998.808     5714151.921 6   4128573.470 3
  25146018.144   -20714011.532 7  -8556202.601 6
 94  3 15  4 27  0.0100000  0  8  5  4 24  9 20 13 12 16
  23394989.006   -10966402.663 8  -8532934.587 9
  26976326.048    15458120.987 5  11892577.718 3
  24553395.188      587893.895 8    471890.383 9
  27471611.819    15492812.882 5  12953596.918 2
  24198994.365   -34970093.130 8 -10578359.025 9
  27335027.454    33046056.540 4  20980682.576 1
  26070759.369     5838999.019 6   4225856.907 3
  25137983.796   -20756243.911 7  -8589110.941 6
 94  3 15  4 27 30.0100000  0  8  5  4 24  9 20 13 12 16
  23402813.739   -10925300.717 8  -8500907.084 9
  26999263.139    15578617.130 6  11986470.793 3
  24570219.931      676290.575 8    540770.908 9
  27494369.544    15612409.753 4  13046789.255 2
  24193007.899   -35001553.146 8 -10602873.315 9
  27352221.391    33136487.755 4  21051148.416 1
  26094555.905     5964060.179 6   4323307.164 3
  25130013.184   -20798116.949 7  -8621739.252 6
 94  3 15  4 28  0.0100000  0  8  5  4 24  9 20 13 12 16
  23410739.652   -10883647.948 8  -8468450.398 9
  27022193.994    15699156.095 6  12080397.230 3
  24587084.516      764937.047 8    609846.074 9
  27517108.802    15731943.790 4  13139932.686 2
  24187103.786   -35032582.419 8 -10627051.971 9
  27369432.086    33226874.069 4  21121579.289 1
  26118396.660     6089341.052 6   4420928.589 3
  25122115.421   -20839624.881 7  -8654083.087 6
 94  3 15  4 28 30.0100000  0  8  5  4 24  9 20 13 12 16
  23418769.683   -10841455.355 8  -8435573.061 9
  27045137.771    15819740.446 6  12174359.075 3
  24604003.483      853832.891 8    679115.557 9
  27539846.411    15851427.863 4  13233037.141 2
  24181282.387   -35063176.414 8 -10650891.448 9
  27386628.302    33317217.533 4  21191976.773 1
  26142282.684     6214840.565 6   4518720.417 3
  25114285.892   -20880761.823 7  -8686137.834 6
 94  3 15  4 29  0.0100000  0  8  5  4 24  9 20 13 12 16
  23426902.603   -10798715.076 8  -8402268.954 9
  27068097.226    15940366.830 5  12268353.640 3
  24620966.999      942979.917 8    748580.769 9
  27562580.153    15970877.739 4  13326114.951 2
  24175544.958   -35093323.966 8 -10674383.037 9
  27403804.971    33407527.190 4  21262347.932 1
  26166203.424     6340564.179 6   4616686.850 3
  25106537.156   -20921502.389 7  -8717883.715 6
 94  3 15  4 29 30.0100000  0  8  5  4 24  9 20 13 12 16
  23435135.443   -10755446.829 8  -8368553.426 9
  27091053.204    16061012.841 5  12362363.540 3
  24637979.352     1032382.360 8    818245.010 9
  27585296.327    16090293.002 4  13419165.772 2
  24169893.241   -35123029.534 8 -10697530.228 9
  27420983.348    33497796.255 4  21332687.513 1
  26190173.600     6466502.162 6   4714820.329 3
  25098861.989   -20961832.125 7  -8749309.454 6
 94  3 15  4 30  0.0100000  0  8  5  4 24  9 20 13 12 16
  23443468.235   -10711655.858 8  -8334430.620 9
  27114018.506    16181697.198 5  12456403.253 3
  24655040.031     1122036.173 8    888105.101 9
  27608015.409    16209680.632 4  13512195.050 2
  24164326.185   -35152279.263 8 -10720322.241 9
  27438155.520    33588036.506 4  21403004.513 1
  26214177.802     6592662.791 6   4813127.282 3
  25091270.495   -21001725.170 7  -8780394.942 6
 94  3 15  4 30 30.0100000  0  8  5  4 24  9 20 13 12 16
  23451902.086   -10667336.319 8  -8299895.914 9
  27136989.743    16302424.269 5  12550476.319 3
  24672144.390     1211923.663 8    958147.304 9
  27630720.610    16329030.441 4  13605194.923 2
  24158847.118   -35181070.949 8 -10742757.317 9
  27455319.568    33678248.155 5  21473299.295 1
  26238231.680     6719043.095 6   4911605.421 3
  25083762.073   -21041178.685 7  -8811137.922 6
 94  3 15  4 31  0.0100000  0  8  5  4 24  9 20 13 12 16
  23460435.888   -10622491.698 8  -8264952.077 9
  27159974.441    16423201.625 5  12644588.520 2
  24689295.396     1302035.257 8   1028364.115 9
  27653427.341    16448323.893 4  13698150.793 2
  24153457.779   -35209401.580 8 -10764833.146 9
  27472487.782    33768432.092 4  21543572.830 1
  26262315.957     6845640.476 6   5010252.706 3
  25076336.244   -21080190.541 7  -8841536.775 6
 94  3 15  4 31 30.0100000  0  8  5  4 24  9 20 13 12 16
  23469071.290   -10577118.626 8  -8229596.436 9
  27182973.229    16544034.526 5  12738744.043 2
  24706480.010     1392355.861 8   1098743.815 9
  27676107.779    16567536.138 4  13791043.498 2
  24148152.862   -35237266.968 8 -10786546.408 9
  27489643.196    33858590.300 5  21613826.201 1
  26286453.297     6972453.629 6   5109068.163 3
  25068992.408   -21118767.962 7  -8871597.066 6
 94  3 15  4 32  0.0100000  0  8  5  4 24  9 20 13 12 16
  23477808.351   -10531202.183 8  -8193817.411 9
  27205972.287    16664915.477 5  12832936.964 2
  24723705.755     1482868.319 8   1169272.987 9
  27698783.571    16686659.523 4  13883866.890 2
  24142939.831   -35264666.413 8 -10807896.640 9
  27506792.704    33948721.461 5  21684058.135 1
  26310620.886     7099477.790 6   5208047.988 3
  25061738.479   -21156922.510 7  -8901327.872 6
 94  3 15  4 32 30.0100000  0  8  5  4 24  9 20 13 12 16
  23486651.749   -10484737.562 8  -8157611.215 9
  27228981.239    16785811.633 5  12927141.798 2
  24740971.222     1573585.803 8   1239961.935 9
  27721443.864    16805695.334 4  13976622.014 2
  24137815.118   -35291607.691 8 -10828889.831 9
  27523931.269    34038815.827 5  21754261.597 1
  26334827.418     7226700.042 6   5307182.216 3
  25054554.643   -21194667.819 7  -8930739.792 6
 94  3 15  4 33  0.0100000  0  8  5  4 24  9 20 13 12 16
  23495597.017   -10437715.607 8  -8120970.747 9
  27251982.965    16906713.494 5  13021351.009 2
  24758271.975     1664541.633 8   1310836.612 9
  27744069.890    16924638.452 4  14069304.959 2
  24132774.138   -35318085.303 8 -10849521.743 9
  27541075.170    34128876.869 5  21824439.005 1
  26359079.459     7354120.612 6   5406470.948 3
  25047450.101   -21231997.358 7  -8959827.734 6
 94  3 15  4 33 30.0100000  0  8  5  4 24  9 20 13 12 16
  23504656.835   -10390117.098 8  -8083881.008 9
  27274992.486    17027617.707 5  13115562.073 2
  24775631.517     1755752.297 8   1381909.852 9
  27766688.272    17043508.415 4  14161930.880 2
  24127825.974   -35344092.006 8 -10869786.708 9
  27558209.479    34218909.687 5  21894594.417 1
  26383363.368     7481741.060 6   5505915.426 3
  25040426.713   -21268902.560 7  -8988585.025 6
 94  3 15  4 34  0.0100000  0  8  5  4 24  9 20 13 12 16
  23513822.539   -10341940.883 8  -8046341.101 9
  27298005.454    17148532.457 5  13209781.389 2
  24793042.384     1847236.302 8   1453196.076 9
  27789300.118    17162323.692 4  14254514.221 2
  24122967.027   -35369623.488 8 -10889681.369 9
  27575336.322    34308916.848 5  21964729.870 1
  26407688.678     7609560.484 6   5605514.960 3
  25033483.340   -21305380.879 7  -9017009.658 6
 94  3 15  4 34 30.0100000  0  9  5  4 24  3  9 20 13 12 16
  23523099.617   -10293185.513 8  -8008349.910 9
  27321013.386    17269470.544 5  13304018.823 2
  24810506.464     1939012.427 8   1524709.945 8
  27674840.467   -40761019.73314    -74170.923
  27811891.518    17281083.567 4  14347054.366 2
  24118202.846   -35394668.045 8 -10909196.603 9
  27592452.013    34398907.950 5  22034852.747 1
  26432053.650     7737585.130 6   5705274.407 3
  25026626.397   -21341419.809 7  -9045091.921 6
 94  3 15  4 35  0.0100000  0  9  5  4 24  3  9 20 13 12 16
  23532489.357   -10243860.150 8  -7969914.583 9
  27344035.978    17390436.858 5  13398278.273 2
  24828018.870     2031048.721 8   1596426.531 8
  27667466.322   -40799826.483 4   -104409.892 1
  27834481.629    17399773.876 4  14439540.284 2
  24113526.983   -35419227.148 8 -10928333.569 9
  27609586.981    34488879.612 5  22104960.599 1
  26456446.833     7865808.286 6   5805188.559 3
  25019852.227   -21377013.880 7  -9072827.549 6
 94  3 15  4 35 30.0100000  0  9  5  4 24  3  9 20 13 12 16
  23541980.006   -10193971.895 8  -7931040.622 9
  27367063.636    17511434.727 5  13492562.331 2
  24845574.836     2123306.454 8   1668315.672 8
  27660093.586   -40838551.470 4   -134585.227 1
  27857061.727    17518393.832 4  14531971.447 2
  24108945.494   -35443304.758 8 -10947095.336 9
  27626701.203    34578825.947 5  22175048.644 1
  26480887.563     7994220.588 6   5905250.061 3
  25013164.636   -21412167.964 7  -9100220.328 6
 94  3 15  4 36  0.0100000  0  9  5  4 24  3  9 20 13 12 16
  23551581.040   -10143532.297 8  -7891737.049 9
  27390088.536    17632460.059 5  13586867.815 2
  24863171.455     2215772.675 8   1740367.272 8
  27652723.098   -40877199.234 4   -164700.335 1
  27879617.183    17636924.416 4  14624332.908 2
  24104453.824   -35466902.579 8 -10965483.254 9
  27643812.097    34668743.300 5  22245114.148 1
  26505362.260     8122814.850 6   6005453.373 3
  25006556.851   -21446886.977 7  -9127274.102 6
 94  3 15  4 36 30.0100000  0  9  5  4 24  3  9 20 13 12 16
  23561281.544   -10092545.107 8  -7852006.764 9
  27413129.745    17753512.520 5  13681194.413 2
  24880803.538     2308435.143 8   1812571.804 8
  27645382.650   -40915768.098 4   -194753.977 1
  27902148.355    17755365.012 4  14716624.252 2
  24100055.539   -35490016.351 8 -10983493.972 9
  27660917.445    34758634.027 5  22315158.824 1
  26529861.419     8251590.265 6   6105797.817 3
  25000037.624   -21481155.150 7  -9153976.559 6
 94  3 15  4 37  0.0100000  0  9  5  4 24  3  9 20 13 12 16
  23571083.409   -10041027.759 8  -7811863.414 9
  27436163.999    17874585.106 5  13775536.656 2
  24898469.618     2401263.884 8   1884905.858 8
  27638063.517   -40954273.509 4   -224758.140 2
  27924668.045    17873714.885 4  14808844.913 2
  24095750.699   -35512658.869 8 -11001137.519 9
  27678014.040    34848483.365 5  22385171.205 1
  26554395.864     8380528.711 5   6206269.316 3
  24993600.091   -21514976.698 7  -9180331.008 6
 94  3 15  4 37 30.0100000  0  9  5  4 24  3  9 20 13 12 16
  23580987.232    -9988983.541 8  -7771309.483 9
  27459199.692    17995669.393 5  13869888.063 2
  24916170.534     2494277.596 8   1957384.090 8
  27630747.921   -40992716.648 4   -254713.834 2
  27947173.674    17991972.633 4  14900993.833 2
  24091528.182   -35534828.766 8 -11018412.761 9
  27695100.981    34938291.109 5  22455151.314 1
  26578965.415     8509626.273 5   6306864.824 3
  24987250.726   -21548354.782 7  -9206339.891 6
 94  3 15  4 38  0.0100000  0  9  5  4 24  3  9 20 13 12 16
  23590995.024    -9936414.468 8  -7730346.577 9
  27482253.882    18116757.330 5  13964242.278 2
  24933907.335     2587495.209 8   2030021.190 8
  27623463.234   -41031091.868 4   -284616.560 2
  27969661.796    18110145.023 4  14993076.174 2
  24087403.727   -35556517.627 8 -11035313.172 9
  27712190.020    35028063.697 5  22525103.919 1
  26603566.054     8638885.955 6   6407586.629 3
  24980982.576   -21581272.769 7  -9231990.240 6
 94  3 15  4 38 30.0100000  0  9  5  4 24  3  9 20 13 12 16
  23601098.779    -9883317.273 8  -7688972.162 9
  27505291.733    18237856.867 5  14058605.531 2
  24951686.647     2680922.612 8   2102821.740 8
  27616166.046   -41069392.845 4   -314461.380 2
  27992138.556    18228242.995 4  15085100.532 2
  24083368.101   -35577716.392 8 -11051831.693 9
  27729267.997    35117808.321 5  22595034.802 1
  26628195.174     8768311.603 5   6508437.759 2
  24974807.301   -21613721.177 7  -9257274.723 6
 94  3 15  4 39  0.0100000  0  8  5  4 24  3 20 13 12 16
  23611305.124    -9829671.559 8  -7647170.298 9
  27528335.760    18358971.406 5  14152980.527 2
  24969509.099     2774580.305 8   2175801.774 8
  27608890.803   -41107606.766 4   -344238.479 2
  24079431.706   -35598410.114 8 -11067956.666 9
  27746337.970    35207538.316 4  22664954.291 1
  26652853.374     8897913.049 5   6609425.863 2
  24968724.991   -21645696.861 7  -9282190.825 7
 94  3 15  4 39 30.0100000  0  8  5  4 24  3 20 13 12 16
  23621617.445    -9775478.308 8  -7604941.807 9
  27551396.215    18480091.819 5  14247360.057 2
  24987377.419     2868478.458 8   2248969.163 8
  27601643.140   -41145736.624 4   -373949.981 2
  24075590.496   -35618598.784 8 -11083688.097 9
  27763406.474    35297251.678 4  22734860.774 1
  26677551.266     9027684.939 5   6710546.832 2
  24962730.191   -21677211.124 7  -9306747.373 7
 94  3 15  4 40  0.0100000  0  8  5  4 24  3 20 13 12 16
  23632033.823    -9720746.070 8  -7562293.332 9
  27574442.910    18601227.553 5  14341751.545 2
  25005285.821     2962600.879 8   2322311.298 8
  27594389.002   -41183786.196 4   -403599.039 2
  24071843.539   -35638283.403 8 -11099026.787 9
  27780477.765    35386945.388 4  22804751.983 1
  26702274.610     9157620.826 5   6811795.562 2
  24956814.507   -21708271.146 7  -9330949.986 7
 94  3 15  4 40 30.0110000  0  8  5  4 24  3 20 13 12 16
  23642551.922    -9665464.077 8  -7519216.473 9
  27597497.400    18722384.957 5  14436159.894 2
  25023243.599     3056952.691 8   2395832.186 8
  27587178.364   -41221756.196 4   -433185.989 2
  24068196.594   -35657461.755 8 -11113970.947 9
  27797544.710    35476624.022 4  22874631.426 1
  26727034.739     9287722.984 5   6913173.828 2
  24950989.989   -21738883.216 7  -9354803.533 7
 94  3 15  4 41  0.0110000  0  8  5  4 24  3 20 13 12 16
  23653177.256    -9609630.750 8  -7475709.979 9
  27620558.036    18843547.870 5  14530572.553 2
  25041238.941     3151526.579 8   2469526.113 8
  27579957.922   -41259642.678 4   -462707.924 2
  24064642.225   -35676128.525 8 -11128516.489 9
  27814601.762    35566283.797 4  22944496.178 1
  26751820.770     9417981.460 6   7014673.941 2
  24945247.914   -21769037.532 7  -9378300.400 7
 94  3 15  4 41 30.0110000  0  8  5  4 24  3 20 13 12 16
  23663904.640    -9553259.161 8  -7431784.083 9
  27643605.510    18964712.198 5  14624986.310 2
  25059277.363     3246306.919 8   2543380.924 8
  27572767.850   -41297458.738 4   -492174.958 2
  24061184.149   -35694293.614 8 -11142671.104 9
  27831659.743    35655916.455 4  23014339.818 1
  26776637.440     9548385.933 5   7116287.790 2
  24939600.724   -21798745.598 7  -9401449.519 7
 94  3 15  4 42  0.0110000  0  8  5  4 24  3 20 13 12 16
  23674731.704    -9496352.353 8  -7387441.135 9
  27666662.398    19085871.411 5  14719396.095 2
  25077349.003     3341285.209 7   2617389.989 8
  27565583.324   -41335205.722 4   -521588.169 2
  24057821.886   -35711955.936 8 -11156433.944 9
  27848710.709    35745521.819 4  23084162.196 1
  26801480.731     9678932.650 5   7218012.482 2
  24934034.357   -21827998.848 7  -9424244.261 7
 94  3 15  4 42 30.0110000  0  8  5  4 24  3 20 13 12 16
  23685669.063    -9438900.452 8  -7342673.442 9
  27689719.256    19207001.639 5  14813783.289 2
  25095461.324     3436461.419 7   2691553.259 8
  27558398.288   -41372885.675 4   -550949.178 2
  24054556.307   -35729114.979 8 -11169804.639 9
  27865762.664    35835098.531 4  23153962.183 1
  26826342.010     9809617.000 5   7319844.434 2
  24928556.909   -21856784.091 7  -9446674.322 7
 94  3 15  4 43  0.0110000  0  8  5  4 24  3 20 13 12 16
  23696699.536    -9380914.897 8  -7297489.895 9
  27712763.403    19328095.370 5  14908142.017 2
  25113607.042     3531819.154 7   2765857.977 8
  27551262.808   -41410506.112 5   -580263.766 2
  24051390.229   -35745775.914 8 -11182787.182 9
  27882803.737    35924639.878 4  23223734.604 1
  26851234.407     9940428.591 5   7421775.537 2
  24923164.242   -21885106.695 7  -9468743.842 7
 94  3 15  4 43 30.0110000  0  8  5  4 24  3 20 13 12 16
  23707837.725    -9322388.386 8  -7251884.821 9
  27735788.273    19449168.549 5  15002484.771 2
  25131789.874     3627372.770 7   2840315.341 8
  27544107.841   -41448057.862 4   -609524.809 2
  24048312.620   -35761926.921 8 -11195372.361 9
  27899838.993    36014156.090 4  23293487.521 1
  26876152.587    10071373.998 5   7523810.870 2
  24917866.040   -21912947.241 7  -9490437.775 7
 94  3 15  4 44  0.0110000  0  8  5  4 24  3 20 13 12 16
  23719078.174    -9263321.371 8  -7205858.562 9
  27758828.883    19570212.823 5  15096804.967 2
  25150008.052     3723116.939 7   2914921.192 8
  27536966.635   -41485546.784 4   -638736.912 2
  24045339.038   -35777571.406 8 -11207562.873 9
  27916869.244    36103642.181 4  23363216.926 1
  26901098.377    10202444.920 5   7625944.085 2
  24912661.913   -21940297.251 7  -9511749.438 7
 94  3 15  4 44 30.0110000  0  8  5  4 24  3 20 13 12 16
  23730423.190    -9203695.733 8  -7159397.051 9
  27781862.627    19691240.648 5  15191112.363 2
  25168264.633     3819051.445 7   2989675.344 8
  27529844.435   -41522965.643 4   -667894.405 2
  24042456.983   -35792699.847 8 -11219351.271 9
  27933889.331    36193106.196 4  23432929.168 1
  26926063.834    10333645.834 5   7728178.508 2
  24907552.160   -21967155.250 7  -9532677.757 7
 94  3 15  4 45  0.0110000  0  9  5 17  4 24  3 20 13 12 16
  23741875.652    -9143506.327 8  -7112496.232 9
  27738922.843     -286982.83815   -159060.436
  27804894.482    19812290.449 5  15285436.883 2
  25186560.187     3915181.860 7   3064582.134 8
  27522736.956   -41560300.866 4   -696986.806 2
  24039681.235   -35807295.965 8 -11230724.882 9
  27950904.412    36282562.708 4  23502635.527 1
  26951061.428    10464987.771 5   7830522.864 2
  24902538.341   -21993509.041 7  -9553213.159 7
 94  3 15  4 45 30.0110000  0  9  5 17  4 24  3 20 13 12 16
  23753437.747    -9082749.412 8  -7065153.193 9
  27725520.951     -357446.461 5   -213967.076 1
  27827944.115    19933366.738 5  15379782.043 2
  25204888.988     4011506.575 7   3139640.363 8
  27515657.717   -41597551.725 4   -726013.429 2
  24037005.198   -35821356.675 8 -11241681.287 9
  27967928.186    36372013.218 4  23572337.169 1
  26976078.869    10596468.721 5   7932975.572 2
  24897618.477   -22019352.385 7  -9573350.832 7
 94  3 15  4 46  0.0110000  0  9  5 17  4 24  3 20 13 12 16
  23765111.306    -9021410.486 8  -7017356.646 9
  27712139.505     -427734.430 4   -268736.841 1
  27850979.658    20054464.563 5  15474143.949 2
  25223255.504     4108022.890 7   3214847.882 7
  27508600.152   -41634712.406 5   -754969.748 2
  24034433.458   -35834873.863 8 -11252214.150 9
  27984948.513    36461464.371 4  23642039.301 1
  27001123.711    10728091.864 5   8035539.033 2
  24892801.292   -22044683.328 7  -9593089.209 7
 94  3 15  4 46 30.0110000  0  9  5 17  4 24  3 20 13 12 16
  23776894.409    -8959494.745 8  -6969110.617 9
  27698806.265     -497838.037 4   -323362.981 2
  27874026.113    20175576.838 5  15568517.144 2
  25241657.664     4204727.514 7   3290202.126 8
  27501530.896   -41671783.362 4   -783856.189 2
  24031964.997   -35847845.388 8 -11262321.832 9
  28001973.757    36550916.804 4  23711742.549 1
  27026194.365    10859854.188 5   8138210.991 2
  24888079.201   -22069506.955 7  -9612432.271 7
 94  3 15  4 47  0.0110000  0  9  5 17  4 24  3 20 13 12 16
  23788785.616    -8897013.039 8  -6920423.582 9
  27685504.654     -567743.384 4   -377834.622 2
  27897077.305    20296705.182 5  15662902.871 2
  25260096.519     4301627.796 7   3365708.852 8
  27494497.705   -41708761.466 4   -812670.270 2
  24029601.793   -35860265.785 8 -11272000.045 9
  28019008.234    36640374.384 4  23781449.701 1
  27051294.698    10991756.197 5   8240991.729 2
  24883451.425   -22093809.725 7  -9631369.475 7
 94  3 15  4 47 30.0110000  0  9  5 17  4 24  3 20 13 12 16
  23800782.441    -8833955.203 8  -6871287.623 9
  27672243.904     -637438.601 4   -432142.555 2
  27920121.392    20417838.624 5  15757292.570 2
  25278577.435     4398739.747 7   3441380.481 8
  27487472.699   -41745639.142 4   -841406.028 2
  24027345.465   -35872125.332 8 -11281241.260 9
  28036019.298    36729845.827 4  23851167.735 1
  27076425.251    11123802.869 5   8343885.246 2
  24878925.548   -22117584.731 7  -9649895.452 7
 94  3 15  4 48  0.0110000  0  9  5 17  4 24  3 20 13 12 16
  23812891.658    -8770340.884 8  -6821718.024 9
  27659015.412     -706933.335 4   -486294.224 2
  27943178.730    20538968.508 5  15851679.469 2
  25297094.596     4496055.969 7   3517211.310 8
  27480483.577   -41782423.193 4   -870068.913 2
  24025191.186   -35883428.341 8 -11290048.802 9
  28053051.047    36819325.180 4  23920891.981 1
  27101574.271    11255984.894 5   8446884.216 2
  24874504.419   -22140835.788 7  -9668013.138 7
 94  3 15  4 48 30.0110000  0  9  5 17  4 24  3 20 13 12 16
  23825095.160    -8706193.864 8  -6771733.337 9
  27645833.628     -776229.716 4   -540291.357 2
  27966232.080    20660105.542 5  15946071.951 2
  25315651.299     4593565.689 7   3593192.905 8
  27473490.079   -41819122.182 4   -898665.485 2
  24023145.552   -35894181.013 8 -11298427.503 9
  28070085.764    36908804.660 4  23990616.146 1
  27126758.696    11388290.640 5   8549979.572 2
  24870178.174   -22163575.650 7  -9685732.485 7
 94  3 15  4 49  0.0110000  0  8  5 17  4 24  3 20 12 16
  23837404.818    -8641508.417 8  -6721329.113 9
  27632679.784     -845315.865 4   -594124.666 2
  27989289.778    20781264.889 4  16040481.795 2
  25334241.280     4691277.406 7   3669331.910 7
  27466527.279   -41855730.355 4   -927191.347 2
  24021207.784   -35904375.242 8 -11306371.062 9
  27151959.550    11520723.818 5   8653174.233 2
  24865950.081   -22185795.526 7  -9703046.658 7
 94  3 15  4 49 30.0110000  0  8  5 17  4 24  3 20 12 16
  23849819.763    -8576270.750 8  -6670494.567 9
  27619573.697     -914191.613 4   -647794.041 2
  28012335.304    20902437.858 4  16134902.276 2
  25352877.158     4789197.239 7   3745633.066 7
  27459590.411   -41892244.973 4   -955644.239 2
  24019377.401   -35914006.134 8 -11313875.646 9
  27177185.196    11653284.274 5   8756468.078 2
  24861818.941   -22207488.091 7  -9719949.950 7
 94  3 15  4 50  0.0110000  0  8  5 17  4 24  3 20 12 16
  23862335.709    -8510488.492 8  -6619235.672 9
  27606505.744     -982865.792 4   -701306.307 2
  28035405.413    21023607.176 4  16229319.937 2
  25371547.063     4887310.033 7   3822084.599 7
  27452647.128   -41928679.965 4   -984035.111 2
  24017649.397   -35923085.293 8 -11320950.322 9
  27202427.511    11785955.436 5   8859848.201 2
  24857788.291   -22228664.823 7  -9736451.288 7
 94  3 15  4 50 30.0110000  0  8  5 17  4 24  3 20 12 16
  23874960.928    -8444150.848 8  -6567544.024 9
  27593466.691    -1051345.584 4   -754667.176 2
  28058458.433    21144751.381 4  16323717.980 2
  25390254.113     4985606.660 7   3898679.368 7
  27445733.704   -41965042.832 4  -1012369.852 2
  24016023.323   -35931618.194 8 -11327599.335 9
  27227692.311    11918727.072 5   8963306.580 2
  24853855.524   -22249331.146 7  -9752554.903 7
 94  3 15  4 51  0.0110000  0  8  5 17  4 24  3 20 12 16
  23887692.575    -8377260.785 8  -6515421.914 9
  27580479.951    -1119643.369 4   -807886.206 2
  28081489.719    21265836.142 4  16418069.728 2
  25408990.212     5084069.543 7   3975403.685 7
  27438829.574   -42001345.681 5  -1040657.734 2
  24014500.707   -35939614.528 8 -11333830.243 9
  27252979.895    12051584.795 5   9066832.088 2
  24850022.527   -22269488.199 7  -9768261.690 7
 94  3 15  4 51 30.0110000  0  8  5 17  4 24  3 20 12 16
  23900523.692    -8309818.828 8  -6462869.748 9
  27567523.790    -1187755.893 5   -860960.870 2
  28104524.333    21386860.509 4  16512374.424 2
  25427758.059     5182689.897 7   4052250.706 7
  27431926.403   -42037586.182 5  -1068897.025 2
  24013084.547   -35947069.888 8 -11339639.631 9
  27278276.262    12184528.128 5   9170424.267 2
  24846285.974   -22289125.552 7  -9783563.515 7
 94  3 15  4 52  0.0110000  0  8  5 17  4 24  3 20 12 16
  23913459.736    -8241839.986 8  -6409899.236 9
  27554589.035    -1255679.556 4   -913888.368 2
  28127551.961    21507834.598 4  16606639.923 2
  25446551.929     5281448.086 7   4129205.152 7
  27425039.840   -42073764.361 5  -1097087.788 2
  24011766.540   -35953982.020 8 -11345025.702 9
  27303588.789    12317554.438 5   9274081.145 2
  24842645.864   -22308246.580 7  -9798463.002 7
 94  3 15  4 52 30.0110000  0  8  5 17  4 24  3 20 12 16
  23926494.862    -8173333.115 8  -6356517.264 9
  27541716.786    -1323406.025 5   -966662.238 2
  28150557.285    21628772.462 4  16700877.197 2
  25465370.321     5380340.474 7   4206264.155 7
  27418155.376   -42109876.031 4  -1125226.729 2
  24010556.907   -35960344.464 8 -11349983.457 9
  27328922.361    12450665.411 5   9377803.921 2
  24839111.761   -22326837.848 7  -9812949.684 8
 94  3 15  4 53  0.0110000  0  8  5 17  4 24  3 20 12 16
  23939633.327    -8104300.456 8  -6302725.599 9
  27528864.803    -1390924.879 5  -1019274.301 2
  28173575.889    21749696.353 4  16795103.587 2
  25484215.305     5479382.560 7   4283439.779 7
  27411311.594   -42145912.130 5  -1153306.760 2
  24009452.622   -35966146.157 8 -11354504.250 9
  27354270.413    12583867.364 5   9481597.641 2
  24835676.589   -22344876.493 7  -9827005.769 8
 94  3 15  4 53 30.0110000  0  8  5 17  4 24  3 20 12 16
  23952870.033    -8034740.219 8  -6248522.821 9
  27516039.322    -1458243.884 4  -1071730.646 2
  28196583.222    21870622.185 4  16889331.502 2
  25503091.407     5578590.895 7   4360745.000 7
  27404463.015   -42181873.764 4  -1181328.773 2
  24008455.242   -35971386.110 8 -11358587.343 9
  27379629.407    12717156.456 5   9585459.270 2
  24832349.192   -22362360.908 7  -9840629.970 8
 94  3 15  4 54  0.0110000  0  7  5 17 24  3 20 12 16
  23966208.039    -7964650.499 8  -6193907.465 9
  27503269.483    -1525375.009 4  -1124040.596 2
  25522006.093     5677977.065 7   4438188.758 7
  27397643.846   -42217764.919 5  -1209295.891 2
  24007565.428   -35976065.838 8 -11362233.889 9
  27405015.982    12850526.702 5   9689384.091 2
  24829130.111   -22379295.400 7  -9853825.666 8
 94  3 15  4 54 30.0110000  0  7  5 17 24  3 20 12 16
  23979647.615    -7894027.075 8  -6138876.245 9
  27490526.534    -1592333.742 4  -1176216.197 2
  25540955.315     5777545.043 7   4515774.198 7
  27390817.512   -42253596.605 5  -1237216.589 2
  24006778.833   -35980194.424 8 -11365450.976 9
  27430407.324    12983964.058 5   9793361.283 2
  24826007.173   -22395691.961 7  -9866602.202 8
 94  3 15  4 55  0.0110000  0  7  5 17 24  3 20 12 16
  23993187.502    -7822860.705 8  -6083421.952 9
  27477828.075    -1659119.700 5  -1228257.204 2
  25559936.854     5877292.751 7   4593499.682 7
  27384011.114   -42289372.519 5  -1265093.940 2
  24006098.364   -35983773.597 8 -11368239.943 9
  27455808.799    13117462.174 5   9897385.727 2
  24822985.325   -22411561.326 7  -9878967.926 8
 94  3 15  4 55 30.0110000  0  7  5 17 24  3 20 12 16
  24006833.935    -7751162.918 8  -6027553.549 9
  27465142.118    -1725729.251 5  -1280160.725 2
  25578944.835     5977196.972 7   4671347.115 7
  27377211.701   -42325104.954 5  -1292937.363 2
  24005517.456   -35986813.493 8 -11370608.692 9
  27481220.947    13251006.318 5  10001446.107 2
  24820058.931   -22426930.179 7  -9890943.647 8
 94  3 15  4 56  0.0110000  0  7  5 17 24  3 20 12 16
  24020575.731    -7678935.320 8  -5971272.316 9
  27452496.062    -1792155.335 5  -1331921.268 2
  25597982.975     6077239.634 7   4749302.457 7
  27370412.288   -42360792.057 5  -1320745.452 2
  24005045.163   -35989310.103 8 -11372554.099 9
  27506639.899    13384595.792 5  10105541.780 2
  24817231.228   -22441801.385 7  -9902531.577 8
 94  3 15  4 56 30.0110000  0  7  5 17 24  3 20 12 16
  24034417.929    -7606193.361 8  -5914590.280 9
  27439909.756    -1858392.999 5  -1383535.008 2
  25617045.908     6177403.765 7   4827352.411 7
  27363637.758   -42396441.106 5  -1348523.911 2
  24004669.763   -35991269.072 8 -11374080.561 9
  27532060.861    13518220.653 5  10209665.032 2
  24814495.592   -22456180.854 7  -9913736.344 8
 94  3 15  4 57  0.0110000  0  7  5 17 24  3 20 12 16
  24048351.413    -7532962.849 8  -5857527.562 9
  27427335.441    -1924450.648 5  -1435008.490 2
  25636127.458     6277674.776 7   4905485.673 7
  27356858.011   -42432065.023 5  -1376282.755 2
  24004398.181   -35992701.027 8 -11375196.396 9
  27557503.767    13651865.399 5  10313803.795 2
  24811852.202   -22470068.385 7  -9924557.788 8
 94  3 15  4 57 30.0110000  0  7  5 17 24  3 20 12 16
  24062382.090    -7459253.048 8  -5800091.363 9
  27414783.340    -1990351.648 5  -1486359.946 2
  25655227.745     6378042.085 7   4983693.974 7
  27350078.924   -42467665.660 5  -1404023.460 2
  24004224.871   -35993605.946 8 -11375901.518 9
  27582941.577    13785525.581 5  10417954.582 2
  24809305.435   -22483454.470 7  -9934988.488 8
 94  3 15  4 58  0.0110000  0  7  5 17 24  3 20 12 16
  24076501.985    -7385051.591 7  -5742272.053 9
  27402281.905    -2056104.328 5  -1537595.756 2
  25674342.483     6478511.423 7   5061981.751 7
  27343309.880   -42503234.134 5  -1431739.148 2
  24004157.118   -35993973.014 8 -11376187.565 9
  27608376.209    13919207.537 5  10522122.326 2
  24806853.433   -22496328.047 7  -9945019.844 8
 94  3 15  4 58 30.0110000  0  7  5 17 24  3 20 12 16
  24090712.477    -7310364.702 7  -5684074.488 9
  27389791.772    -2121708.492 5  -1588715.885 3
  25693480.604     6579076.599 7   5140344.241 7
  27336547.132   -42538778.282 5  -1459435.870 2
  24004188.686   -35993808.120 8 -11376059.064 9
  27633817.976    14052900.959 5  10626299.000 2
  24804501.381   -22508693.994 7  -9954655.635 8
 94  3 15  4 59  0.0110000  0  7  5 17 24  3 20 12 16
  24105018.243    -7235183.917 7  -5625492.082 9
  27377336.954    -2187171.722 5  -1639726.182 3
  25712633.204     6679732.747 7   5218777.590 6
  27329784.984   -42574298.355 5  -1487113.816 2
  24004325.361   -35993109.774 8 -11375514.900 9
  27659249.400    14186602.821 4  10730482.276 2
  24802244.393   -22520554.071 7  -9963897.255 8
 94  3 15  4 59 30.0110000  0  7  5 17 24  3 20 12 16
  24119423.421    -7159488.768 7  -5566508.858 9
  27364913.195    -2252470.885 5  -1690608.631 3
  25731806.971     6780491.759 7   5297291.113 6
  27323043.461   -42609781.929 5  -1514763.327 2
  24004559.259   -35991863.440 8 -11374543.742 9
  27684699.711    14320323.030 4  10834679.793 2
  24800084.419   -22531902.919 7  -9972740.500 8
 94  3 15  5  0  0.0110000  0  7  5 17 24  3 20 12 16
  24133925.671    -7083285.754 8  -5507129.888 9
  27352529.458    -2317567.093 5  -1741332.966 3
  25751010.446     6881383.629 7   5375908.154 6
  27316301.758   -42645222.538 5  -1542379.377 2
  24004903.031   -35990060.795 8 -11373139.083 9
  27710157.397    14454065.470 4  10938894.688 2
  24798022.117   -22542738.669 7  -9981183.935 8
 94  3 15  5  0 30.0110000  0  7  5 17 24  3 20 12 16
  24148520.257    -7006591.530 7  -5447368.161 9
  27340179.508    -2382442.016 5  -1791884.826 3
  25770232.839     6982420.057 7   5454637.828 6
  27309552.290   -42680616.143 5  -1569958.805 2
  24005350.382   -35987696.063 8 -11371296.429 9
  27735607.169    14587831.557 4  11043127.985 2
  24796063.572   -22553039.500 8  -9989210.554 8
 94  3 15  5  1  0.0110000  0  7  5 17 24  3 20 12 16
  24163205.381    -6929412.360 7  -5387228.571 9
  27327882.051    -2447088.795 5  -1842258.936 3
  25789487.819     7083605.128 7   5533483.349 6
  27302837.839   -42715961.759 5  -1597500.813 2
  24005909.045   -35984766.376 8 -11369013.560 9
  27761073.759    14721619.841 4  11147378.576 2
  24794205.069   -22562796.005 8  -9996813.001 8
 94  3 15  5  1 30.0110000  0  7  5 17 24  3 20 12 16
  24177984.220    -6851752.357 8  -5326714.289 9
  27315610.406    -2511492.431 5  -1892443.563 3
  25808771.789     7184935.640 7   5612442.175 6
  27296115.952   -42751261.322 5  -1625006.967 2
  24006577.282   -35981271.939 8 -11366290.624 9
  27786533.303    14855425.860 4  11251643.001 2
  24792456.290   -22572000.198 8 -10003985.084 8
 94  3 15  5  2  0.0110000  0  7  5 17 24  3 20 12 16
  24192853.116    -6773627.329 8  -5265837.662 9
  27303408.134    -2575674.200 5  -1942455.305 3
  25828077.434     7286377.021 7   5691487.407 6
  27289405.578   -42786528.801 5  -1652488.127 2
  24007345.021   -35977224.932 8 -11363137.120 9
  27811990.180    14989232.885 4  11355908.189 2
  24790806.562   -22580665.032 8 -10010736.892 8
 94  3 15  5  2 30.0110000  0  7  5 17 24  3 20 12 16
  24207813.300    -6695011.213 8  -5204578.361 9
  27291222.680    -2639656.055 5  -1992311.325 3
  25847393.782     7387906.276 7   5770601.106 6
  27282702.878   -42821760.510 5  -1679941.395 2
  24008218.256   -35972619.895 8 -11359548.781 9
  27837454.611    15123042.132 4  11460175.117 2
  24789264.040   -22588777.486 7 -10017058.287 8
 94  3 15  5  3  0.0110000  0  7  5 17 24  3 20 12 16
  24222872.744    -6615877.470 8  -5142915.698 9
  27279092.417    -2703456.024 5  -2042025.565 3
  25866731.145     7489503.766 7   5849767.986 6
  27275997.840   -42856965.032 5  -1707373.473 2
  24009200.766   -35967463.786 8 -11355531.030 9
  27862913.017    15256842.648 4  11564435.242 2
  24787821.258   -22596348.984 7 -10022958.137 8
 94  3 15  5  3 30.0110000  0  7  5 17 24  3 20 12 16
  24238027.643    -6536221.404 8  -5080846.057 9
  27266986.498    -2767084.027 5  -2091605.782 3
  25886074.863     7591167.360 7   5928986.391 6
  27269303.864   -42892143.649 5  -1734785.383 2
  24010290.842   -35961756.042 8 -11351083.441 9
  27888376.968    15390630.341 4  11668685.388 2
  24786483.045   -22603383.397 7 -10028439.486 8
 94  3 15  5  4  0.0110000  0  7  5 17 24  3 20 12 16
  24253286.749    -6456046.924 8  -5018372.457 8
  27254908.100    -2830556.587 5  -2141064.925 3
  25905436.120     7692907.788 7   6008264.610 6
  27262614.235   -42927292.014 5  -1762173.722 2
  24011481.527   -35955490.763 8 -11346201.415 9
  27913834.834    15524406.914 5  11772926.868 2
  24785247.990   -22609881.411 7 -10033502.878 8
 94  3 15  5  4 30.0110000  0  7  5 17 24  3 20 12 16
  24268640.140    -6375359.048 8  -4955498.793 8
  27242857.252    -2893870.682 4  -2190400.563 3
  25924818.272     7794745.936 7   6087619.018 6
  27255929.343   -42962411.316 5  -1789539.393 2
  24012777.380   -35948667.365 8 -11340884.479 9
  27939285.925    15658168.852 5  11877156.935 2
  24784115.464   -22615834.192 7 -10038141.395 8
 94  3 15  5  5  0.0110000  0  7  5 17 24  3 20 12 16
  24284084.398    -6294191.108 8  -4892251.050 8
  27230847.297    -2957012.221 5  -2239601.734 3
  25944209.807     7896676.790 7   6167045.661 6
  27249254.763   -42997517.391 5  -1816894.748 2
  24014183.017   -35941300.374 8 -11335143.974 9
  27964731.229    15791897.678 5  11981361.163 2
  24783078.542   -22621261.655 7 -10042370.584 8
 94  3 15  5  5 30.0110000  0  7  5 17 24  3 20 12 16
  24299615.656    -6212575.276 8  -4828654.313 8
  27218870.228    -3019978.589 5  -2288666.417 2
  25963625.866     7998707.534 7   6246550.121 6
  27242575.208   -43032612.265 5  -1844241.386 2
  24015684.588   -35933390.131 8 -11328980.146 9
  27990177.463    15925588.899 5  12085536.155 2
  24782145.678   -22626171.238 7 -10046196.230 8
 94  3 15  5  6  0.0110000  0  7  5 17 24  3 20 12 16
  24315232.445    -6130505.766 8  -4764704.056 8
  27206912.736    -3082753.172 5  -2337581.660 2
  25983061.771     8100845.199 7   6326137.909 6
  27235905.965   -43067684.631 5  -1871570.420 2
  24017297.801   -35924923.821 8 -11322383.031 9
  28015608.708    16059251.079 5  12189688.478 2
  24781314.383   -22630544.721 7 -10049604.131 7
 94  3 15  5  6 30.0110000  0  7  5 17 24  3 20 12 16
  24330942.589    -6047953.858 8  -4700378.046 7
  27195014.723    -3145293.053 5  -2386314.138 2
  26002523.607     8203106.694 7   6405822.046 5
  27229232.345   -43102713.158 5  -1898865.514 2
  24019016.841   -35915878.564 8 -11315334.926 9
  28041043.549    16192903.174 4  12293832.777 1
  24780588.136   -22634348.617 7 -10052568.341 7
 94  3 15  5  7  0.0110000  0  7  5 17 24  3 20 12 16
  24346746.568    -5964898.271 8  -4635659.327 6
  27183161.109    -3207574.567 5  -2434845.088 2
  26022008.259     8305498.676 7   6485608.096 5
  27222578.001   -43137677.906 5  -1926110.674 2
  24020854.628   -35906233.021 8 -11307818.819 9
  28066475.393    16326562.631 4  12397983.127 1
  24779977.638   -22637570.843 7 -10055079.062 6
 94  3 15  5  7 30.0110000  0  7  5 17 24  3 20 12 16
  24362648.489    -5881327.037 8  -4570538.839 7
  27171352.224    -3269599.177 5  -2483175.882 2
  26041518.212     8408032.501 7   6565504.642 5
  27215945.933   -43172565.142 5  -1953295.467 2
  24022806.907   -35895971.864 8 -11299823.056 9
  28091919.349    16460240.328 4  12502147.594 1
  24779475.936   -22640205.082 7 -10057131.655 7
 94  3 15  5  8  0.0110000  0  7  5 17 24  3 20 12 16
  24378657.017    -5797224.040 8  -4505004.050 7
  27159606.446    -3331353.794 5  -2531296.361 2
  26061059.014     8510703.991 7   6645508.383 5
  27209309.607   -43207368.006 5  -1980414.597 2
  24024878.832   -35885086.627 8 -11291341.080 9
  28117365.463    16593940.988 4  12606329.858 1
  24779088.634   -22642241.369 8 -10058718.365 7
 94  3 15  5  8 30.0110000  0  7  5 17 24  3 20 12 16
  24394758.720    -5712595.575 8  -4439059.809 7
  27147897.662    -3392833.562 5  -2579202.632 3
  26080620.682     8613514.118 7   6725620.154 5
  27202710.306   -43242085.873 5  -2007467.479 2
  24027069.566   -35873575.314 8 -11282371.216 9
  28142807.620    16727662.732 4  12710528.634 1
  24778811.836   -22643690.049 8 -10059847.190 8
 94  3 15  5  9  0.0110000  0  7  5 17 24  3 20 12 16
  24410958.605    -5627460.655 8  -4372720.930 8
  27136250.874    -3454071.613 5  -2626920.577 3
  26100206.693     8716440.197 7   6805822.296 6
  27196127.523   -43276733.439 5  -2034465.589 2
  24029377.188   -35861451.622 8 -11272924.188 9
  28168251.845    16861387.713 4  12814729.930 2
  24778639.185   -22644581.128 8 -10060541.527 8
 94  3 15  5  9 30.0110000  0  7  5 17 24  3 20 12 16
  24427256.192    -5541828.387 8  -4305994.507 8
  27124647.647    -3515082.948 5  -2674461.862 3
  26119816.208     8819469.608 7   6886104.944 6
  27189534.367   -43311322.377 5  -2061417.948 2
  24031797.683   -35848725.450 8 -11263007.701 9
  28193690.764    16995102.155 4  12918922.931 1
  24778581.235   -22644908.813 8 -10060796.869 8
 94  3 15  5 10  0.0110000  0  7  5 17 24  3 20 12 16
  24443646.326    -5455695.755 8  -4238878.162 8
  27113075.598    -3575883.201 5  -2721838.668 3
  26139435.885     8922583.991 7   6966453.823 6
  27182973.409   -43345864.709 5  -2088334.076 2
  24034335.516   -35835407.376 8 -11252629.979 9
  28219147.850    17128791.545 4  13023096.552 1
  24778628.033   -22644663.787 7 -10060605.924 8
 94  3 15  5 10 30.0110000  0  7  5 17 24  3 20 12 16
  24460127.656    -5369078.617 8  -4171384.305 8
  27101536.197    -3636498.800 5  -2769071.561 3
  26159072.981     9025767.179 7   7046856.297 5
  27176400.310   -43380382.237 5  -2115230.789 2
  24036975.758   -35821518.064 8 -11241807.134 9
  28244570.850    17262431.523 4  13127231.528 1
  24778780.477   -22643864.527 7 -10059983.114 8
 94  3 15  5 11  0.0120000  0  7  5 17 24  3 20 12 16
  24476702.461    -5281978.946 8  -4103514.439 8
  27090034.569    -3696948.882 5  -2816175.555 3
  26178716.881     9129007.267 7   7127303.112 5
  27169828.499   -43414886.723 5  -2142117.389 2
  24039725.394   -35807066.275 8 -11230546.021 9
  28269979.640    17396013.418 4  13231321.337 1
  24779034.222   -22642502.983 7 -10058922.174 8
 94  3 15  5 11 30.0120000  0  7  5 17 24  3 20 12 16
  24493367.594    -5194395.817 8  -4035267.862 8
  27078562.351    -3757217.708 5  -2863138.238 3
  26198373.823     9232315.631 7   7207803.140 5
  27163280.192   -43449369.779 5  -2168987.307 2
  24042582.177   -35792045.388 8 -11218841.434 9
  28295391.158    17529531.938 3  13335361.697 1
  24779407.973   -22640558.246 7 -10057406.777 8
 94  3 15  5 12  0.0120000  0  7  5 17 24  3 20 12 16
  24510128.481    -5106328.509 8  -3966643.997 8
  27067130.965    -3817292.442 5  -2909949.673 3
  26218053.279     9335708.971 7   7288369.360 5
  27156719.234   -43483823.263 5  -2195834.163 2
  24045554.379   -35776444.476 8 -11206684.886 9
  28320792.903    17662998.115 4  13439361.274 1
  24779886.711   -22638040.358 7 -10055444.769 8
 94  3 15  5 12 30.0120000  0  7  5 17 24  3 20 12 16
  24526979.186    -5017779.606 8  -3897644.863 8
  27055745.447    -3877149.050 5  -2956591.216 3
  26237748.565     9439209.134 7   7369018.834 5
  27150162.504   -43518232.540 5  -2222646.569 2
  24048633.278   -35760247.948 8 -11194064.210 9
  28346177.440    17796423.968 3  13543329.493 1
  24780478.082   -22634946.856 7 -10053034.251 8
 94  3 15  5 13  0.0120000  0  7  5 17 24  3 20 12 16
  24543920.667    -4928749.484 8  -3828270.759 8
  27044388.350    -3936782.891 5  -3003059.130 3
  26257462.557     9542818.258 7   7449753.215 5
  27143624.810   -43552595.381 5  -2249422.771 2
  24051831.014   -35743452.284 8 -11180976.689 9
  28371570.341    17929809.485 4  13647266.214 1
  24781174.110   -22631275.902 7 -10050173.754 8
 94  3 15  5 13 30.0120000  0  7  5 17 24  3 20 12 16
  24560951.577    -4839250.908 8  -3758531.609 8
  27033083.686    -3996195.803 5  -3049354.843 3
  26277193.428     9646525.792 7   7530564.280 5
  27137093.501   -43586928.459 5  -2276175.796 2
  24055138.984   -35726073.275 8 -11167434.604 9
  28396935.451    18063135.361 4  13751156.500 1
  24781980.582   -22627054.959 8 -10046884.687 8
 94  3 15  5 14  0.0120000  0  7  5 17 24  3 20 12 16
  24578071.735    -4749288.487 8  -3688431.049 7
  27021840.179    -4055377.329 5  -3095470.344 3
  26296949.271     9750315.453 7   7611439.319 5
  27130557.906   -43621233.968 5  -2302907.342 2
  24058556.738   -35708111.896 8 -11153438.744 9
  28422292.466    18196396.809 4  13854996.542 1
  24782886.315   -22622280.047 8 -10043163.998 8
 94  3 15  5 14 30.0120000  0  7  5 17 24  3 20 12 16
  24595280.662    -4658844.553 8  -3617955.271 7
  27010600.151    -4114332.518 5  -3141409.424 3
  26316712.459     9854181.261 7   7692373.709 5
  27124047.882   -43655510.715 5  -2329616.431 2
  24062084.246   -35689565.649 8 -11138987.126 9
  28447634.223    18329592.707 4  13958785.601 1
  24783903.121   -22616923.076 8 -10038989.713 8
 94  3 15  5 15  0.0120000  0  7  5 17 24  3 20 12 16
  24612582.434    -4567920.463 7  -3547105.347 7
  26999439.297    -4173059.766 5  -3187170.880 3
  26336489.708     9958116.284 7   7773362.052 5
  27117520.711   -43689755.108 5  -2356300.371 2
  24065726.514   -35670429.829 8 -11124076.092 9
  28472971.692    18462723.933 4  14062524.168 1
  24785037.356   -22610970.155 8 -10034351.057 8
 94  3 15  5 15 30.0120000  0  7  5 17 24  3 20 12 16
  24629982.898    -4476501.096 7  -3475869.486 7
  26988307.733    -4231536.439 5  -3232737.147 3
  26356283.984    10062129.722 7   7854411.473 5
  27111014.705   -43723947.590 5  -2382943.831 2
  24069482.194   -35650684.141 8 -11108689.851 9
  28498310.870    18595807.658 4  14166225.772 1
  24786291.447   -22604385.383 7 -10029220.062 8
 94  3 15  5 16  0.0120000  0  7  5 17 24  3 20 12 16
  24647474.139    -4384573.820 7  -3404237.862 7
  26977230.102    -4289755.431 5  -3278102.551 3
  26376093.191    10166237.333 7   7935534.286 5
  27104521.380   -43758066.020 5  -2409529.610 2
  24073361.299   -35630305.377 8 -11092810.303 9
  28523615.542    18728863.442 4  14269905.590 1
  24787670.163   -22597141.742 8 -10023575.659 8
 94  3 15  5 16 30.0120000  0  7  5 17 24  3 20 12 16
  24665064.341    -4292128.179 7  -3332202.297 7
  26966203.346    -4347704.562 5  -3323257.715 3
  26395932.796    10270472.414 7   8016756.397 5
  27098051.739   -43792090.994 5  -2436042.498 2
  24077364.278   -35609272.984 8 -11076421.440 9
  28548947.825    18861908.258 4  14373576.870 1
  24789172.303   -22589240.723 8 -10017418.997 8
 94  3 15  5 17  0.0120000  0  7  5 17 24  3 20 12 16
  24682751.707    -4199183.706 7  -3259778.069 7
  26955227.344    -4405382.937 5  -3368201.872 3
  26415789.669    10374836.936 7   8098079.389 5
  27091587.374   -43826030.198 5  -2462488.611 2
  24081490.981   -35587593.725 8 -11059528.515 9
  28574249.739    18994931.883 4  14477231.602 1
  24790798.887   -22580713.058 8 -10010774.076 8
 94  3 15  5 17 30.0120000  0  7  5 17 24  3 20 12 16
  24700531.618    -4105745.697 7  -3186969.242 7
  26944300.899    -4462804.149 5  -3412945.691 3
  26435674.064    10479331.449 7   8179503.686 5
  27085139.618   -43859896.597 5  -2488877.989 2
  24085736.761   -35565279.561 8 -11042140.853 9
  28599564.543    19127919.015 4  14580857.944 1
  24792536.304   -22571580.468 8 -10003657.763 9
 94  3 15  5 18  0.0120000  0  7  5 17 24  3 20 12 16
  24718406.803    -4011815.677 7  -3113777.034 7
  26933421.970    -4519963.779 5  -3457485.617 3
  26455584.750    10583961.534 6   8261033.595 5
  27078717.404   -43893694.481 5  -2515213.986 2
  24090101.919   -35542333.881 8 -11024261.116 9
  28624856.384    19260862.696 4  14684450.417 1
  24794382.306   -22561862.563 8  -9996085.350 9
 94  3 15  5 18 30.0120000  0  6  5 17 24  3 20 16
  24736374.714    -3917400.945 7  -3040207.128 7
  26922589.059    -4576851.875 5  -3501813.995 3
  26475514.053    10688699.152 6   8342647.331 5
  27072287.036   -43927439.531 5  -2541508.782 2
  24094587.654   -35518771.943 8 -11005901.151 9
  24796340.191   -22551572.451 8  -9988067.077 9
 94  3 15  5 19  0.0120000  0  6  5 17 24  3 20 16
  24754429.685    -3822504.159 7  -2966261.579 7
  26911822.073    -4633460.821 5  -3545924.870 3
  26495461.734    10793516.435 6   8424323.147 5
  27065893.482   -43961133.881 6  -2567764.031 2
  24099186.141   -35494595.034 8 -10987062.021 9
  24798412.416   -22540695.945 8  -9979591.858 9
 94  3 15  5 19 30.0120000  0  6  5 17 24  3 20 16
  24772578.011    -3727135.925 7  -2891948.688 7
  26901094.959    -4689791.101 5  -3589818.584 3
  26515419.787    10898392.286 6   8506044.557 5
  27059476.574   -43994785.177 6  -2593985.786 3
  24103902.356   -35469809.746 8 -10967748.824 9
  24800593.856   -22529226.898 8  -9970654.953 9
 94  3 15  5 20  0.0120000  0  6  5 17 24  3 20 16
  24790811.628    -3631314.757 7  -2817282.859 7
  26890427.265    -4745849.954 5  -3633500.774 3
  26535381.767    11003296.719 6   8587788.261 4
  27053087.157   -44028404.852 6  -2620182.877 3
  24108733.781   -35444426.785 8 -10947969.890 9
  24802886.879   -22517172.297 8  -9961261.744 9
 94  3 15  5 20 30.0120000  0  6  5 17 24  3 20 16
  24809132.425    -3535056.103 7  -2742276.117 7
  26879814.672    -4801651.587 5  -3676982.562 3
  26555349.324    11108234.442 6   8669557.911 4
  27046692.075   -44061988.072 6  -2646351.593 3
  24113678.378   -35418440.528 8 -10927720.867 9
  24805297.390   -22504519.242 8  -9951402.208 9
 94  3 15  5 21  0.0120000  0  6  5 17 24  3 20 16
  24827532.907    -3438362.869 7  -2666930.755 7
  26869235.475    -4857226.406 5  -3720287.589 3
  26575337.057    11213240.380 6   8751380.717 4
  27040304.187   -44095526.046 5  -2672485.064 3
  24118740.044   -35391841.302 8 -10906994.203 9
  24807820.084   -22491254.577 8  -9941066.109 9
 94  3 15  5 21 30.0120000  0  6  5 17 24  3 20 16
  24846016.431    -3341219.445 7  -2591234.600 7
  26858700.289    -4912584.334 5  -3763423.642 3
  26595332.884    11318339.132 6   8833275.836 4
  27033935.696   -44129014.742 6  -2698580.138 3
  24123918.898   -35364624.622 8 -10885786.420 9
  24810459.876   -22477375.624 8  -9930251.343 9
 94  3 15  5 22  0.0120000  0  6  5 17 24  3 20 16
  24864589.143    -3243624.277 7  -2515186.421 7
  26848215.767    -4967735.508 6  -3806398.560 3
  26615348.408    11423531.799 6   8915244.136 4
  27027574.190   -44162455.046 6  -2724637.496 3
  24129215.662   -35336790.458 8 -10864097.460 9
  24813216.348   -22462887.338 8  -9918961.756 9
 94  3 15  5 22 30.0120000  0  6  5 17 24  3 20 16
  24883251.374    -3145553.340 7  -2438767.521 7
  26837768.390    -5022666.758 6  -3849202.103 3
  26635392.022    11528838.341 6   8997301.164 4
  27021222.367   -44195831.175 6  -2750644.901 3
  24134632.851   -35308322.652 8 -10841914.762 9
  24816094.715   -22447767.975 8  -9907180.439 9
 94  3 15  5 23  0.0120000  0  6  5 17 24  3 20 16
  24902006.000    -3047003.117 7  -2361975.158 7
  26827336.571    -5077377.137 5  -3891833.554 3
  26655443.311    11634230.518 6   9079424.937 4
  27014876.690   -44229158.153 6  -2776614.037 3
  24140169.269   -35279235.671 8 -10819249.585 9
  24819087.153   -22432043.100 8  -9894927.277 9
 94  3 15  5 23 30.0120000  0  6  5 17 24  3 20 16
  24920846.847    -2947990.629 7  -2284822.573 7
  26816981.800    -5131839.349 5  -3934271.590 3
  26675509.649    11739678.703 6   9161592.357 4
  27008540.247   -44262447.921 6  -2802554.174 3
  24145819.127   -35249541.023 8 -10796110.906 9
  24822190.035   -22415739.369 8  -9882223.065 9
 94  3 15  5 24  0.0120000  0  6  5 17 24  3 20 16
  24939773.974    -2848536.849 7  -2207326.129 7
  26806669.089    -5186055.767 5  -3976518.118 3
  26695587.469    11845168.576 6   9243792.246 4
  27002215.285   -44295708.441 6  -2828471.443 3
  24151582.577   -35219246.427 8 -10772504.738 9
  24825401.982   -22398857.015 8  -9869067.975 9
 94  3 15  5 24 30.0120000  0  6  5 17 24  3 20 16
  24958777.758    -2748654.232 7  -2129495.508 7
  26796398.829    -5240016.803 5  -4018565.663 3
  26715666.399    11950703.475 6   9326027.221 4
  26995886.547   -44328938.204 6  -2854364.742 3
  24157463.696   -35188349.521 8 -10748429.238 9
  24828722.993   -22381394.012 8  -9855460.418 9
 94  3 15  5 25  0.0120000  0  6  5 17 24  3 20 16
  24977863.865    -2648362.435 7  -2051346.078 7
  26786177.465    -5293713.174 5  -4060407.008 3
  26735759.989    12056286.345 6   9408299.590 4
  26989581.372   -44362141.995 6  -2880237.788 3
  24163458.826   -35156854.567 8 -10723887.712 9
  24832158.045   -22363360.189 8  -9841408.096 9
